| time (UTC) | temp C | wind direction | speed KPH | gust KPH | rain 1hr cm | rain 24hr cm | rain mn cm | humidity % | barometer mb |
| 20260902135907 | 27 | 157 | 9.7 | 0.0 | 0.00 | 0.00 | 0.00 | 46 | 1029.5 |
| 20260902135807 | 27 | 180 | 0.0 | 0.0 | 0.00 | 0.00 | 0.00 | 46 | 1029.6 |
| 20260902135707 | 27 | 180 | 8.0 | 0.0 | 0.00 | 0.00 | 0.00 | 46 | 1029.8 |
| 20260902135607 | 27 | 180 | 19.3 | 0.0 | 0.00 | 0.00 | 0.00 | 46 | 1029.6 |
| 20260902135507 | 27 | 180 | 19.3 | 0.0 | 0.00 | 0.00 | 0.00 | 47 | 1029.6 |
| 20260902135407 | 27 | 202 | 19.3 | 0.0 | 0.00 | 0.00 | 0.00 | 47 | 1029.6 |
| 20260902135307 | 28 | 202 | 22.5 | 0.0 | 0.00 | 0.00 | 0.00 | 47 | 1029.8 |
| 20260902135207 | 28 | 180 | 9.7 | 0.0 | 0.00 | 0.00 | 0.00 | 47 | 1029.6 |
| 20260902135107 | 28 | 157 | 0.0 | 0.0 | 0.00 | 0.00 | 0.00 | 47 | 1029.6 |
| 20260902135007 | 28 | 157 | 11.3 | 0.0 | 0.00 | 0.00 | 0.00 | 47 | 1029.8 |
| 20260902134907 | 28 | 157 | 0.0 | 0.0 | 0.00 | 0.00 | 0.00 | 47 | 1029.6 |
| 20260902134807 | 28 | 157 | 0.0 | 0.0 | 0.00 | 0.00 | 0.00 | 47 | 1029.6 |
| 20260902134707 | 28 | 180 | 14.5 | 0.0 | 0.00 | 0.00 | 0.00 | 47 | 1029.8 |
| 20260902134607 | 28 | 180 | 9.7 | 0.0 | 0.00 | 0.00 | 0.00 | 47 | 1029.6 |
| 20260902134507 | 28 | 180 | 3.2 | 0.0 | 0.00 | 0.00 | 0.00 | 47 | 1029.6 |
| 20260902134407 | 28 | 180 | 1.6 | 0.0 | 0.00 | 0.00 | 0.00 | 47 | 1029.6 |
| 20260902134307 | 28 | 180 | 19.3 | 0.0 | 0.00 | 0.00 | 0.00 | 47 | 1029.6 |
| 20260902134207 | 28 | 157 | 14.5 | 0.0 | 0.00 | 0.00 | 0.00 | 48 | 1029.6 |
| 20260902134107 | 28 | 157 | 14.5 | 0.0 | 0.00 | 0.00 | 0.00 | 48 | 1029.5 |
| 20260902134007 | 28 | 157 | 16.1 | 0.0 | 0.00 | 0.00 | 0.00 | 48 | 1029.5 |
| 20260902133907 | 28 | 157 | 16.1 | 0.0 | 0.00 | 0.00 | 0.00 | 48 | 1029.6 |
| 20260902133807 | 28 | 157 | 4.8 | 0.0 | 0.00 | 0.00 | 0.00 | 48 | 1029.6 |
| 20260902133707 | 28 | 157 | 0.0 | 0.0 | 0.00 | 0.00 | 0.00 | 48 | 1029.6 |
| 20260902133607 | 28 | 180 | 9.7 | 0.0 | 0.00 | 0.00 | 0.00 | 48 | 1029.8 |
| 20260902133507 | 28 | 180 | 0.0 | 0.0 | 0.00 | 0.00 | 0.00 | 48 | 1029.5 |
| 20260902133407 | 28 | 180 | 8.0 | 0.0 | 0.00 | 0.00 | 0.00 | 48 | 1029.6 |
| 20260902133307 | 27 | 202 | 19.3 | 0.0 | 0.00 | 0.00 | 0.00 | 48 | 1029.6 |
| 20260902133206 | 27 | 202 | 27.4 | 0.0 | 0.00 | 0.00 | 0.00 | 48 | 1029.5 |
| 20260902133107 | 27 | 157 | 0.0 | 0.0 | 0.00 | 0.00 | 0.00 | 48 | 1029.5 |
| 20260902133007 | 27 | 157 | 4.8 | 0.0 | 0.00 | 0.00 | 0.00 | 48 | 1029.5 |
| 20260902132907 | 27 | 157 | 0.0 | 0.0 | 0.00 | 0.00 | 0.00 | 49 | 1029.5 |
| 20260902132807 | 27 | 157 | 4.8 | 0.0 | 0.00 | 0.00 | 0.00 | 49 | 1029.5 |
| 20260902132707 | 27 | 157 | 0.0 | 0.0 | 0.00 | 0.00 | 0.00 | 49 | 1029.6 |
| 20260902132607 | 27 | 157 | 0.0 | 0.0 | 0.00 | 0.00 | 0.00 | 49 | 1029.5 |
| 20260902132507 | 27 | 157 | 0.0 | 0.0 | 0.00 | 0.00 | 0.00 | 49 | 1029.5 |
| 20260902132407 | 27 | 157 | 0.0 | 0.0 | 0.00 | 0.00 | 0.00 | 49 | 1029.6 |
| 20260902132307 | 27 | 157 | 3.2 | 0.0 | 0.00 | 0.00 | 0.00 | 49 | 1029.6 |
| 20260902132207 | 27 | 157 | 6.4 | 0.0 | 0.00 | 0.00 | 0.00 | 49 | 1029.6 |
| 20260902132107 | 27 | 157 | 0.0 | 0.0 | 0.00 | 0.00 | 0.00 | 49 | 1029.6 |
| 20260902132007 | 27 | 157 | 4.8 | 0.0 | 0.00 | 0.00 | 0.00 | 49 | 1029.8 |
| 20260902131907 | 27 | 157 | 16.1 | 0.0 | 0.00 | 0.00 | 0.00 | 49 | 1029.6 |
| 20260902131807 | 27 | 157 | 0.0 | 0.0 | 0.00 | 0.00 | 0.00 | 49 | 1029.8 |
| 20260902131707 | 27 | 180 | 14.5 | 0.0 | 0.00 | 0.00 | 0.00 | 49 | 1029.8 |
| 20260902131607 | 27 | 157 | 16.1 | 0.0 | 0.00 | 0.00 | 0.00 | 49 | 1029.9 |
| 20260902131507 | 27 | 157 | 0.0 | 0.0 | 0.00 | 0.00 | 0.00 | 50 | 1030.0 |
| 20260902131407 | 27 | 157 | 9.7 | 0.0 | 0.00 | 0.00 | 0.00 | 50 | 1030.0 |
| 20260902131307 | 27 | 157 | 14.5 | 0.0 | 0.00 | 0.00 | 0.00 | 50 | 1030.0 |
| 20260902131207 | 27 | 157 | 17.7 | 0.0 | 0.00 | 0.00 | 0.00 | 50 | 1030.0 |
| 20260902131107 | 27 | 180 | 0.0 | 0.0 | 0.00 | 0.00 | 0.00 | 50 | 1030.0 |
| 20260902131007 | 27 | 180 | 0.0 | 0.0 | 0.00 | 0.00 | 0.00 | 50 | 1030.0 |
| 20260902130907 | 27 | 180 | 0.0 | 0.0 | 0.00 | 0.00 | 0.00 | 50 | 1030.0 |
| 20260902130807 | 27 | 180 | 0.0 | 0.0 | 0.00 | 0.00 | 0.00 | 50 | 1030.0 |
| 20260902130707 | 27 | 180 | 0.0 | 0.0 | 0.00 | 0.00 | 0.00 | 50 | 1030.0 |
| 20260902130606 | 27 | 180 | 0.0 | 0.0 | 0.00 | 0.00 | 0.00 | 50 | 1030.0 |
| 20260902130506 | 27 | 180 | 0.0 | 0.0 | 0.00 | 0.00 | 0.00 | 51 | 1030.1 |
| 20260902130407 | 27 | 180 | 4.8 | 0.0 | 0.00 | 0.00 | 0.00 | 51 | 1030.1 |
| 20260902130307 | 27 | 180 | 8.0 | 0.0 | 0.00 | 0.00 | 0.00 | 51 | 1030.0 |
| 20260902130206 | 27 | 180 | 0.0 | 0.0 | 0.00 | 0.00 | 0.00 | 51 | 1030.0 |
| 20260902130106 | 27 | 180 | 0.0 | 0.0 | 0.00 | 0.00 | 0.00 | 51 | 1030.0 |
| 20260902130006 | 27 | 180 | 0.0 | 0.0 | 0.00 | 0.00 | 0.00 | 51 | 1030.0 |
| 20260902125906 | 27 | 157 | 3.2 | 0.0 | 0.00 | 0.00 | 0.00 | 51 | 1030.0 |
| 20260902125806 | 26 | 157 | 8.0 | 0.0 | 0.00 | 0.00 | 0.00 | 51 | 1030.0 |
| 20260902125706 | 27 | 157 | 14.5 | 0.0 | 0.00 | 0.00 | 0.00 | 51 | 1030.0 |
| 20260902125606 | 26 | 157 | 11.3 | 0.0 | 0.00 | 0.00 | 0.00 | 51 | 1030.1 |
| 20260902125506 | 26 | 180 | 4.8 | 0.0 | 0.00 | 0.00 | 0.00 | 52 | 1030.0 |
| 20260902125406 | 26 | 180 | 0.0 | 0.0 | 0.00 | 0.00 | 0.00 | 52 | 1030.0 |
| 20260902125306 | 26 | 180 | 17.7 | 0.0 | 0.00 | 0.00 | 0.00 | 52 | 1030.0 |
| 20260902125206 | 26 | 180 | 11.3 | 0.0 | 0.00 | 0.00 | 0.00 | 52 | 1030.0 |
| 20260902125107 | 26 | 157 | 4.8 | 0.0 | 0.00 | 0.00 | 0.00 | 52 | 1030.0 |
| 20260902125007 | 26 | 157 | 0.0 | 0.0 | 0.00 | 0.00 | 0.00 | 52 | 1030.0 |
| 20260902124906 | 26 | 157 | 4.8 | 0.0 | 0.00 | 0.00 | 0.00 | 52 | 1030.0 |
| 20260902124806 | 26 | 157 | 14.5 | 0.0 | 0.00 | 0.00 | 0.00 | 52 | 1030.0 |
| 20260902124706 | 26 | 157 | 4.8 | 0.0 | 0.00 | 0.00 | 0.00 | 52 | 1030.1 |
| 20260902124606 | 26 | 157 | 0.0 | 0.0 | 0.00 | 0.00 | 0.00 | 52 | 1030.1 |
| 20260902124506 | 26 | 157 | 11.3 | 0.0 | 0.00 | 0.00 | 0.00 | 53 | 1030.3 |
| 20260902124406 | 26 | 180 | 14.5 | 0.0 | 0.00 | 0.00 | 0.00 | 53 | 1030.1 |
| 20260902124306 | 26 | 180 | 12.9 | 0.0 | 0.00 | 0.00 | 0.00 | 53 | 1030.0 |
| 20260902124206 | 26 | 180 | 4.8 | 0.0 | 0.00 | 0.00 | 0.00 | 53 | 1030.0 |
| 20260902124106 | 26 | 180 | 4.8 | 0.0 | 0.00 | 0.00 | 0.00 | 53 | 1030.1 |
| 20260902124006 | 26 | 180 | 14.5 | 0.0 | 0.00 | 0.00 | 0.00 | 53 | 1030.0 |
| 20260902123906 | 26 | 157 | 4.8 | 0.0 | 0.00 | 0.00 | 0.00 | 53 | 1030.1 |
| 20260902123806 | 26 | 157 | 22.5 | 0.0 | 0.00 | 0.00 | 0.00 | 53 | 1030.0 |
| 20260902123706 | 26 | 157 | 17.7 | 0.0 | 0.00 | 0.00 | 0.00 | 54 | 1030.0 |
| 20260902123606 | 26 | 180 | 29.0 | 0.0 | 0.00 | 0.00 | 0.00 | 54 | 1030.0 |
| 20260902123506 | 26 | 180 | 0.0 | 0.0 | 0.00 | 0.00 | 0.00 | 54 | 1030.0 |
| 20260902123406 | 26 | 180 | 16.1 | 0.0 | 0.00 | 0.00 | 0.00 | 54 | 1030.0 |
| 20260902123306 | 26 | 180 | 0.0 | 0.0 | 0.00 | 0.00 | 0.00 | 54 | 1030.0 |
| 20260902123206 | 26 | 180 | 4.8 | 0.0 | 0.00 | 0.00 | 0.00 | 54 | 1030.0 |
| 20260902123106 | 25 | 180 | 3.2 | 0.0 | 0.00 | 0.00 | 0.00 | 55 | 1030.0 |
| 20260902123006 | 25 | 157 | 11.3 | 0.0 | 0.00 | 0.00 | 0.00 | 55 | 1030.0 |
| 20260902122906 | 25 | 180 | 17.7 | 0.0 | 0.00 | 0.00 | 0.00 | 55 | 1030.0 |
| 20260902122806 | 25 | 180 | 9.7 | 0.0 | 0.00 | 0.00 | 0.00 | 55 | 1030.0 |
| 20260902122706 | 25 | 202 | 9.7 | 0.0 | 0.00 | 0.00 | 0.00 | 55 | 1030.0 |
| 20260902122606 | 25 | 202 | 14.5 | 0.0 | 0.00 | 0.00 | 0.00 | 55 | 1030.0 |
| 20260902122506 | 25 | 202 | 8.0 | 0.0 | 0.00 | 0.00 | 0.00 | 55 | 1030.0 |
| 20260902122406 | 25 | 202 | 4.8 | 0.0 | 0.00 | 0.00 | 0.00 | 55 | 1030.0 |
| 20260902122306 | 25 | 202 | 12.9 | 0.0 | 0.00 | 0.00 | 0.00 | 55 | 1030.0 |
| 20260902122206 | 25 | 202 | 22.5 | 0.0 | 0.00 | 0.00 | 0.00 | 56 | 1030.0 |
| 20260902122106 | 25 | 157 | 0.0 | 0.0 | 0.00 | 0.00 | 0.00 | 56 | 1030.1 |
| 20260902122006 | 25 | 135 | 4.8 | 0.0 | 0.00 | 0.00 | 0.00 | 56 | 1030.0 |
| 20260902121906 | 25 | 135 | 4.8 | 0.0 | 0.00 | 0.00 | 0.00 | 56 | 1030.0 |
| 20260902121806 | 25 | 157 | 14.5 | 0.0 | 0.00 | 0.00 | 0.00 | 56 | 1030.0 |
| 20260902121706 | 25 | 180 | 9.7 | 0.0 | 0.00 | 0.00 | 0.00 | 56 | 1030.3 |
| 20260902121606 | 25 | 157 | 11.3 | 0.0 | 0.00 | 0.00 | 0.00 | 56 | 1030.3 |
| 20260902121506 | 25 | 157 | 3.2 | 0.0 | 0.00 | 0.00 | 0.00 | 57 | 1030.1 |
| 20260902121406 | 25 | 180 | 22.5 | 0.0 | 0.00 | 0.00 | 0.00 | 57 | 1030.0 |
| 20260902121306 | 25 | 180 | 0.0 | 0.0 | 0.00 | 0.00 | 0.00 | 57 | 1030.1 |
| 20260902121206 | 25 | 180 | 0.0 | 0.0 | 0.00 | 0.00 | 0.00 | 57 | 1030.0 |
| 20260902121106 | 25 | 180 | 22.5 | 0.0 | 0.00 | 0.00 | 0.00 | 57 | 1030.0 |
| 20260902121006 | 25 | 180 | 8.0 | 0.0 | 0.00 | 0.00 | 0.00 | 57 | 1030.0 |
| 20260902120906 | 25 | 180 | 19.3 | 0.0 | 0.00 | 0.00 | 0.00 | 57 | 1030.1 |
| 20260902120806 | 25 | 180 | 17.7 | 0.0 | 0.00 | 0.00 | 0.00 | 57 | 1030.1 |
| 20260902120706 | 25 | 157 | 6.4 | 0.0 | 0.00 | 0.00 | 0.00 | 57 | 1030.0 |
| 20260902120606 | 25 | 157 | 14.5 | 0.0 | 0.00 | 0.00 | 0.00 | 58 | 1030.1 |
| 20260902120506 | 25 | 180 | 0.0 | 0.0 | 0.00 | 0.00 | 0.00 | 58 | 1030.1 |
| 20260902120406 | 25 | 157 | 14.5 | 0.0 | 0.00 | 0.00 | 0.00 | 58 | 1030.1 |
| 20260902120306 | 25 | 157 | 9.7 | 0.0 | 0.00 | 0.00 | 0.00 | 58 | 1030.0 |
| 20260902120206 | 25 | 135 | 14.5 | 0.0 | 0.00 | 0.00 | 0.00 | 58 | 1030.0 |
| 20260902120106 | 25 | 135 | 8.0 | 0.0 | 0.00 | 0.00 | 0.00 | 58 | 1030.3 |
| 20260902120006 | 25 | 157 | 17.7 | 0.0 | 0.00 | 0.00 | 0.00 | 58 | 1030.1 |
| 20260902115906 | 25 | 157 | 14.5 | 0.0 | 0.00 | 0.00 | 0.00 | 58 | 1030.3 |
| 20260902115806 | 25 | 157 | 16.1 | 0.0 | 0.00 | 0.00 | 0.00 | 58 | 1030.3 |
| 20260902115706 | 24 | 180 | 8.0 | 0.0 | 0.00 | 0.00 | 0.00 | 58 | 1030.3 |
| 20260902115606 | 25 | 180 | 0.0 | 0.0 | 0.00 | 0.00 | 0.00 | 59 | 1030.3 |
| 20260902115506 | 24 | 157 | 22.5 | 0.0 | 0.00 | 0.00 | 0.00 | 59 | 1030.4 |
| 20260902115406 | 24 | 180 | 0.0 | 0.0 | 0.00 | 0.00 | 0.00 | 59 | 1030.4 |
| 20260902115308 | 24 | 180 | 0.0 | 0.0 | 0.00 | 0.00 | 0.00 | 59 | 1030.4 |
| 20260902115206 | 24 | 180 | 9.7 | 0.0 | 0.00 | 0.00 | 0.00 | 59 | 1030.3 |
| 20260902115106 | 24 | 180 | 12.9 | 0.0 | 0.00 | 0.00 | 0.00 | 59 | 1030.3 |
| 20260902115006 | 24 | 202 | 4.8 | 0.0 | 0.00 | 0.00 | 0.00 | 59 | 1030.0 |
| 20260902114906 | 24 | 202 | 0.0 | 0.0 | 0.00 | 0.00 | 0.00 | 59 | 1030.1 |
| 20260902114806 | 24 | 202 | 0.0 | 0.0 | 0.00 | 0.00 | 0.00 | 60 | 1030.3 |
| 20260902114706 | 24 | 202 | 22.5 | 0.0 | 0.00 | 0.00 | 0.00 | 60 | 1030.1 |
| 20260902114606 | 24 | 180 | 20.9 | 0.0 | 0.00 | 0.00 | 0.00 | 60 | 1030.3 |
| 20260902114506 | 24 | 202 | 17.7 | 0.0 | 0.00 | 0.00 | 0.00 | 59 | 1030.3 |
| 20260902114406 | 24 | 202 | 16.1 | 0.0 | 0.00 | 0.00 | 0.00 | 60 | 1030.3 |
| 20260902114306 | 24 | 157 | 12.9 | 0.0 | 0.00 | 0.00 | 0.00 | 60 | 1030.3 |
| 20260902114206 | 24 | 180 | 11.3 | 0.0 | 0.00 | 0.00 | 0.00 | 60 | 1030.3 |
| 20260902114106 | 24 | 180 | 22.5 | 0.0 | 0.00 | 0.00 | 0.00 | 60 | 1030.1 |
| 20260902114006 | 24 | 180 | 0.0 | 0.0 | 0.00 | 0.00 | 0.00 | 60 | 1030.3 |
| 20260902113906 | 23 | 180 | 0.0 | 0.0 | 0.00 | 0.00 | 0.00 | 60 | 1030.3 |
| 20260902113806 | 23 | 180 | 8.0 | 0.0 | 0.00 | 0.00 | 0.00 | 60 | 1030.4 |
| 20260902113706 | 23 | 180 | 0.0 | 0.0 | 0.00 | 0.00 | 0.00 | 60 | 1030.3 |
| 20260902113606 | 23 | 180 | 0.0 | 0.0 | 0.00 | 0.00 | 0.00 | 60 | 1030.3 |
| 20260902113506 | 23 | 180 | 0.0 | 0.0 | 0.00 | 0.00 | 0.00 | 60 | 1030.1 |
| 20260902113406 | 23 | 157 | 4.8 | 0.0 | 0.00 | 0.00 | 0.00 | 60 | 1030.4 |
| 20260902113306 | 23 | 157 | 4.8 | 0.0 | 0.00 | 0.00 | 0.00 | 60 | 1030.4 |
| 20260902113206 | 23 | 157 | 0.0 | 0.0 | 0.00 | 0.00 | 0.00 | 60 | 1030.3 |
| 20260902113106 | 23 | 157 | 0.0 | 0.0 | 0.00 | 0.00 | 0.00 | 61 | 1030.4 |
| 20260902113006 | 23 | 157 | 6.4 | 0.0 | 0.00 | 0.00 | 0.00 | 61 | 1030.4 |
| 20260902112906 | 23 | 157 | 8.0 | 0.0 | 0.00 | 0.00 | 0.00 | 61 | 1030.4 |
| 20260902112806 | 23 | 157 | 16.1 | 0.0 | 0.00 | 0.00 | 0.00 | 61 | 1030.4 |
| 20260902112706 | 23 | 157 | 0.0 | 0.0 | 0.00 | 0.00 | 0.00 | 61 | 1030.4 |
| 20260902112606 | 23 | 157 | 9.7 | 0.0 | 0.00 | 0.00 | 0.00 | 61 | 1030.4 |
| 20260902112506 | 23 | 157 | 4.8 | 0.0 | 0.00 | 0.00 | 0.00 | 61 | 1030.4 |
| 20260902112406 | 23 | 157 | 3.2 | 0.0 | 0.00 | 0.00 | 0.00 | 61 | 1030.4 |
| 20260902112306 | 23 | 157 | 0.0 | 0.0 | 0.00 | 0.00 | 0.00 | 61 | 1030.5 |
| 20260902112206 | 23 | 157 | 0.0 | 0.0 | 0.00 | 0.00 | 0.00 | 61 | 1030.5 |
| 20260902112106 | 23 | 157 | 0.0 | 0.0 | 0.00 | 0.00 | 0.00 | 61 | 1030.5 |
| 20260902112006 | 23 | 157 | 0.0 | 0.0 | 0.00 | 0.00 | 0.00 | 61 | 1030.5 |
| 20260902111906 | 23 | 157 | 0.0 | 0.0 | 0.00 | 0.00 | 0.00 | 61 | 1030.5 |
| 20260902111806 | 23 | 157 | 0.0 | 0.0 | 0.00 | 0.00 | 0.00 | 61 | 1030.5 |
| 20260902111706 | 23 | 157 | 9.7 | 0.0 | 0.00 | 0.00 | 0.00 | 61 | 1030.5 |
| 20260902111606 | 23 | 180 | 16.1 | 0.0 | 0.00 | 0.00 | 0.00 | 62 | 1030.5 |
| 20260902111506 | 23 | 202 | 0.0 | 0.0 | 0.00 | 0.00 | 0.00 | 62 | 1030.5 |
| 20260902111406 | 23 | 225 | 0.0 | 0.0 | 0.00 | 0.00 | 0.00 | 62 | 1030.5 |
| 20260902111306 | 23 | 225 | 0.0 | 0.0 | 0.00 | 0.00 | 0.00 | 62 | 1030.5 |
| 20260902111206 | 23 | 225 | 0.0 | 0.0 | 0.00 | 0.00 | 0.00 | 62 | 1030.5 |
| 20260902111106 | 23 | 225 | 0.0 | 0.0 | 0.00 | 0.00 | 0.00 | 62 | 1030.5 |
| 20260902111006 | 23 | 225 | 0.0 | 0.0 | 0.00 | 0.00 | 0.00 | 62 | 1030.5 |
| 20260902110906 | 23 | 225 | 0.0 | 0.0 | 0.00 | 0.00 | 0.00 | 62 | 1030.6 |
| 20260902110806 | 23 | 247 | 3.2 | 0.0 | 0.00 | 0.00 | 0.00 | 62 | 1030.8 |
| 20260902110706 | 23 | 247 | 0.0 | 0.0 | 0.00 | 0.00 | 0.00 | 62 | 1030.6 |
| 20260902110606 | 23 | 247 | 0.0 | 0.0 | 0.00 | 0.00 | 0.00 | 62 | 1030.6 |
| 20260902110506 | 23 | 247 | 0.0 | 0.0 | 0.00 | 0.00 | 0.00 | 62 | 1030.8 |
| 20260902110406 | 23 | 247 | 0.0 | 0.0 | 0.00 | 0.00 | 0.00 | 62 | 1030.6 |
| 20260902110306 | 22 | 247 | 0.0 | 0.0 | 0.00 | 0.00 | 0.00 | 62 | 1030.6 |
| 20260902110206 | 22 | 247 | 0.0 | 0.0 | 0.00 | 0.00 | 0.00 | 62 | 1030.8 |
| 20260902110106 | 22 | 247 | 0.0 | 0.0 | 0.00 | 0.00 | 0.00 | 62 | 1030.8 |
| 20260902110008 | 22 | 247 | 0.0 | 0.0 | 0.00 | 0.00 | 0.00 | 62 | 1030.6 |
| 20260902105906 | 22 | 247 | 0.0 | 0.0 | 0.00 | 0.00 | 0.00 | 62 | 1030.8 |
| 20260902105806 | 22 | 247 | 0.0 | 0.0 | 0.00 | 0.00 | 0.00 | 62 | 1030.8 |
| 20260902105706 | 22 | 247 | 0.0 | 0.0 | 0.00 | 0.00 | 0.00 | 63 | 1030.8 |
| 20260902105606 | 22 | 247 | 0.0 | 0.0 | 0.00 | 0.00 | 0.00 | 63 | 1030.9 |
| 20260902105506 | 22 | 247 | 0.0 | 0.0 | 0.00 | 0.00 | 0.00 | 63 | 1030.9 |
| 20260902105406 | 22 | 247 | 0.0 | 0.0 | 0.00 | 0.00 | 0.00 | 63 | 1030.9 |
| 20260902105306 | 22 | 247 | 6.4 | 0.0 | 0.00 | 0.00 | 0.00 | 63 | 1030.9 |
| 20260902105206 | 22 | 247 | 0.0 | 0.0 | 0.00 | 0.00 | 0.00 | 63 | 1030.9 |
| 20260902105106 | 22 | 247 | 0.0 | 0.0 | 0.00 | 0.00 | 0.00 | 63 | 1031.0 |
| 20260902105006 | 22 | 247 | 0.0 | 0.0 | 0.00 | 0.00 | 0.00 | 63 | 1031.0 |
| 20260902104906 | 22 | 247 | 0.0 | 0.0 | 0.00 | 0.00 | 0.00 | 63 | 1030.9 |
| 20260902104806 | 22 | 247 | 0.0 | 0.0 | 0.00 | 0.00 | 0.00 | 63 | 1031.0 |
| 20260902104706 | 22 | 247 | 0.0 | 0.0 | 0.00 | 0.00 | 0.00 | 63 | 1030.9 |
| 20260902104606 | 22 | 247 | 0.0 | 0.0 | 0.00 | 0.00 | 0.00 | 63 | 1030.9 |
| 20260902104506 | 22 | 247 | 0.0 | 0.0 | 0.00 | 0.00 | 0.00 | 63 | 1030.9 |
| 20260902104406 | 22 | 247 | 0.0 | 0.0 | 0.00 | 0.00 | 0.00 | 63 | 1030.9 |
| 20260902104306 | 22 | 247 | 0.0 | 0.0 | 0.00 | 0.00 | 0.00 | 63 | 1030.9 |
| 20260902104206 | 22 | 247 | 0.0 | 0.0 | 0.00 | 0.00 | 0.00 | 63 | 1031.0 |
| 20260902104106 | 22 | 247 | 0.0 | 0.0 | 0.00 | 0.00 | 0.00 | 63 | 1030.9 |
| 20260902104006 | 22 | 247 | 0.0 | 0.0 | 0.00 | 0.00 | 0.00 | 63 | 1030.9 |
| 20260902103906 | 22 | 247 | 0.0 | 0.0 | 0.00 | 0.00 | 0.00 | 63 | 1031.0 |
| 20260902103806 | 22 | 247 | 0.0 | 0.0 | 0.00 | 0.00 | 0.00 | 63 | 1031.0 |
| 20260902103706 | 22 | 247 | 0.0 | 0.0 | 0.00 | 0.00 | 0.00 | 63 | 1030.9 |
| 20260902103606 | 22 | 247 | 0.0 | 0.0 | 0.00 | 0.00 | 0.00 | 63 | 1030.9 |
| 20260902103506 | 22 | 247 | 0.0 | 0.0 | 0.00 | 0.00 | 0.00 | 63 | 1030.9 |
| 20260902103406 | 22 | 247 | 0.0 | 0.0 | 0.00 | 0.00 | 0.00 | 63 | 1031.0 |
| 20260902103306 | 22 | 247 | 0.0 | 0.0 | 0.00 | 0.00 | 0.00 | 63 | 1031.0 |
| 20260902103206 | 22 | 247 | 0.0 | 0.0 | 0.00 | 0.00 | 0.00 | 63 | 1030.9 |
| 20260902103106 | 22 | 247 | 0.0 | 0.0 | 0.00 | 0.00 | 0.00 | 63 | 1031.0 |
| 20260902103006 | 22 | 247 | 0.0 | 0.0 | 0.00 | 0.00 | 0.00 | 63 | 1030.9 |
| 20260902102906 | 22 | 247 | 0.0 | 0.0 | 0.00 | 0.00 | 0.00 | 63 | 1030.9 |
| 20260902102806 | 22 | 247 | 0.0 | 0.0 | 0.00 | 0.00 | 0.00 | 63 | 1031.0 |
| 20260902102706 | 22 | 247 | 0.0 | 0.0 | 0.00 | 0.00 | 0.00 | 63 | 1031.0 |
| 20260902102606 | 22 | 247 | 0.0 | 0.0 | 0.00 | 0.00 | 0.00 | 63 | 1031.0 |
| 20260902102506 | 22 | 247 | 0.0 | 0.0 | 0.00 | 0.00 | 0.00 | 63 | 1030.9 |
| 20260902102406 | 22 | 247 | 0.0 | 0.0 | 0.00 | 0.00 | 0.00 | 63 | 1031.0 |
| 20260902102308 | 22 | 247 | 0.0 | 0.0 | 0.00 | 0.00 | 0.00 | 63 | 1031.0 |
| 20260902102206 | 22 | 247 | 0.0 | 0.0 | 0.00 | 0.00 | 0.00 | 63 | 1031.0 |
| 20260902102106 | 22 | 247 | 0.0 | 0.0 | 0.00 | 0.00 | 0.00 | 63 | 1031.0 |
| 20260902102006 | 22 | 247 | 0.0 | 0.0 | 0.00 | 0.00 | 0.00 | 63 | 1031.1 |
| 20260902101906 | 22 | 247 | 0.0 | 0.0 | 0.00 | 0.00 | 0.00 | 63 | 1031.1 |
| 20260902101806 | 22 | 247 | 0.0 | 0.0 | 0.00 | 0.00 | 0.00 | 63 | 1031.0 |
| 20260902101706 | 22 | 247 | 0.0 | 0.0 | 0.00 | 0.00 | 0.00 | 63 | 1031.1 |
| 20260902101606 | 22 | 247 | 0.0 | 0.0 | 0.00 | 0.00 | 0.00 | 63 | 1031.0 |
| 20260902101506 | 21 | 247 | 0.0 | 0.0 | 0.00 | 0.00 | 0.00 | 64 | 1031.1 |
| 20260902101406 | 21 | 247 | 0.0 | 0.0 | 0.00 | 0.00 | 0.00 | 64 | 1031.1 |
| 20260902101306 | 21 | 247 | 0.0 | 0.0 | 0.00 | 0.00 | 0.00 | 64 | 1031.0 |
| 20260902101206 | 21 | 247 | 0.0 | 0.0 | 0.00 | 0.00 | 0.00 | 64 | 1031.0 |
| 20260902101106 | 21 | 247 | 0.0 | 0.0 | 0.00 | 0.00 | 0.00 | 64 | 1031.0 |
| 20260902101006 | 21 | 247 | 0.0 | 0.0 | 0.00 | 0.00 | 0.00 | 64 | 1031.0 |
| 20260902100906 | 21 | 247 | 0.0 | 0.0 | 0.00 | 0.00 | 0.00 | 64 | 1031.0 |
| 20260902100806 | 21 | 247 | 0.0 | 0.0 | 0.00 | 0.00 | 0.00 | 64 | 1031.1 |
| 20260902100706 | 21 | 247 | 0.0 | 0.0 | 0.00 | 0.00 | 0.00 | 64 | 1031.1 |
| 20260902100606 | 21 | 247 | 0.0 | 0.0 | 0.00 | 0.00 | 0.00 | 64 | 1031.1 |
| 20260902100506 | 21 | 247 | 0.0 | 0.0 | 0.00 | 0.00 | 0.00 | 64 | 1031.0 |
| 20260902100406 | 21 | 247 | 9.7 | 0.0 | 0.00 | 0.00 | 0.00 | 64 | 1031.1 |
| 20260902100306 | 21 | 247 | 0.0 | 0.0 | 0.00 | 0.00 | 0.00 | 64 | 1031.1 |
| 20260902100206 | 21 | 247 | 0.0 | 0.0 | 0.00 | 0.00 | 0.00 | 64 | 1031.1 |
| 20260902100106 | 21 | 247 | 0.0 | 0.0 | 0.00 | 0.00 | 0.00 | 64 | 1031.1 |
| 20260902100006 | 21 | 247 | 0.0 | 0.0 | 0.00 | 0.00 | 0.00 | 64 | 1031.1 |
| 20260902095906 | 21 | 247 | 0.0 | 0.0 | 0.00 | 0.00 | 0.00 | 64 | 1031.3 |
| 20260902095806 | 21 | 247 | 0.0 | 0.0 | 0.00 | 0.00 | 0.00 | 64 | 1031.1 |
| 20260902095706 | 21 | 247 | 0.0 | 0.0 | 0.00 | 0.00 | 0.00 | 64 | 1031.3 |
| 20260902095606 | 21 | 247 | 0.0 | 0.0 | 0.00 | 0.00 | 0.00 | 64 | 1031.3 |
| 20260902095506 | 21 | 247 | 0.0 | 0.0 | 0.00 | 0.00 | 0.00 | 64 | 1031.3 |
| 20260902095406 | 21 | 247 | 0.0 | 0.0 | 0.00 | 0.00 | 0.00 | 64 | 1031.3 |
| 20260902095307 | 21 | 247 | 0.0 | 0.0 | 0.00 | 0.00 | 0.00 | 64 | 1031.4 |
| 20260902095206 | 21 | 247 | 0.0 | 0.0 | 0.00 | 0.00 | 0.00 | 64 | 1031.4 |
| 20260902095106 | 21 | 247 | 0.0 | 0.0 | 0.00 | 0.00 | 0.00 | 64 | 1031.4 |
| 20260902095006 | 21 | 247 | 0.0 | 0.0 | 0.00 | 0.00 | 0.00 | 64 | 1031.4 |
| 20260902094906 | 21 | 247 | 0.0 | 0.0 | 0.00 | 0.00 | 0.00 | 64 | 1031.5 |
| 20260902094806 | 21 | 247 | 0.0 | 0.0 | 0.00 | 0.00 | 0.00 | 64 | 1031.5 |
| 20260902094706 | 21 | 247 | 0.0 | 0.0 | 0.00 | 0.00 | 0.00 | 64 | 1031.4 |
| 20260902094606 | 21 | 247 | 0.0 | 0.0 | 0.00 | 0.00 | 0.00 | 64 | 1031.5 |
| 20260902094506 | 21 | 247 | 0.0 | 0.0 | 0.00 | 0.00 | 0.00 | 64 | 1031.5 |
| 20260902094406 | 21 | 247 | 0.0 | 0.0 | 0.00 | 0.00 | 0.00 | 64 | 1031.5 |
| 20260902094306 | 21 | 247 | 0.0 | 0.0 | 0.00 | 0.00 | 0.00 | 64 | 1031.5 |
| 20260902094206 | 21 | 247 | 0.0 | 0.0 | 0.00 | 0.00 | 0.00 | 64 | 1031.5 |
| 20260902094106 | 21 | 247 | 0.0 | 0.0 | 0.00 | 0.00 | 0.00 | 64 | 1031.5 |
| 20260902094006 | 21 | 247 | 0.0 | 0.0 | 0.00 | 0.00 | 0.00 | 64 | 1031.4 |
| 20260902093906 | 21 | 247 | 0.0 | 0.0 | 0.00 | 0.00 | 0.00 | 64 | 1031.3 |
| 20260902093806 | 21 | 247 | 0.0 | 0.0 | 0.00 | 0.00 | 0.00 | 64 | 1031.5 |
| 20260902093706 | 21 | 247 | 0.0 | 0.0 | 0.00 | 0.00 | 0.00 | 64 | 1031.4 |
| 20260902093606 | 21 | 247 | 0.0 | 0.0 | 0.00 | 0.00 | 0.00 | 64 | 1031.5 |
| 20260902093506 | 21 | 247 | 0.0 | 0.0 | 0.00 | 0.00 | 0.00 | 64 | 1031.5 |
| 20260902093406 | 21 | 247 | 0.0 | 0.0 | 0.00 | 0.00 | 0.00 | 64 | 1031.5 |
| 20260902093306 | 21 | 247 | 0.0 | 0.0 | 0.00 | 0.00 | 0.00 | 65 | 1031.4 |
| 20260902093206 | 21 | 247 | 0.0 | 0.0 | 0.00 | 0.00 | 0.00 | 65 | 1031.5 |
| 20260902093106 | 21 | 247 | 0.0 | 0.0 | 0.00 | 0.00 | 0.00 | 65 | 1031.5 |
| 20260902093006 | 21 | 247 | 0.0 | 0.0 | 0.00 | 0.00 | 0.00 | 65 | 1031.5 |
| 20260902092906 | 21 | 247 | 0.0 | 0.0 | 0.00 | 0.00 | 0.00 | 65 | 1031.5 |
| 20260902092806 | 21 | 247 | 0.0 | 0.0 | 0.00 | 0.00 | 0.00 | 65 | 1031.5 |
| 20260902092706 | 21 | 247 | 0.0 | 0.0 | 0.00 | 0.00 | 0.00 | 65 | 1031.5 |
| 20260902092606 | 21 | 247 | 0.0 | 0.0 | 0.00 | 0.00 | 0.00 | 65 | 1031.5 |
| 20260902092506 | 21 | 247 | 0.0 | 0.0 | 0.00 | 0.00 | 0.00 | 65 | 1031.5 |
| 20260902092406 | 21 | 247 | 0.0 | 0.0 | 0.00 | 0.00 | 0.00 | 65 | 1031.5 |
| 20260902092306 | 21 | 247 | 0.0 | 0.0 | 0.00 | 0.00 | 0.00 | 65 | 1031.4 |
| 20260902092206 | 21 | 247 | 0.0 | 0.0 | 0.00 | 0.00 | 0.00 | 65 | 1031.4 |
| 20260902092106 | 21 | 247 | 0.0 | 0.0 | 0.00 | 0.00 | 0.00 | 65 | 1031.4 |
| 20260902092006 | 21 | 247 | 0.0 | 0.0 | 0.00 | 0.00 | 0.00 | 65 | 1031.4 |
| 20260902091906 | 21 | 247 | 0.0 | 0.0 | 0.00 | 0.00 | 0.00 | 65 | 1031.5 |
| 20260902091806 | 21 | 247 | 0.0 | 0.0 | 0.00 | 0.00 | 0.00 | 65 | 1031.5 |
| 20260902091706 | 21 | 247 | 0.0 | 0.0 | 0.00 | 0.00 | 0.00 | 65 | 1031.5 |
| 20260902091606 | 21 | 247 | 0.0 | 0.0 | 0.00 | 0.00 | 0.00 | 65 | 1031.5 |
| 20260902091506 | 21 | 247 | 0.0 | 0.0 | 0.00 | 0.00 | 0.00 | 65 | 1031.4 |
| 20260902091406 | 21 | 247 | 0.0 | 0.0 | 0.00 | 0.00 | 0.00 | 65 | 1031.4 |
| 20260902091306 | 21 | 247 | 0.0 | 0.0 | 0.00 | 0.00 | 0.00 | 65 | 1031.5 |
| 20260902091206 | 21 | 247 | 0.0 | 0.0 | 0.00 | 0.00 | 0.00 | 65 | 1031.5 |
| 20260902091106 | 21 | 247 | 0.0 | 0.0 | 0.00 | 0.00 | 0.00 | 65 | 1031.5 |
| 20260902091006 | 21 | 247 | 0.0 | 0.0 | 0.00 | 0.00 | 0.00 | 65 | 1031.5 |
| 20260902090906 | 21 | 247 | 0.0 | 0.0 | 0.00 | 0.00 | 0.00 | 65 | 1031.5 |
| 20260902090806 | 21 | 247 | 0.0 | 0.0 | 0.00 | 0.00 | 0.00 | 65 | 1031.5 |
| 20260902090706 | 21 | 247 | 0.0 | 0.0 | 0.00 | 0.00 | 0.00 | 65 | 1031.5 |
| 20260902090606 | 21 | 247 | 0.0 | 0.0 | 0.00 | 0.00 | 0.00 | 66 | 1031.5 |
| 20260902090506 | 21 | 247 | 0.0 | 0.0 | 0.00 | 0.00 | 0.00 | 66 | 1031.5 |
| 20260902090406 | 21 | 247 | 0.0 | 0.0 | 0.00 | 0.00 | 0.00 | 66 | 1031.5 |
| 20260902090306 | 21 | 247 | 0.0 | 0.0 | 0.00 | 0.00 | 0.00 | 66 | 1031.5 |
| 20260902090206 | 21 | 247 | 0.0 | 0.0 | 0.00 | 0.00 | 0.00 | 66 | 1031.4 |
| 20260902090106 | 21 | 247 | 0.0 | 0.0 | 0.00 | 0.00 | 0.00 | 66 | 1031.4 |
| 20260902090006 | 21 | 247 | 0.0 | 0.0 | 0.00 | 0.00 | 0.00 | 66 | 1031.5 |
| 20260902085906 | 20 | 247 | 0.0 | 0.0 | 0.00 | 0.00 | 0.00 | 66 | 1031.5 |
| 20260902085806 | 20 | 247 | 0.0 | 0.0 | 0.00 | 0.00 | 0.00 | 66 | 1031.5 |
| 20260902085706 | 20 | 247 | 0.0 | 0.0 | 0.00 | 0.00 | 0.00 | 66 | 1031.5 |
| 20260902085606 | 20 | 247 | 0.0 | 0.0 | 0.00 | 0.00 | 0.00 | 66 | 1031.5 |
| 20260902085506 | 20 | 247 | 0.0 | 0.0 | 0.00 | 0.00 | 0.00 | 66 | 1031.5 |
| 20260902085406 | 20 | 247 | 0.0 | 0.0 | 0.00 | 0.00 | 0.00 | 66 | 1031.5 |
| 20260902085306 | 20 | 247 | 0.0 | 0.0 | 0.00 | 0.00 | 0.00 | 66 | 1031.5 |
| 20260902085206 | 20 | 247 | 0.0 | 0.0 | 0.00 | 0.00 | 0.00 | 66 | 1031.5 |
| 20260902085106 | 20 | 247 | 0.0 | 0.0 | 0.00 | 0.00 | 0.00 | 66 | 1031.5 |
| 20260902085006 | 20 | 247 | 0.0 | 0.0 | 0.00 | 0.00 | 0.00 | 66 | 1031.5 |
| 20260902084906 | 20 | 247 | 0.0 | 0.0 | 0.00 | 0.00 | 0.00 | 66 | 1031.5 |
| 20260902084806 | 20 | 247 | 0.0 | 0.0 | 0.00 | 0.00 | 0.00 | 66 | 1031.5 |
| 20260902084706 | 20 | 247 | 0.0 | 0.0 | 0.00 | 0.00 | 0.00 | 66 | 1031.5 |
| 20260902084606 | 20 | 247 | 0.0 | 0.0 | 0.00 | 0.00 | 0.00 | 66 | 1031.5 |
| 20260902084506 | 20 | 247 | 0.0 | 0.0 | 0.00 | 0.00 | 0.00 | 67 | 1031.5 |
| 20260902084406 | 20 | 247 | 0.0 | 0.0 | 0.00 | 0.00 | 0.00 | 67 | 1031.5 |
| 20260902084306 | 20 | 247 | 0.0 | 0.0 | 0.00 | 0.00 | 0.00 | 67 | 1031.5 |
| 20260902084206 | 20 | 247 | 0.0 | 0.0 | 0.00 | 0.00 | 0.00 | 67 | 1031.5 |
| 20260902084106 | 20 | 247 | 0.0 | 0.0 | 0.00 | 0.00 | 0.00 | 67 | 1031.5 |
| 20260902084006 | 20 | 247 | 0.0 | 0.0 | 0.00 | 0.00 | 0.00 | 67 | 1031.5 |
| 20260902083906 | 20 | 247 | 0.0 | 0.0 | 0.00 | 0.00 | 0.00 | 67 | 1031.5 |
| 20260902083806 | 20 | 247 | 0.0 | 0.0 | 0.00 | 0.00 | 0.00 | 67 | 1031.5 |
| 20260902083706 | 20 | 247 | 0.0 | 0.0 | 0.00 | 0.00 | 0.00 | 67 | 1031.4 |
| 20260902083606 | 20 | 247 | 0.0 | 0.0 | 0.00 | 0.00 | 0.00 | 67 | 1031.4 |
| 20260902083506 | 20 | 247 | 0.0 | 0.0 | 0.00 | 0.00 | 0.00 | 67 | 1031.4 |
| 20260902083406 | 20 | 247 | 0.0 | 0.0 | 0.00 | 0.00 | 0.00 | 68 | 1031.4 |
| 20260902083306 | 20 | 247 | 0.0 | 0.0 | 0.00 | 0.00 | 0.00 | 68 | 1031.4 |
| 20260902083206 | 20 | 247 | 0.0 | 0.0 | 0.00 | 0.00 | 0.00 | 68 | 1031.1 |
| 20260902083106 | 20 | 247 | 0.0 | 0.0 | 0.00 | 0.00 | 0.00 | 68 | 1031.3 |
| 20260902083006 | 20 | 247 | 0.0 | 0.0 | 0.00 | 0.00 | 0.00 | 68 | 1031.3 |
| 20260902082906 | 20 | 247 | 0.0 | 0.0 | 0.00 | 0.00 | 0.00 | 68 | 1031.3 |
| 20260902082806 | 20 | 247 | 0.0 | 0.0 | 0.00 | 0.00 | 0.00 | 68 | 1031.3 |
| 20260902082706 | 20 | 247 | 0.0 | 0.0 | 0.00 | 0.00 | 0.00 | 68 | 1031.3 |
| 20260902082606 | 20 | 247 | 0.0 | 0.0 | 0.00 | 0.00 | 0.00 | 68 | 1031.3 |
| 20260902082506 | 20 | 247 | 0.0 | 0.0 | 0.00 | 0.00 | 0.00 | 69 | 1031.3 |
| 20260902082406 | 20 | 247 | 0.0 | 0.0 | 0.00 | 0.00 | 0.00 | 69 | 1031.1 |
| 20260902082309 | 20 | 247 | 0.0 | 0.0 | 0.00 | 0.00 | 0.00 | 69 | 1031.3 |
| 20260902082206 | 19 | 247 | 0.0 | 0.0 | 0.00 | 0.00 | 0.00 | 69 | 1031.1 |
| 20260902082106 | 19 | 247 | 0.0 | 0.0 | 0.00 | 0.00 | 0.00 | 69 | 1031.3 |
| 20260902082006 | 19 | 247 | 0.0 | 0.0 | 0.00 | 0.00 | 0.00 | 69 | 1031.3 |
| 20260902081906 | 19 | 247 | 0.0 | 0.0 | 0.00 | 0.00 | 0.00 | 69 | 1031.3 |
| 20260902081806 | 19 | 247 | 0.0 | 0.0 | 0.00 | 0.00 | 0.00 | 69 | 1031.1 |
| 20260902081706 | 18 | 247 | 0.0 | 0.0 | 0.00 | 0.00 | 0.00 | 69 | 1031.1 |
| 20260902081606 | 18 | 247 | 0.0 | 0.0 | 0.00 | 0.00 | 0.00 | 69 | 1031.1 |
| 20260902081506 | 18 | 247 | 0.0 | 0.0 | 0.00 | 0.00 | 0.00 | 69 | 1031.0 |
| 20260902081406 | 18 | 247 | 0.0 | 0.0 | 0.00 | 0.00 | 0.00 | 69 | 1031.0 |
| 20260902081306 | 18 | 247 | 0.0 | 0.0 | 0.00 | 0.00 | 0.00 | 69 | 1031.0 |
| 20260902081206 | 18 | 247 | 0.0 | 0.0 | 0.00 | 0.00 | 0.00 | 69 | 1031.0 |
| 20260902081106 | 18 | 247 | 0.0 | 0.0 | 0.00 | 0.00 | 0.00 | 69 | 1031.0 |
| 20260902081006 | 18 | 247 | 0.0 | 0.0 | 0.00 | 0.00 | 0.00 | 70 | 1031.0 |
| 20260902080906 | 18 | 247 | 0.0 | 0.0 | 0.00 | 0.00 | 0.00 | 70 | 1031.0 |
| 20260902080806 | 18 | 247 | 0.0 | 0.0 | 0.00 | 0.00 | 0.00 | 70 | 1031.0 |
| 20260902080706 | 18 | 247 | 0.0 | 0.0 | 0.00 | 0.00 | 0.00 | 70 | 1031.0 |
| 20260902080606 | 18 | 247 | 0.0 | 0.0 | 0.00 | 0.00 | 0.00 | 70 | 1031.0 |
| 20260902080506 | 18 | 247 | 0.0 | 0.0 | 0.00 | 0.00 | 0.00 | 70 | 1031.0 |
| 20260902080406 | 18 | 247 | 0.0 | 0.0 | 0.00 | 0.00 | 0.00 | 70 | 1031.0 |
| 20260902080306 | 18 | 247 | 0.0 | 0.0 | 0.00 | 0.00 | 0.00 | 70 | 1031.0 |
| 20260902080206 | 18 | 247 | 0.0 | 0.0 | 0.00 | 0.00 | 0.00 | 70 | 1031.0 |
| 20260902080106 | 17 | 247 | 0.0 | 0.0 | 0.00 | 0.00 | 0.00 | 70 | 1031.1 |
| 20260902080006 | 17 | 247 | 0.0 | 0.0 | 0.00 | 0.00 | 0.00 | 70 | 1031.1 |
| 20260902075906 | 17 | 247 | 0.0 | 0.0 | 0.00 | 0.00 | 0.00 | 70 | 1031.1 |
| 20260902075806 | 17 | 247 | 0.0 | 0.0 | 0.00 | 0.00 | 0.00 | 70 | 1031.3 |
| 20260902075706 | 17 | 247 | 0.0 | 0.0 | 0.00 | 0.00 | 0.00 | 70 | 1031.3 |
| 20260902075606 | 17 | 247 | 0.0 | 0.0 | 0.00 | 0.00 | 0.00 | 70 | 1031.3 |
| 20260902075506 | 17 | 247 | 0.0 | 0.0 | 0.00 | 0.00 | 0.00 | 70 | 1031.3 |
| 20260902075406 | 17 | 247 | 0.0 | 0.0 | 0.00 | 0.00 | 0.00 | 70 | 1031.3 |
| 20260902075306 | 17 | 247 | 0.0 | 0.0 | 0.00 | 0.00 | 0.00 | 70 | 1031.4 |
| 20260902075206 | 17 | 247 | 0.0 | 0.0 | 0.00 | 0.00 | 0.00 | 70 | 1031.3 |
| 20260902075106 | 17 | 247 | 0.0 | 0.0 | 0.00 | 0.00 | 0.00 | 70 | 1031.1 |
| 20260902075006 | 17 | 247 | 0.0 | 0.0 | 0.00 | 0.00 | 0.00 | 70 | 1031.1 |
| 20260902074906 | 17 | 247 | 0.0 | 0.0 | 0.00 | 0.00 | 0.00 | 70 | 1031.1 |
| 20260902074806 | 17 | 247 | 0.0 | 0.0 | 0.00 | 0.00 | 0.00 | 70 | 1031.1 |
| 20260902074706 | 17 | 247 | 0.0 | 0.0 | 0.00 | 0.00 | 0.00 | 70 | 1031.0 |
| 20260902074606 | 17 | 247 | 0.0 | 0.0 | 0.00 | 0.00 | 0.00 | 70 | 1031.1 |
| 20260902074506 | 17 | 247 | 0.0 | 0.0 | 0.00 | 0.00 | 0.00 | 70 | 1031.1 |
| 20260902074406 | 17 | 247 | 0.0 | 0.0 | 0.00 | 0.00 | 0.00 | 70 | 1031.1 |
| 20260902074306 | 17 | 247 | 0.0 | 0.0 | 0.00 | 0.00 | 0.00 | 71 | 1031.1 |
| 20260902074206 | 17 | 247 | 0.0 | 0.0 | 0.00 | 0.00 | 0.00 | 71 | 1031.0 |
| 20260902074106 | 17 | 247 | 0.0 | 0.0 | 0.00 | 0.00 | 0.00 | 71 | 1031.0 |
| 20260902074006 | 17 | 247 | 0.0 | 0.0 | 0.00 | 0.00 | 0.00 | 71 | 1031.0 |
| 20260902073906 | 17 | 247 | 0.0 | 0.0 | 0.00 | 0.00 | 0.00 | 71 | 1031.1 |
| 20260902073806 | 17 | 247 | 0.0 | 0.0 | 0.00 | 0.00 | 0.00 | 71 | 1031.1 |
| 20260902073706 | 17 | 247 | 0.0 | 0.0 | 0.00 | 0.00 | 0.00 | 71 | 1031.0 |
| 20260902073606 | 17 | 247 | 0.0 | 0.0 | 0.00 | 0.00 | 0.00 | 71 | 1031.0 |
| 20260902073506 | 17 | 247 | 0.0 | 0.0 | 0.00 | 0.00 | 0.00 | 71 | 1031.0 |
| 20260902073406 | 17 | 247 | 0.0 | 0.0 | 0.00 | 0.00 | 0.00 | 71 | 1031.0 |
| 20260902073306 | 17 | 247 | 0.0 | 0.0 | 0.00 | 0.00 | 0.00 | 71 | 1031.0 |
| 20260902073206 | 17 | 247 | 0.0 | 0.0 | 0.00 | 0.00 | 0.00 | 71 | 1031.0 |
| 20260902073106 | 17 | 247 | 0.0 | 0.0 | 0.00 | 0.00 | 0.00 | 71 | 1031.0 |
| 20260902073006 | 17 | 247 | 0.0 | 0.0 | 0.00 | 0.00 | 0.00 | 71 | 1031.0 |
| 20260902072906 | 17 | 247 | 0.0 | 0.0 | 0.00 | 0.00 | 0.00 | 71 | 1031.0 |
| 20260902072806 | 17 | 247 | 0.0 | 0.0 | 0.00 | 0.00 | 0.00 | 71 | 1031.0 |
| 20260902072706 | 17 | 247 | 0.0 | 0.0 | 0.00 | 0.00 | 0.00 | 71 | 1031.0 |
| 20260902072606 | 18 | 247 | 0.0 | 0.0 | 0.00 | 0.00 | 0.00 | 71 | 1031.1 |
| 20260902072506 | 17 | 247 | 0.0 | 0.0 | 0.00 | 0.00 | 0.00 | 71 | 1031.1 |
| 20260902072406 | 18 | 247 | 0.0 | 0.0 | 0.00 | 0.00 | 0.00 | 71 | 1031.0 |
| 20260902072309 | 18 | 247 | 0.0 | 0.0 | 0.00 | 0.00 | 0.00 | 71 | 1031.0 |
| 20260902072206 | 17 | 247 | 0.0 | 0.0 | 0.00 | 0.00 | 0.00 | 71 | 1031.0 |
| 20260902072106 | 18 | 247 | 0.0 | 0.0 | 0.00 | 0.00 | 0.00 | 71 | 1031.0 |
| 20260902072006 | 17 | 247 | 0.0 | 0.0 | 0.00 | 0.00 | 0.00 | 72 | 1031.0 |
| 20260902071906 | 17 | 247 | 0.0 | 0.0 | 0.00 | 0.00 | 0.00 | 72 | 1031.0 |
| 20260902071806 | 17 | 247 | 0.0 | 0.0 | 0.00 | 0.00 | 0.00 | 72 | 1031.0 |
| 20260902071706 | 17 | 247 | 0.0 | 0.0 | 0.00 | 0.00 | 0.00 | 72 | 1031.0 |
| 20260902071606 | 17 | 247 | 0.0 | 0.0 | 0.00 | 0.00 | 0.00 | 72 | 1031.0 |
| 20260902071506 | 17 | 247 | 0.0 | 0.0 | 0.00 | 0.00 | 0.00 | 72 | 1031.0 |
| 20260902071406 | 17 | 247 | 0.0 | 0.0 | 0.00 | 0.00 | 0.00 | 72 | 1031.0 |
| 20260902071306 | 17 | 247 | 0.0 | 0.0 | 0.00 | 0.00 | 0.00 | 72 | 1031.0 |
| 20260902071206 | 17 | 247 | 0.0 | 0.0 | 0.00 | 0.00 | 0.00 | 72 | 1031.0 |
| 20260902071106 | 17 | 247 | 0.0 | 0.0 | 0.00 | 0.00 | 0.00 | 72 | 1031.0 |
| 20260902071006 | 17 | 247 | 0.0 | 0.0 | 0.00 | 0.00 | 0.00 | 72 | 1031.0 |
| 20260902070906 | 17 | 247 | 0.0 | 0.0 | 0.00 | 0.00 | 0.00 | 72 | 1031.0 |
| 20260902070806 | 17 | 247 | 0.0 | 0.0 | 0.00 | 0.00 | 0.00 | 72 | 1031.0 |
| 20260902070706 | 17 | 247 | 0.0 | 0.0 | 0.00 | 0.00 | 0.00 | 72 | 1031.0 |
| 20260902070606 | 17 | 247 | 0.0 | 0.0 | 0.00 | 0.00 | 0.00 | 72 | 1031.0 |
| 20260902070506 | 17 | 247 | 0.0 | 0.0 | 0.00 | 0.00 | 0.00 | 72 | 1031.0 |
| 20260902070406 | 17 | 247 | 0.0 | 0.0 | 0.00 | 0.00 | 0.00 | 73 | 1031.0 |
| 20260902070306 | 17 | 247 | 0.0 | 0.0 | 0.00 | 0.00 | 0.00 | 73 | 1031.0 |
| 20260902070206 | 17 | 247 | 0.0 | 0.0 | 0.00 | 0.00 | 0.00 | 73 | 1031.0 |
| 20260902070106 | 17 | 247 | 0.0 | 0.0 | 0.00 | 0.00 | 0.00 | 73 | 1031.0 |
| 20260902070007 | 17 | 247 | 0.0 | 0.0 | 0.00 | 0.00 | 0.00 | 73 | 1031.0 |
| 20260902065906 | 17 | 247 | 0.0 | 0.0 | 0.00 | 0.00 | 0.00 | 73 | 1031.0 |
| 20260902065806 | 17 | 247 | 0.0 | 0.0 | 0.00 | 0.00 | 0.00 | 73 | 1031.0 |
| 20260902065706 | 17 | 247 | 0.0 | 0.0 | 0.00 | 0.00 | 0.00 | 73 | 1031.0 |
| 20260902065606 | 17 | 247 | 0.0 | 0.0 | 0.00 | 0.00 | 0.00 | 73 | 1031.0 |
| 20260902065506 | 17 | 247 | 0.0 | 0.0 | 0.00 | 0.00 | 0.00 | 73 | 1031.0 |
| 20260902065406 | 17 | 247 | 0.0 | 0.0 | 0.00 | 0.00 | 0.00 | 73 | 1031.0 |
| 20260902065307 | 17 | 247 | 0.0 | 0.0 | 0.00 | 0.00 | 0.00 | 73 | 1031.0 |
| 20260902065206 | 17 | 247 | 0.0 | 0.0 | 0.00 | 0.00 | 0.00 | 73 | 1031.0 |
| 20260902065106 | 17 | 247 | 0.0 | 0.0 | 0.00 | 0.00 | 0.00 | 73 | 1031.0 |
| 20260902065006 | 17 | 247 | 0.0 | 0.0 | 0.00 | 0.00 | 0.00 | 74 | 1031.1 |
| 20260902064906 | 17 | 247 | 0.0 | 0.0 | 0.00 | 0.00 | 0.00 | 74 | 1031.1 |
| 20260902064806 | 17 | 247 | 0.0 | 0.0 | 0.00 | 0.00 | 0.00 | 74 | 1031.0 |
| 20260902064706 | 17 | 247 | 0.0 | 0.0 | 0.00 | 0.00 | 0.00 | 74 | 1031.1 |
| 20260902064606 | 16 | 247 | 0.0 | 0.0 | 0.00 | 0.00 | 0.00 | 74 | 1031.1 |
| 20260902064506 | 16 | 247 | 0.0 | 0.0 | 0.00 | 0.00 | 0.00 | 74 | 1031.0 |
| 20260902064406 | 16 | 247 | 0.0 | 0.0 | 0.00 | 0.00 | 0.00 | 74 | 1031.0 |
| 20260902064306 | 16 | 247 | 0.0 | 0.0 | 0.00 | 0.00 | 0.00 | 75 | 1031.1 |
| 20260902064206 | 16 | 247 | 0.0 | 0.0 | 0.00 | 0.00 | 0.00 | 75 | 1031.0 |
| 20260902064106 | 16 | 247 | 0.0 | 0.0 | 0.00 | 0.00 | 0.00 | 75 | 1031.0 |
| 20260902064006 | 16 | 247 | 0.0 | 0.0 | 0.00 | 0.00 | 0.00 | 75 | 1031.0 |
| 20260902063906 | 16 | 247 | 0.0 | 0.0 | 0.00 | 0.00 | 0.00 | 75 | 1031.0 |
| 20260902063806 | 16 | 247 | 0.0 | 0.0 | 0.00 | 0.00 | 0.00 | 75 | 1031.0 |
| 20260902063706 | 16 | 247 | 0.0 | 0.0 | 0.00 | 0.00 | 0.00 | 75 | 1031.0 |
| 20260902063606 | 16 | 247 | 0.0 | 0.0 | 0.00 | 0.00 | 0.00 | 75 | 1031.1 |
| 20260902063506 | 16 | 247 | 0.0 | 0.0 | 0.00 | 0.00 | 0.00 | 75 | 1031.1 |
| 20260902063406 | 16 | 247 | 0.0 | 0.0 | 0.00 | 0.00 | 0.00 | 75 | 1031.1 |
| 20260902063306 | 16 | 247 | 0.0 | 0.0 | 0.00 | 0.00 | 0.00 | 75 | 1031.1 |
| 20260902063206 | 16 | 247 | 0.0 | 0.0 | 0.00 | 0.00 | 0.00 | 75 | 1031.1 |
| 20260902063106 | 16 | 247 | 0.0 | 0.0 | 0.00 | 0.00 | 0.00 | 75 | 1031.1 |
| 20260902063006 | 15 | 247 | 0.0 | 0.0 | 0.00 | 0.00 | 0.00 | 75 | 1031.1 |
| 20260902062906 | 15 | 247 | 0.0 | 0.0 | 0.00 | 0.00 | 0.00 | 75 | 1031.1 |
| 20260902062806 | 15 | 247 | 0.0 | 0.0 | 0.00 | 0.00 | 0.00 | 75 | 1031.1 |
| 20260902062706 | 15 | 247 | 0.0 | 0.0 | 0.00 | 0.00 | 0.00 | 75 | 1031.1 |
| 20260902062606 | 15 | 247 | 0.0 | 0.0 | 0.00 | 0.00 | 0.00 | 75 | 1031.0 |
| 20260902062506 | 15 | 247 | 0.0 | 0.0 | 0.00 | 0.00 | 0.00 | 76 | 1031.1 |
| 20260902062406 | 15 | 247 | 0.0 | 0.0 | 0.00 | 0.00 | 0.00 | 76 | 1031.1 |
| 20260902062306 | 15 | 247 | 0.0 | 0.0 | 0.00 | 0.00 | 0.00 | 76 | 1031.0 |
| 20260902062206 | 15 | 247 | 0.0 | 0.0 | 0.00 | 0.00 | 0.00 | 76 | 1031.0 |
| 20260902062106 | 15 | 247 | 0.0 | 0.0 | 0.00 | 0.00 | 0.00 | 75 | 1031.0 |
| 20260902062006 | 15 | 247 | 0.0 | 0.0 | 0.00 | 0.00 | 0.00 | 75 | 1031.0 |
| 20260902061906 | 15 | 247 | 0.0 | 0.0 | 0.00 | 0.00 | 0.00 | 75 | 1031.0 |
| 20260902061806 | 15 | 247 | 0.0 | 0.0 | 0.00 | 0.00 | 0.00 | 75 | 1031.0 |
| 20260902061706 | 14 | 247 | 0.0 | 0.0 | 0.00 | 0.00 | 0.00 | 75 | 1031.0 |
| 20260902061606 | 14 | 247 | 0.0 | 0.0 | 0.00 | 0.00 | 0.00 | 75 | 1031.0 |
| 20260902061506 | 14 | 247 | 0.0 | 0.0 | 0.00 | 0.00 | 0.00 | 75 | 1031.0 |
| 20260902061406 | 14 | 247 | 0.0 | 0.0 | 0.00 | 0.00 | 0.00 | 75 | 1031.0 |
| 20260902061306 | 14 | 247 | 0.0 | 0.0 | 0.00 | 0.00 | 0.00 | 75 | 1031.0 |
| 20260902061206 | 13 | 247 | 0.0 | 0.0 | 0.00 | 0.00 | 0.00 | 75 | 1031.0 |
| 20260902061106 | 13 | 247 | 0.0 | 0.0 | 0.00 | 0.00 | 0.00 | 76 | 1031.0 |
| 20260902061006 | 13 | 247 | 0.0 | 0.0 | 0.00 | 0.00 | 0.00 | 76 | 1031.0 |
| 20260902060906 | 13 | 247 | 0.0 | 0.0 | 0.00 | 0.00 | 0.00 | 76 | 1031.0 |
| 20260902060806 | 13 | 247 | 0.0 | 0.0 | 0.00 | 0.00 | 0.00 | 76 | 1031.1 |
| 20260902060706 | 13 | 247 | 0.0 | 0.0 | 0.00 | 0.00 | 0.00 | 76 | 1031.1 |
| 20260902060606 | 13 | 247 | 0.0 | 0.0 | 0.00 | 0.00 | 0.00 | 76 | 1031.1 |
| 20260902060506 | 13 | 247 | 0.0 | 0.0 | 0.00 | 0.00 | 0.00 | 76 | 1031.1 |
| 20260902060406 | 13 | 247 | 0.0 | 0.0 | 0.00 | 0.00 | 0.00 | 76 | 1031.0 |
| 20260902060306 | 13 | 247 | 0.0 | 0.0 | 0.00 | 0.00 | 0.00 | 76 | 1031.1 |
| 20260902060206 | 13 | 247 | 0.0 | 0.0 | 0.00 | 0.00 | 0.00 | 76 | 1031.1 |
| 20260902060106 | 13 | 247 | 0.0 | 0.0 | 0.00 | 0.00 | 0.00 | 76 | 1031.0 |
| 20260902060006 | 13 | 247 | 0.0 | 0.0 | 0.00 | 0.00 | 0.00 | 76 | 1031.0 |
| 20260902055906 | 13 | 247 | 0.0 | 0.0 | 0.00 | 0.00 | 0.00 | 76 | 1031.1 |
| 20260902055806 | 13 | 247 | 0.0 | 0.0 | 0.00 | 0.00 | 0.00 | 76 | 1031.0 |
| 20260902055706 | 13 | 247 | 0.0 | 0.0 | 0.00 | 0.00 | 0.00 | 76 | 1031.0 |
| 20260902055606 | 13 | 247 | 0.0 | 0.0 | 0.00 | 0.00 | 0.00 | 75 | 1031.1 |
| 20260902055506 | 13 | 247 | 0.0 | 0.0 | 0.00 | 0.00 | 0.00 | 75 | 1031.1 |
| 20260902055406 | 12 | 247 | 0.0 | 0.0 | 0.00 | 0.00 | 0.00 | 76 | 1031.1 |
| 20260902055307 | 12 | 247 | 0.0 | 0.0 | 0.00 | 0.00 | 0.00 | 76 | 1031.1 |
| 20260902055206 | 12 | 247 | 0.0 | 0.0 | 0.00 | 0.00 | 0.00 | 76 | 1031.0 |
| 20260902055106 | 12 | 247 | 0.0 | 0.0 | 0.00 | 0.00 | 0.00 | 76 | 1031.0 |
| 20260902055006 | 12 | 247 | 0.0 | 0.0 | 0.00 | 0.00 | 0.00 | 76 | 1031.0 |
| 20260902054906 | 12 | 247 | 0.0 | 0.0 | 0.00 | 0.00 | 0.00 | 76 | 1031.0 |
| 20260902054806 | 12 | 247 | 0.0 | 0.0 | 0.00 | 0.00 | 0.00 | 76 | 1031.0 |
| 20260902054706 | 12 | 247 | 0.0 | 0.0 | 0.00 | 0.00 | 0.00 | 76 | 1031.0 |
| 20260902054606 | 13 | 247 | 0.0 | 0.0 | 0.00 | 0.00 | 0.00 | 76 | 1031.0 |
| 20260902054506 | 13 | 247 | 0.0 | 0.0 | 0.00 | 0.00 | 0.00 | 76 | 1031.0 |
| 20260902054406 | 13 | 247 | 0.0 | 0.0 | 0.00 | 0.00 | 0.00 | 76 | 1031.0 |
| 20260902054306 | 13 | 247 | 0.0 | 0.0 | 0.00 | 0.00 | 0.00 | 76 | 1031.0 |
| 20260902054206 | 13 | 247 | 0.0 | 0.0 | 0.00 | 0.00 | 0.00 | 76 | 1031.0 |
| 20260902054106 | 12 | 247 | 0.0 | 0.0 | 0.00 | 0.00 | 0.00 | 76 | 1030.9 |
| 20260902054006 | 12 | 247 | 0.0 | 0.0 | 0.00 | 0.00 | 0.00 | 76 | 1031.0 |
| 20260902053906 | 12 | 247 | 0.0 | 0.0 | 0.00 | 0.00 | 0.00 | 76 | 1030.9 |
| 20260902053806 | 12 | 247 | 0.0 | 0.0 | 0.00 | 0.00 | 0.00 | 76 | 1030.9 |
| 20260902053706 | 12 | 247 | 0.0 | 0.0 | 0.00 | 0.00 | 0.00 | 76 | 1030.9 |
| 20260902053606 | 12 | 247 | 0.0 | 0.0 | 0.00 | 0.00 | 0.00 | 76 | 1030.9 |
| 20260902053506 | 12 | 247 | 0.0 | 0.0 | 0.00 | 0.00 | 0.00 | 76 | 1031.0 |
| 20260902053406 | 12 | 247 | 0.0 | 0.0 | 0.00 | 0.00 | 0.00 | 76 | 1030.8 |
| 20260902053306 | 12 | 247 | 0.0 | 0.0 | 0.00 | 0.00 | 0.00 | 76 | 1030.9 |
| 20260902053206 | 12 | 247 | 0.0 | 0.0 | 0.00 | 0.00 | 0.00 | 76 | 1030.9 |
| 20260902053106 | 12 | 247 | 0.0 | 0.0 | 0.00 | 0.00 | 0.00 | 76 | 1030.9 |
| 20260902053006 | 12 | 247 | 0.0 | 0.0 | 0.00 | 0.00 | 0.00 | 76 | 1030.8 |
| 20260902052906 | 12 | 247 | 0.0 | 0.0 | 0.00 | 0.00 | 0.00 | 76 | 1030.9 |
| 20260902052806 | 11 | 247 | 0.0 | 0.0 | 0.00 | 0.00 | 0.00 | 76 | 1030.8 |
| 20260902052706 | 11 | 247 | 0.0 | 0.0 | 0.00 | 0.00 | 0.00 | 76 | 1030.8 |
| 20260902052606 | 11 | 247 | 0.0 | 0.0 | 0.00 | 0.00 | 0.00 | 76 | 1030.8 |
| 20260902052506 | 11 | 247 | 0.0 | 0.0 | 0.00 | 0.00 | 0.00 | 76 | 1030.8 |
| 20260902052406 | 11 | 247 | 0.0 | 0.0 | 0.00 | 0.00 | 0.00 | 76 | 1030.9 |
| 20260902052307 | 11 | 247 | 0.0 | 0.0 | 0.00 | 0.00 | 0.00 | 76 | 1030.9 |
| 20260902052206 | 11 | 247 | 0.0 | 0.0 | 0.00 | 0.00 | 0.00 | 76 | 1030.9 |
| 20260902052106 | 11 | 247 | 0.0 | 0.0 | 0.00 | 0.00 | 0.00 | 76 | 1030.8 |
| 20260902052006 | 11 | 247 | 0.0 | 0.0 | 0.00 | 0.00 | 0.00 | 76 | 1030.8 |
| 20260902051906 | 11 | 247 | 0.0 | 0.0 | 0.00 | 0.00 | 0.00 | 76 | 1030.8 |
| 20260902051806 | 11 | 247 | 0.0 | 0.0 | 0.00 | 0.00 | 0.00 | 76 | 1030.8 |
| 20260902051706 | 11 | 247 | 0.0 | 0.0 | 0.00 | 0.00 | 0.00 | 76 | 1030.9 |
| 20260902051606 | 11 | 247 | 0.0 | 0.0 | 0.00 | 0.00 | 0.00 | 76 | 1030.9 |
| 20260902051506 | 10 | 247 | 0.0 | 0.0 | 0.00 | 0.00 | 0.00 | 76 | 1030.8 |
| 20260902051406 | 10 | 247 | 0.0 | 0.0 | 0.00 | 0.00 | 0.00 | 76 | 1030.9 |
| 20260902051306 | 10 | 247 | 0.0 | 0.0 | 0.00 | 0.00 | 0.00 | 76 | 1030.9 |
| 20260902051206 | 10 | 247 | 0.0 | 0.0 | 0.00 | 0.00 | 0.00 | 76 | 1030.8 |
| 20260902051106 | 10 | 247 | 0.0 | 0.0 | 0.00 | 0.00 | 0.00 | 76 | 1030.8 |
| 20260902051006 | 10 | 247 | 0.0 | 0.0 | 0.00 | 0.00 | 0.00 | 76 | 1030.9 |
| 20260902050906 | 10 | 247 | 0.0 | 0.0 | 0.00 | 0.00 | 0.00 | 76 | 1030.8 |
| 20260902050806 | 10 | 247 | 0.0 | 0.0 | 0.00 | 0.00 | 0.00 | 76 | 1030.8 |
| 20260902050706 | 10 | 247 | 0.0 | 0.0 | 0.00 | 0.00 | 0.00 | 76 | 1030.6 |
| 20260902050606 | 10 | 247 | 0.0 | 0.0 | 0.00 | 0.00 | 0.00 | 76 | 1030.6 |
| 20260902050506 | 10 | 247 | 0.0 | 0.0 | 0.00 | 0.00 | 0.00 | 76 | 1030.8 |
| 20260902050406 | 10 | 247 | 0.0 | 0.0 | 0.00 | 0.00 | 0.00 | 76 | 1030.8 |
| 20260902050306 | 10 | 247 | 0.0 | 0.0 | 0.00 | 0.00 | 0.00 | 76 | 1030.8 |
| 20260902050206 | 10 | 247 | 0.0 | 0.0 | 0.00 | 0.00 | 0.00 | 76 | 1030.8 |
| 20260902050106 | 10 | 247 | 0.0 | 0.0 | 0.00 | 0.00 | 0.00 | 76 | 1030.8 |
| 20260902050008 | 10 | 247 | 0.0 | 0.0 | 0.00 | 0.00 | 0.00 | 76 | 1030.8 |
| 20260902045906 | 10 | 247 | 0.0 | 0.0 | 0.00 | 0.00 | 0.00 | 76 | 1030.8 |
| 20260902045806 | 10 | 247 | 0.0 | 0.0 | 0.00 | 0.00 | 0.00 | 76 | 1030.8 |
| 20260902045706 | 10 | 247 | 0.0 | 0.0 | 0.00 | 0.00 | 0.00 | 76 | 1030.8 |
| 20260902045606 | 10 | 247 | 0.0 | 0.0 | 0.00 | 0.00 | 0.00 | 76 | 1030.8 |
| 20260902045506 | 10 | 247 | 0.0 | 0.0 | 0.00 | 0.00 | 0.00 | 76 | 1030.8 |
| 20260902045406 | 10 | 247 | 0.0 | 0.0 | 0.00 | 0.00 | 0.00 | 76 | 1030.8 |
| 20260902045306 | 10 | 247 | 0.0 | 0.0 | 0.00 | 0.00 | 0.00 | 76 | 1030.8 |
| 20260902045206 | 10 | 247 | 0.0 | 0.0 | 0.00 | 0.00 | 0.00 | 76 | 1030.8 |
| 20260902045106 | 10 | 247 | 0.0 | 0.0 | 0.00 | 0.00 | 0.00 | 76 | 1030.8 |
| 20260902045006 | 10 | 247 | 0.0 | 0.0 | 0.00 | 0.00 | 0.00 | 76 | 1030.8 |
| 20260902044906 | 10 | 247 | 0.0 | 0.0 | 0.00 | 0.00 | 0.00 | 76 | 1030.9 |
| 20260902044806 | 10 | 247 | 0.0 | 0.0 | 0.00 | 0.00 | 0.00 | 76 | 1030.6 |
| 20260902044706 | 10 | 247 | 0.0 | 0.0 | 0.00 | 0.00 | 0.00 | 76 | 1030.6 |
| 20260902044606 | 10 | 247 | 0.0 | 0.0 | 0.00 | 0.00 | 0.00 | 76 | 1030.6 |
| 20260902044506 | 9 | 247 | 0.0 | 0.0 | 0.00 | 0.00 | 0.00 | 76 | 1030.8 |
| 20260902044406 | 9 | 247 | 0.0 | 0.0 | 0.00 | 0.00 | 0.00 | 76 | 1030.8 |
| 20260902044306 | 9 | 247 | 0.0 | 0.0 | 0.00 | 0.00 | 0.00 | 76 | 1030.6 |
| 20260902044206 | 9 | 247 | 0.0 | 0.0 | 0.00 | 0.00 | 0.00 | 76 | 1030.8 |
| 20260902044106 | 9 | 247 | 0.0 | 0.0 | 0.00 | 0.00 | 0.00 | 76 | 1030.8 |
| 20260902044006 | 9 | 247 | 0.0 | 0.0 | 0.00 | 0.00 | 0.00 | 76 | 1030.8 |
| 20260902043906 | 9 | 247 | 0.0 | 0.0 | 0.00 | 0.00 | 0.00 | 76 | 1030.9 |
| 20260902043806 | 9 | 247 | 0.0 | 0.0 | 0.00 | 0.00 | 0.00 | 76 | 1030.8 |
| 20260902043706 | 9 | 247 | 0.0 | 0.0 | 0.00 | 0.00 | 0.00 | 76 | 1030.8 |
| 20260902043606 | 9 | 247 | 0.0 | 0.0 | 0.00 | 0.00 | 0.00 | 76 | 1030.8 |
| 20260902043506 | 9 | 247 | 0.0 | 0.0 | 0.00 | 0.00 | 0.00 | 76 | 1030.8 |
| 20260902043406 | 9 | 247 | 0.0 | 0.0 | 0.00 | 0.00 | 0.00 | 76 | 1030.8 |
| 20260902043306 | 9 | 247 | 0.0 | 0.0 | 0.00 | 0.00 | 0.00 | 76 | 1030.8 |
| 20260902043206 | 9 | 247 | 0.0 | 0.0 | 0.00 | 0.00 | 0.00 | 76 | 1030.6 |
| 20260902043106 | 9 | 247 | 0.0 | 0.0 | 0.00 | 0.00 | 0.00 | 76 | 1030.6 |
| 20260902043006 | 9 | 247 | 0.0 | 0.0 | 0.00 | 0.00 | 0.00 | 76 | 1030.8 |
| 20260902042906 | 9 | 247 | 0.0 | 0.0 | 0.00 | 0.00 | 0.00 | 76 | 1030.9 |
| 20260902042806 | 9 | 247 | 0.0 | 0.0 | 0.00 | 0.00 | 0.00 | 76 | 1030.8 |
| 20260902042706 | 9 | 247 | 0.0 | 0.0 | 0.00 | 0.00 | 0.00 | 76 | 1030.6 |
| 20260902042606 | 9 | 247 | 0.0 | 0.0 | 0.00 | 0.00 | 0.00 | 76 | 1030.8 |
| 20260902042506 | 9 | 247 | 0.0 | 0.0 | 0.00 | 0.00 | 0.00 | 76 | 1030.6 |
| 20260902042406 | 9 | 247 | 0.0 | 0.0 | 0.00 | 0.00 | 0.00 | 76 | 1030.5 |
| 20260902042309 | 9 | 247 | 0.0 | 0.0 | 0.00 | 0.00 | 0.00 | 76 | 1030.6 |
| 20260902042206 | 9 | 247 | 0.0 | 0.0 | 0.00 | 0.00 | 0.00 | 76 | 1030.6 |
| 20260902042106 | 9 | 247 | 0.0 | 0.0 | 0.00 | 0.00 | 0.00 | 76 | 1030.5 |
| 20260902042006 | 9 | 247 | 0.0 | 0.0 | 0.00 | 0.00 | 0.00 | 76 | 1030.6 |
| 20260902041906 | 9 | 247 | 0.0 | 0.0 | 0.00 | 0.00 | 0.00 | 76 | 1030.6 |
| 20260902041806 | 9 | 247 | 0.0 | 0.0 | 0.00 | 0.00 | 0.00 | 76 | 1030.6 |
| 20260902041706 | 9 | 247 | 0.0 | 0.0 | 0.00 | 0.00 | 0.00 | 76 | 1030.6 |
| 20260902041606 | 9 | 247 | 0.0 | 0.0 | 0.00 | 0.00 | 0.00 | 76 | 1030.6 |
| 20260902041506 | 10 | 247 | 0.0 | 0.0 | 0.00 | 0.00 | 0.00 | 76 | 1030.8 |
| 20260902041406 | 9 | 247 | 0.0 | 0.0 | 0.00 | 0.00 | 0.00 | 76 | 1030.6 |
| 20260902041306 | 9 | 247 | 0.0 | 0.0 | 0.00 | 0.00 | 0.00 | 76 | 1030.6 |
| 20260902041206 | 9 | 247 | 0.0 | 0.0 | 0.00 | 0.00 | 0.00 | 76 | 1030.5 |
| 20260902041106 | 9 | 247 | 0.0 | 0.0 | 0.00 | 0.00 | 0.00 | 76 | 1030.5 |
| 20260902041006 | 9 | 247 | 0.0 | 0.0 | 0.00 | 0.00 | 0.00 | 76 | 1030.5 |
| 20260902040906 | 9 | 247 | 0.0 | 0.0 | 0.00 | 0.00 | 0.00 | 76 | 1030.5 |
| 20260902040806 | 9 | 247 | 0.0 | 0.0 | 0.00 | 0.00 | 0.00 | 76 | 1030.5 |
| 20260902040706 | 9 | 247 | 0.0 | 0.0 | 0.00 | 0.00 | 0.00 | 76 | 1030.5 |
| 20260902040606 | 9 | 247 | 0.0 | 0.0 | 0.00 | 0.00 | 0.00 | 76 | 1030.5 |
| 20260902040506 | 9 | 247 | 0.0 | 0.0 | 0.00 | 0.00 | 0.00 | 76 | 1030.5 |
| 20260902040406 | 9 | 247 | 0.0 | 0.0 | 0.00 | 0.00 | 0.00 | 76 | 1030.5 |
| 20260902040306 | 9 | 247 | 0.0 | 0.0 | 0.00 | 0.00 | 0.00 | 76 | 1030.5 |
| 20260902040206 | 9 | 247 | 0.0 | 0.0 | 0.00 | 0.00 | 0.00 | 76 | 1030.5 |
| 20260902040106 | 9 | 247 | 0.0 | 0.0 | 0.00 | 0.00 | 0.00 | 75 | 1030.6 |
| 20260902040006 | 10 | 247 | 0.0 | 0.0 | 0.00 | 0.00 | 0.00 | 75 | 1030.5 |
| 20260902035906 | 10 | 247 | 0.0 | 0.0 | 0.00 | 0.00 | 0.00 | 75 | 1030.6 |
| 20260902035806 | 10 | 247 | 0.0 | 0.0 | 0.00 | 0.00 | 0.00 | 75 | 1030.5 |
| 20260902035706 | 10 | 247 | 0.0 | 0.0 | 0.00 | 0.00 | 0.00 | 75 | 1030.6 |
| 20260902035606 | 10 | 247 | 0.0 | 0.0 | 0.00 | 0.00 | 0.00 | 75 | 1030.8 |
| 20260902035506 | 10 | 247 | 0.0 | 0.0 | 0.00 | 0.00 | 0.00 | 75 | 1030.6 |
| 20260902035406 | 10 | 247 | 0.0 | 0.0 | 0.00 | 0.00 | 0.00 | 75 | 1030.8 |
| 20260902035306 | 10 | 247 | 0.0 | 0.0 | 0.00 | 0.00 | 0.00 | 75 | 1030.8 |
| 20260902035206 | 10 | 247 | 0.0 | 0.0 | 0.00 | 0.00 | 0.00 | 75 | 1030.8 |
| 20260902035106 | 10 | 247 | 0.0 | 0.0 | 0.00 | 0.00 | 0.00 | 75 | 1030.8 |
| 20260902035006 | 10 | 247 | 0.0 | 0.0 | 0.00 | 0.00 | 0.00 | 75 | 1030.6 |
| 20260902034905 | 10 | 247 | 0.0 | 0.0 | 0.00 | 0.00 | 0.00 | 75 | 1030.6 |
| 20260902034806 | 10 | 247 | 0.0 | 0.0 | 0.00 | 0.00 | 0.00 | 75 | 1030.6 |
| 20260902034706 | 10 | 247 | 0.0 | 0.0 | 0.00 | 0.00 | 0.00 | 75 | 1030.6 |
| 20260902034606 | 10 | 247 | 0.0 | 0.0 | 0.00 | 0.00 | 0.00 | 75 | 1030.5 |
| 20260902034506 | 10 | 247 | 0.0 | 0.0 | 0.00 | 0.00 | 0.00 | 75 | 1030.5 |
| 20260902034406 | 10 | 247 | 0.0 | 0.0 | 0.00 | 0.00 | 0.00 | 75 | 1030.5 |
| 20260902034306 | 10 | 247 | 0.0 | 0.0 | 0.00 | 0.00 | 0.00 | 75 | 1030.5 |
| 20260902034206 | 10 | 247 | 0.0 | 0.0 | 0.00 | 0.00 | 0.00 | 75 | 1030.5 |
| 20260902034106 | 10 | 247 | 0.0 | 0.0 | 0.00 | 0.00 | 0.00 | 75 | 1030.6 |
| 20260902034006 | 10 | 247 | 0.0 | 0.0 | 0.00 | 0.00 | 0.00 | 75 | 1030.5 |
| 20260902033906 | 10 | 247 | 0.0 | 0.0 | 0.00 | 0.00 | 0.00 | 75 | 1030.5 |
| 20260902033806 | 10 | 247 | 0.0 | 0.0 | 0.00 | 0.00 | 0.00 | 75 | 1030.5 |
| 20260902033706 | 10 | 247 | 0.0 | 0.0 | 0.00 | 0.00 | 0.00 | 75 | 1030.6 |
| 20260902033606 | 10 | 247 | 0.0 | 0.0 | 0.00 | 0.00 | 0.00 | 75 | 1030.6 |
| 20260902033506 | 10 | 247 | 0.0 | 0.0 | 0.00 | 0.00 | 0.00 | 75 | 1030.5 |
| 20260902033406 | 10 | 247 | 0.0 | 0.0 | 0.00 | 0.00 | 0.00 | 75 | 1030.6 |
| 20260902033306 | 10 | 247 | 0.0 | 0.0 | 0.00 | 0.00 | 0.00 | 75 | 1030.5 |
| 20260902033206 | 10 | 247 | 0.0 | 0.0 | 0.00 | 0.00 | 0.00 | 75 | 1030.6 |
| 20260902033106 | 10 | 247 | 0.0 | 0.0 | 0.00 | 0.00 | 0.00 | 75 | 1030.5 |
| 20260902033006 | 10 | 247 | 0.0 | 0.0 | 0.00 | 0.00 | 0.00 | 75 | 1030.6 |
| 20260902032845 | 10 | 247 | 0.0 | 0.0 | 0.00 | 0.00 | 0.00 | 75 | 1030.5 |
| 20260902032806 | 10 | 247 | 0.0 | 0.0 | 0.00 | 0.00 | 0.00 | 75 | 1030.5 |
| 20260902032706 | 10 | 247 | 0.0 | 0.0 | 0.00 | 0.00 | 0.00 | 75 | 1030.6 |
| 20260902032606 | 10 | 247 | 0.0 | 0.0 | 0.00 | 0.00 | 0.00 | 75 | 1030.6 |
| 20260902032506 | 10 | 247 | 0.0 | 0.0 | 0.00 | 0.00 | 0.00 | 75 | 1030.6 |
| 20260902032406 | 10 | 247 | 0.0 | 0.0 | 0.00 | 0.00 | 0.00 | 75 | 1030.6 |
| 20260902032306 | 10 | 247 | 0.0 | 0.0 | 0.00 | 0.00 | 0.00 | 75 | 1030.8 |
| 20260902032206 | 10 | 247 | 0.0 | 0.0 | 0.00 | 0.00 | 0.00 | 75 | 1030.8 |
| 20260902032105 | 10 | 247 | 0.0 | 0.0 | 0.00 | 0.00 | 0.00 | 75 | 1030.9 |
| 20260902032006 | 10 | 247 | 0.0 | 0.0 | 0.00 | 0.00 | 0.00 | 75 | 1030.9 |
| 20260902031906 | 10 | 247 | 0.0 | 0.0 | 0.00 | 0.00 | 0.00 | 75 | 1030.9 |
| 20260902031806 | 10 | 247 | 0.0 | 0.0 | 0.00 | 0.00 | 0.00 | 75 | 1030.8 |
| 20260902031706 | 10 | 247 | 0.0 | 0.0 | 0.00 | 0.00 | 0.00 | 75 | 1030.9 |
| 20260902031606 | 10 | 247 | 0.0 | 0.0 | 0.00 | 0.00 | 0.00 | 75 | 1030.9 |
| 20260902031506 | 10 | 247 | 0.0 | 0.0 | 0.00 | 0.00 | 0.00 | 75 | 1030.9 |
| 20260902031406 | 10 | 247 | 0.0 | 0.0 | 0.00 | 0.00 | 0.00 | 74 | 1030.8 |
| 20260902031306 | 10 | 247 | 0.0 | 0.0 | 0.00 | 0.00 | 0.00 | 74 | 1030.9 |
| 20260902031206 | 10 | 247 | 0.0 | 0.0 | 0.00 | 0.00 | 0.00 | 74 | 1030.8 |
| 20260902031106 | 10 | 247 | 0.0 | 0.0 | 0.00 | 0.00 | 0.00 | 74 | 1030.9 |
| 20260902031006 | 10 | 247 | 0.0 | 0.0 | 0.00 | 0.00 | 0.00 | 74 | 1030.8 |
| 20260902030906 | 10 | 247 | 0.0 | 0.0 | 0.00 | 0.00 | 0.00 | 74 | 1030.8 |
| 20260902030806 | 10 | 247 | 0.0 | 0.0 | 0.00 | 0.00 | 0.00 | 74 | 1030.8 |
| 20260902030706 | 10 | 247 | 0.0 | 0.0 | 0.00 | 0.00 | 0.00 | 74 | 1030.8 |
| 20260902030605 | 10 | 247 | 0.0 | 0.0 | 0.00 | 0.00 | 0.00 | 74 | 1030.8 |
| 20260902030505 | 10 | 247 | 0.0 | 0.0 | 0.00 | 0.00 | 0.00 | 74 | 1030.8 |
| 20260902030406 | 10 | 247 | 0.0 | 0.0 | 0.00 | 0.00 | 0.00 | 74 | 1030.9 |
| 20260902030305 | 10 | 247 | 0.0 | 0.0 | 0.00 | 0.00 | 0.00 | 74 | 1030.9 |
| 20260902030205 | 10 | 247 | 0.0 | 0.0 | 0.00 | 0.00 | 0.00 | 74 | 1030.8 |
| 20260902030105 | 10 | 247 | 0.0 | 0.0 | 0.00 | 0.00 | 0.00 | 74 | 1030.6 |
| 20260902030005 | 10 | 247 | 0.0 | 0.0 | 0.00 | 0.00 | 0.00 | 74 | 1030.6 |
| 20260902025905 | 10 | 247 | 0.0 | 0.0 | 0.00 | 0.00 | 0.00 | 74 | 1030.8 |
| 20260902025806 | 10 | 247 | 0.0 | 0.0 | 0.00 | 0.00 | 0.00 | 74 | 1030.6 |
| 20260902025705 | 10 | 247 | 0.0 | 0.0 | 0.00 | 0.00 | 0.00 | 74 | 1030.6 |
| 20260902025606 | 10 | 247 | 0.0 | 0.0 | 0.00 | 0.00 | 0.00 | 74 | 1030.6 |
| 20260902025506 | 10 | 247 | 0.0 | 0.0 | 0.00 | 0.00 | 0.00 | 74 | 1030.6 |
| 20260902025405 | 10 | 247 | 0.0 | 0.0 | 0.00 | 0.00 | 0.00 | 74 | 1030.6 |
| 20260902025306 | 10 | 247 | 0.0 | 0.0 | 0.00 | 0.00 | 0.00 | 74 | 1030.6 |
| 20260902025205 | 10 | 247 | 0.0 | 0.0 | 0.00 | 0.00 | 0.00 | 74 | 1030.6 |
| 20260902025105 | 10 | 247 | 0.0 | 0.0 | 0.00 | 0.00 | 0.00 | 74 | 1030.6 |
| 20260902025005 | 10 | 247 | 0.0 | 0.0 | 0.00 | 0.00 | 0.00 | 74 | 1030.6 |
| 20260902024906 | 10 | 247 | 0.0 | 0.0 | 0.00 | 0.00 | 0.00 | 74 | 1030.5 |
| 20260902024806 | 10 | 247 | 0.0 | 0.0 | 0.00 | 0.00 | 0.00 | 74 | 1030.6 |
| 20260902024706 | 10 | 247 | 0.0 | 0.0 | 0.00 | 0.00 | 0.00 | 74 | 1030.5 |
| 20260902024606 | 10 | 247 | 0.0 | 0.0 | 0.00 | 0.00 | 0.00 | 74 | 1030.6 |
| 20260902024506 | 10 | 247 | 0.0 | 0.0 | 0.00 | 0.00 | 0.00 | 74 | 1030.8 |
| 20260902024405 | 10 | 247 | 0.0 | 0.0 | 0.00 | 0.00 | 0.00 | 74 | 1030.6 |
| 20260902024306 | 10 | 247 | 0.0 | 0.0 | 0.00 | 0.00 | 0.00 | 74 | 1030.6 |
| 20260902024206 | 10 | 247 | 0.0 | 0.0 | 0.00 | 0.00 | 0.00 | 74 | 1030.6 |
| 20260902024106 | 10 | 247 | 0.0 | 0.0 | 0.00 | 0.00 | 0.00 | 74 | 1030.8 |
| 20260902024006 | 10 | 247 | 0.0 | 0.0 | 0.00 | 0.00 | 0.00 | 74 | 1030.8 |
| 20260902023905 | 10 | 247 | 0.0 | 0.0 | 0.00 | 0.00 | 0.00 | 74 | 1030.6 |
| 20260902023805 | 10 | 247 | 0.0 | 0.0 | 0.00 | 0.00 | 0.00 | 74 | 1030.8 |
| 20260902023705 | 10 | 247 | 0.0 | 0.0 | 0.00 | 0.00 | 0.00 | 74 | 1030.6 |
| 20260902023606 | 10 | 247 | 0.0 | 0.0 | 0.00 | 0.00 | 0.00 | 74 | 1030.8 |
| 20260902023505 | 10 | 247 | 0.0 | 0.0 | 0.00 | 0.00 | 0.00 | 74 | 1030.8 |
| 20260902023405 | 10 | 247 | 0.0 | 0.0 | 0.00 | 0.00 | 0.00 | 74 | 1030.8 |
| 20260902023305 | 10 | 247 | 0.0 | 0.0 | 0.00 | 0.00 | 0.00 | 74 | 1030.8 |
| 20260902023205 | 10 | 247 | 0.0 | 0.0 | 0.00 | 0.00 | 0.00 | 74 | 1030.9 |
| 20260902023105 | 10 | 247 | 0.0 | 0.0 | 0.00 | 0.00 | 0.00 | 74 | 1030.9 |
| 20260902023005 | 10 | 247 | 0.0 | 0.0 | 0.00 | 0.00 | 0.00 | 74 | 1030.8 |
| 20260902022906 | 10 | 247 | 0.0 | 0.0 | 0.00 | 0.00 | 0.00 | 74 | 1030.8 |
| 20260902022805 | 10 | 247 | 0.0 | 0.0 | 0.00 | 0.00 | 0.00 | 74 | 1030.6 |
| 20260902022705 | 10 | 247 | 0.0 | 0.0 | 0.00 | 0.00 | 0.00 | 74 | 1030.8 |
| 20260902022605 | 10 | 247 | 0.0 | 0.0 | 0.00 | 0.00 | 0.00 | 74 | 1030.8 |
| 20260902022505 | 10 | 247 | 0.0 | 0.0 | 0.00 | 0.00 | 0.00 | 74 | 1030.6 |
| 20260902022405 | 10 | 247 | 0.0 | 0.0 | 0.00 | 0.00 | 0.00 | 74 | 1030.6 |
| 20260902022306 | 10 | 247 | 0.0 | 0.0 | 0.00 | 0.00 | 0.00 | 74 | 1030.6 |
| 20260902022205 | 10 | 247 | 0.0 | 0.0 | 0.00 | 0.00 | 0.00 | 74 | 1030.6 |
| 20260902022105 | 10 | 247 | 0.0 | 0.0 | 0.00 | 0.00 | 0.00 | 74 | 1030.6 |
| 20260902022005 | 10 | 247 | 0.0 | 0.0 | 0.00 | 0.00 | 0.00 | 74 | 1030.6 |
| 20260902021905 | 10 | 247 | 0.0 | 0.0 | 0.00 | 0.00 | 0.00 | 74 | 1030.6 |
| 20260902021805 | 10 | 247 | 0.0 | 0.0 | 0.00 | 0.00 | 0.00 | 74 | 1030.5 |
| 20260902021705 | 10 | 247 | 0.0 | 0.0 | 0.00 | 0.00 | 0.00 | 74 | 1030.6 |
| 20260902021605 | 10 | 247 | 0.0 | 0.0 | 0.00 | 0.00 | 0.00 | 74 | 1030.8 |
| 20260902021505 | 10 | 247 | 0.0 | 0.0 | 0.00 | 0.00 | 0.00 | 74 | 1030.6 |
| 20260902021405 | 10 | 247 | 0.0 | 0.0 | 0.00 | 0.00 | 0.00 | 74 | 1030.8 |
| 20260902021305 | 10 | 247 | 0.0 | 0.0 | 0.00 | 0.00 | 0.00 | 74 | 1030.6 |
| 20260902021205 | 10 | 247 | 0.0 | 0.0 | 0.00 | 0.00 | 0.00 | 74 | 1030.8 |
| 20260902021105 | 10 | 247 | 0.0 | 0.0 | 0.00 | 0.00 | 0.00 | 74 | 1030.6 |
| 20260902021005 | 10 | 247 | 0.0 | 0.0 | 0.00 | 0.00 | 0.00 | 74 | 1030.6 |
| 20260902020905 | 10 | 247 | 0.0 | 0.0 | 0.00 | 0.00 | 0.00 | 74 | 1030.8 |
| 20260902020805 | 10 | 247 | 0.0 | 0.0 | 0.00 | 0.00 | 0.00 | 74 | 1030.6 |
| 20260902020705 | 10 | 247 | 0.0 | 0.0 | 0.00 | 0.00 | 0.00 | 74 | 1030.6 |
| 20260902020605 | 10 | 247 | 0.0 | 0.0 | 0.00 | 0.00 | 0.00 | 74 | 1030.6 |
| 20260902020505 | 10 | 247 | 0.0 | 0.0 | 0.00 | 0.00 | 0.00 | 74 | 1030.6 |
| 20260902020405 | 10 | 247 | 0.0 | 0.0 | 0.00 | 0.00 | 0.00 | 74 | 1030.5 |
| 20260902020305 | 10 | 247 | 0.0 | 0.0 | 0.00 | 0.00 | 0.00 | 74 | 1030.6 |
| 20260902020205 | 10 | 247 | 0.0 | 0.0 | 0.00 | 0.00 | 0.00 | 74 | 1030.6 |
| 20260902020105 | 10 | 247 | 0.0 | 0.0 | 0.00 | 0.00 | 0.00 | 74 | 1030.6 |
| 20260902020005 | 10 | 247 | 0.0 | 0.0 | 0.00 | 0.00 | 0.00 | 73 | 1030.6 |
| 20260902015845 | 10 | 247 | 0.0 | 0.0 | 0.00 | 0.00 | 0.00 | 73 | 1030.5 |
| 20260902015805 | 10 | 247 | 0.0 | 0.0 | 0.00 | 0.00 | 0.00 | 73 | 1030.5 |
| 20260902015705 | 10 | 247 | 0.0 | 0.0 | 0.00 | 0.00 | 0.00 | 73 | 1030.5 |
| 20260902015605 | 10 | 247 | 0.0 | 0.0 | 0.00 | 0.00 | 0.00 | 73 | 1030.6 |
| 20260902015505 | 10 | 247 | 0.0 | 0.0 | 0.00 | 0.00 | 0.00 | 73 | 1030.6 |
| 20260902015405 | 10 | 247 | 0.0 | 0.0 | 0.00 | 0.00 | 0.00 | 73 | 1030.5 |
| 20260902015306 | 10 | 247 | 0.0 | 0.0 | 0.00 | 0.00 | 0.00 | 73 | 1030.5 |
| 20260902015205 | 10 | 247 | 0.0 | 0.0 | 0.00 | 0.00 | 0.00 | 73 | 1030.6 |
| 20260902015105 | 10 | 247 | 0.0 | 0.0 | 0.00 | 0.00 | 0.00 | 73 | 1030.6 |
| 20260902015005 | 10 | 247 | 0.0 | 0.0 | 0.00 | 0.00 | 0.00 | 73 | 1030.6 |
| 20260902014905 | 10 | 247 | 0.0 | 0.0 | 0.00 | 0.00 | 0.00 | 73 | 1030.8 |
| 20260902014805 | 10 | 247 | 0.0 | 0.0 | 0.00 | 0.00 | 0.00 | 73 | 1030.6 |
| 20260902014705 | 10 | 247 | 0.0 | 0.0 | 0.00 | 0.00 | 0.00 | 73 | 1030.8 |
| 20260902014605 | 10 | 247 | 0.0 | 0.0 | 0.00 | 0.00 | 0.00 | 73 | 1030.8 |
| 20260902014505 | 10 | 247 | 0.0 | 0.0 | 0.00 | 0.00 | 0.00 | 73 | 1030.8 |
| 20260902014405 | 10 | 247 | 0.0 | 0.0 | 0.00 | 0.00 | 0.00 | 73 | 1030.8 |
| 20260902014305 | 10 | 247 | 0.0 | 0.0 | 0.00 | 0.00 | 0.00 | 73 | 1030.8 |
| 20260902014205 | 10 | 247 | 0.0 | 0.0 | 0.00 | 0.00 | 0.00 | 73 | 1030.8 |
| 20260902014105 | 10 | 247 | 0.0 | 0.0 | 0.00 | 0.00 | 0.00 | 73 | 1030.8 |
| 20260902014005 | 10 | 247 | 0.0 | 0.0 | 0.00 | 0.00 | 0.00 | 73 | 1030.9 |
| 20260902013905 | 10 | 247 | 0.0 | 0.0 | 0.00 | 0.00 | 0.00 | 73 | 1030.8 |
| 20260902013805 | 10 | 247 | 0.0 | 0.0 | 0.00 | 0.00 | 0.00 | 73 | 1030.8 |
| 20260902013705 | 10 | 247 | 0.0 | 0.0 | 0.00 | 0.00 | 0.00 | 73 | 1030.8 |
| 20260902013605 | 10 | 247 | 0.0 | 0.0 | 0.00 | 0.00 | 0.00 | 73 | 1030.9 |
| 20260902013505 | 10 | 247 | 0.0 | 0.0 | 0.00 | 0.00 | 0.00 | 73 | 1030.8 |
| 20260902013405 | 10 | 247 | 0.0 | 0.0 | 0.00 | 0.00 | 0.00 | 73 | 1030.8 |
| 20260902013305 | 10 | 247 | 0.0 | 0.0 | 0.00 | 0.00 | 0.00 | 73 | 1030.8 |
| 20260902013205 | 10 | 247 | 0.0 | 0.0 | 0.00 | 0.00 | 0.00 | 73 | 1030.8 |
| 20260902013105 | 10 | 247 | 0.0 | 0.0 | 0.00 | 0.00 | 0.00 | 73 | 1030.9 |
| 20260902013005 | 10 | 247 | 0.0 | 0.0 | 0.00 | 0.00 | 0.00 | 73 | 1030.8 |
| 20260902012905 | 10 | 247 | 0.0 | 0.0 | 0.00 | 0.00 | 0.00 | 73 | 1030.9 |
| 20260902012805 | 10 | 247 | 0.0 | 0.0 | 0.00 | 0.00 | 0.00 | 73 | 1031.0 |
| 20260902012705 | 10 | 247 | 0.0 | 0.0 | 0.00 | 0.00 | 0.00 | 73 | 1030.9 |
| 20260902012605 | 10 | 247 | 0.0 | 0.0 | 0.00 | 0.00 | 0.00 | 73 | 1030.9 |
| 20260902012505 | 10 | 247 | 0.0 | 0.0 | 0.00 | 0.00 | 0.00 | 73 | 1030.9 |
| 20260902012405 | 10 | 247 | 0.0 | 0.0 | 0.00 | 0.00 | 0.00 | 73 | 1030.9 |
| 20260902012309 | 10 | 247 | 0.0 | 0.0 | 0.00 | 0.00 | 0.00 | 73 | 1030.9 |
| 20260902012205 | 10 | 247 | 0.0 | 0.0 | 0.00 | 0.00 | 0.00 | 73 | 1030.9 |
| 20260902012105 | 10 | 247 | 0.0 | 0.0 | 0.00 | 0.00 | 0.00 | 73 | 1030.9 |
| 20260902012005 | 10 | 247 | 0.0 | 0.0 | 0.00 | 0.00 | 0.00 | 73 | 1030.9 |
| 20260902011905 | 10 | 247 | 0.0 | 0.0 | 0.00 | 0.00 | 0.00 | 73 | 1030.9 |
| 20260902011805 | 10 | 247 | 0.0 | 0.0 | 0.00 | 0.00 | 0.00 | 73 | 1030.8 |
| 20260902011705 | 10 | 247 | 0.0 | 0.0 | 0.00 | 0.00 | 0.00 | 73 | 1030.9 |
| 20260902011605 | 10 | 247 | 0.0 | 0.0 | 0.00 | 0.00 | 0.00 | 73 | 1030.8 |
| 20260902011505 | 10 | 247 | 0.0 | 0.0 | 0.00 | 0.00 | 0.00 | 73 | 1030.8 |
| 20260902011405 | 11 | 247 | 0.0 | 0.0 | 0.00 | 0.00 | 0.00 | 73 | 1030.8 |
| 20260902011305 | 11 | 247 | 0.0 | 0.0 | 0.00 | 0.00 | 0.00 | 73 | 1030.8 |
| 20260902011205 | 11 | 247 | 0.0 | 0.0 | 0.00 | 0.00 | 0.00 | 73 | 1030.8 |
| 20260902011105 | 11 | 247 | 0.0 | 0.0 | 0.00 | 0.00 | 0.00 | 73 | 1030.8 |
| 20260902011005 | 11 | 247 | 0.0 | 0.0 | 0.00 | 0.00 | 0.00 | 72 | 1030.8 |
| 20260902010905 | 11 | 247 | 0.0 | 0.0 | 0.00 | 0.00 | 0.00 | 72 | 1030.9 |
| 20260902010805 | 11 | 247 | 0.0 | 0.0 | 0.00 | 0.00 | 0.00 | 72 | 1030.8 |
| 20260902010705 | 11 | 247 | 0.0 | 0.0 | 0.00 | 0.00 | 0.00 | 72 | 1030.9 |
| 20260902010605 | 11 | 247 | 0.0 | 0.0 | 0.00 | 0.00 | 0.00 | 72 | 1030.8 |
| 20260902010505 | 11 | 247 | 0.0 | 0.0 | 0.00 | 0.00 | 0.00 | 72 | 1030.8 |
| 20260902010405 | 11 | 247 | 0.0 | 0.0 | 0.00 | 0.00 | 0.00 | 72 | 1030.8 |
| 20260902010306 | 11 | 247 | 0.0 | 0.0 | 0.00 | 0.00 | 0.00 | 72 | 1030.8 |
| 20260902010205 | 11 | 247 | 0.0 | 0.0 | 0.00 | 0.00 | 0.00 | 72 | 1030.8 |
| 20260902010105 | 11 | 247 | 0.0 | 0.0 | 0.00 | 0.00 | 0.00 | 72 | 1030.8 |
| 20260902010005 | 11 | 247 | 0.0 | 0.0 | 0.00 | 0.00 | 0.00 | 72 | 1030.8 |
| 20260902005845 | 11 | 247 | 0.0 | 0.0 | 0.00 | 0.00 | 0.00 | 72 | 1030.9 |
| 20260902005805 | 11 | 247 | 0.0 | 0.0 | 0.00 | 0.00 | 0.00 | 72 | 1030.9 |
| 20260902005705 | 11 | 247 | 0.0 | 0.0 | 0.00 | 0.00 | 0.00 | 72 | 1030.9 |
| 20260902005605 | 11 | 247 | 0.0 | 0.0 | 0.00 | 0.00 | 0.00 | 72 | 1031.0 |
| 20260902005505 | 11 | 247 | 0.0 | 0.0 | 0.00 | 0.00 | 0.00 | 72 | 1031.0 |
| 20260902005405 | 11 | 247 | 0.0 | 0.0 | 0.00 | 0.00 | 0.00 | 72 | 1031.0 |
| 20260902005306 | 11 | 247 | 0.0 | 0.0 | 0.00 | 0.00 | 0.00 | 72 | 1031.0 |
| 20260902005205 | 11 | 247 | 0.0 | 0.0 | 0.00 | 0.00 | 0.00 | 72 | 1031.0 |
| 20260902005105 | 11 | 247 | 0.0 | 0.0 | 0.00 | 0.00 | 0.00 | 72 | 1031.0 |
| 20260902005005 | 11 | 247 | 0.0 | 0.0 | 0.00 | 0.00 | 0.00 | 72 | 1031.0 |
| 20260902004905 | 11 | 247 | 0.0 | 0.0 | 0.00 | 0.00 | 0.00 | 72 | 1031.0 |
| 20260902004805 | 11 | 247 | 0.0 | 0.0 | 0.00 | 0.00 | 0.00 | 72 | 1031.0 |
| 20260902004705 | 11 | 247 | 0.0 | 0.0 | 0.00 | 0.00 | 0.00 | 72 | 1031.0 |
| 20260902004605 | 11 | 247 | 0.0 | 0.0 | 0.00 | 0.00 | 0.00 | 72 | 1031.0 |
| 20260902004505 | 11 | 247 | 0.0 | 0.0 | 0.00 | 0.00 | 0.00 | 72 | 1031.0 |
| 20260902004405 | 11 | 247 | 0.0 | 0.0 | 0.00 | 0.00 | 0.00 | 72 | 1031.0 |
| 20260902004305 | 11 | 247 | 0.0 | 0.0 | 0.00 | 0.00 | 0.00 | 72 | 1031.0 |
| 20260902004205 | 11 | 247 | 0.0 | 0.0 | 0.00 | 0.00 | 0.00 | 72 | 1031.0 |
| 20260902004105 | 11 | 247 | 0.0 | 0.0 | 0.00 | 0.00 | 0.00 | 72 | 1031.0 |
| 20260902004005 | 11 | 247 | 0.0 | 0.0 | 0.00 | 0.00 | 0.00 | 72 | 1031.0 |
| 20260902003905 | 11 | 247 | 0.0 | 0.0 | 0.00 | 0.00 | 0.00 | 72 | 1031.0 |
| 20260902003805 | 11 | 247 | 0.0 | 0.0 | 0.00 | 0.00 | 0.00 | 72 | 1031.0 |
| 20260902003705 | 11 | 247 | 0.0 | 0.0 | 0.00 | 0.00 | 0.00 | 72 | 1031.0 |
| 20260902003605 | 11 | 247 | 0.0 | 0.0 | 0.00 | 0.00 | 0.00 | 72 | 1031.0 |
| 20260902003505 | 11 | 247 | 0.0 | 0.0 | 0.00 | 0.00 | 0.00 | 72 | 1031.0 |
| 20260902003405 | 11 | 247 | 0.0 | 0.0 | 0.00 | 0.00 | 0.00 | 72 | 1031.0 |
| 20260902003305 | 11 | 247 | 0.0 | 0.0 | 0.00 | 0.00 | 0.00 | 71 | 1031.0 |
| 20260902003205 | 11 | 247 | 0.0 | 0.0 | 0.00 | 0.00 | 0.00 | 71 | 1030.9 |
| 20260902003105 | 11 | 247 | 0.0 | 0.0 | 0.00 | 0.00 | 0.00 | 71 | 1031.0 |
| 20260902003005 | 11 | 247 | 0.0 | 0.0 | 0.00 | 0.00 | 0.00 | 71 | 1031.0 |
| 20260902002905 | 11 | 247 | 0.0 | 0.0 | 0.00 | 0.00 | 0.00 | 71 | 1031.0 |
| 20260902002805 | 11 | 247 | 0.0 | 0.0 | 0.00 | 0.00 | 0.00 | 71 | 1031.0 |
| 20260902002705 | 11 | 247 | 0.0 | 0.0 | 0.00 | 0.00 | 0.00 | 71 | 1031.0 |
| 20260902002605 | 11 | 247 | 0.0 | 0.0 | 0.00 | 0.00 | 0.00 | 71 | 1031.0 |
| 20260902002505 | 11 | 247 | 0.0 | 0.0 | 0.00 | 0.00 | 0.00 | 71 | 1031.0 |
| 20260902002405 | 11 | 247 | 0.0 | 0.0 | 0.00 | 0.00 | 0.00 | 71 | 1031.0 |
| 20260902002306 | 11 | 247 | 0.0 | 0.0 | 0.00 | 0.00 | 0.00 | 71 | 1031.0 |
| 20260902002205 | 11 | 247 | 0.0 | 0.0 | 0.00 | 0.00 | 0.00 | 71 | 1031.0 |
| 20260902002105 | 11 | 247 | 0.0 | 0.0 | 0.00 | 0.00 | 0.00 | 71 | 1031.0 |
| 20260902002005 | 11 | 247 | 0.0 | 0.0 | 0.00 | 0.00 | 0.00 | 71 | 1031.0 |
| 20260902001905 | 11 | 247 | 0.0 | 0.0 | 0.00 | 0.00 | 0.00 | 71 | 1031.0 |
| 20260902001805 | 11 | 247 | 0.0 | 0.0 | 0.00 | 0.00 | 0.00 | 71 | 1031.0 |
| 20260902001705 | 11 | 247 | 0.0 | 0.0 | 0.00 | 0.00 | 0.00 | 71 | 1031.0 |
| 20260902001605 | 11 | 247 | 0.0 | 0.0 | 0.00 | 0.00 | 0.00 | 71 | 1031.0 |
| 20260902001505 | 11 | 247 | 0.0 | 0.0 | 0.00 | 0.00 | 0.00 | 71 | 1031.0 |
| 20260902001405 | 11 | 247 | 0.0 | 0.0 | 0.00 | 0.00 | 0.00 | 71 | 1031.0 |
| 20260902001305 | 11 | 247 | 0.0 | 0.0 | 0.00 | 0.00 | 0.00 | 71 | 1031.0 |
| 20260902001205 | 11 | 247 | 0.0 | 0.0 | 0.00 | 0.00 | 0.00 | 71 | 1031.0 |
| 20260902001105 | 11 | 247 | 0.0 | 0.0 | 0.00 | 0.00 | 0.00 | 71 | 1031.0 |
| 20260902001005 | 11 | 247 | 0.0 | 0.0 | 0.00 | 0.00 | 0.00 | 71 | 1031.0 |
| 20260902000905 | 11 | 247 | 0.0 | 0.0 | 0.00 | 0.00 | 0.00 | 71 | 1031.0 |
| 20260902000805 | 11 | 247 | 0.0 | 0.0 | 0.00 | 0.00 | 0.00 | 71 | 1031.0 |
| 20260902000705 | 11 | 247 | 0.0 | 0.0 | 0.00 | 0.00 | 0.00 | 71 | 1031.0 |
| 20260902000605 | 11 | 247 | 0.0 | 0.0 | 0.00 | 0.00 | 0.00 | 71 | 1031.0 |
| 20260902000505 | 11 | 247 | 0.0 | 0.0 | 0.00 | 0.00 | 0.00 | 71 | 1031.0 |
| 20260902000406 | 11 | 247 | 0.0 | 0.0 | 0.00 | 0.00 | 0.00 | 71 | 1031.0 |
| 20260902000305 | 11 | 247 | 0.0 | 0.0 | 0.00 | 0.00 | 0.00 | 71 | 1031.0 |
| 20260902000205 | 11 | 247 | 0.0 | 0.0 | 0.00 | 0.00 | 0.00 | 71 | 1031.0 |
| 20260902000105 | 11 | 247 | 0.0 | 0.0 | 0.00 | 0.00 | 0.00 | 71 | 1031.0 |
| 20260902000005 | 11 | 247 | 0.0 | 0.0 | 0.00 | 0.00 | 0.00 | 71 | 1031.0 |
| 20260901235905 | 11 | 247 | 0.0 | 0.0 | 0.00 | 0.00 | 0.00 | 71 | 1031.0 |
| 20260901235805 | 11 | 247 | 0.0 | 0.0 | 0.00 | 0.00 | 0.00 | 71 | 1031.0 |
| 20260901235705 | 11 | 247 | 0.0 | 0.0 | 0.00 | 0.00 | 0.00 | 71 | 1031.0 |
| 20260901235605 | 11 | 247 | 0.0 | 0.0 | 0.00 | 0.00 | 0.00 | 71 | 1031.0 |
| 20260901235505 | 11 | 247 | 0.0 | 0.0 | 0.00 | 0.00 | 0.00 | 71 | 1031.1 |
| 20260901235405 | 11 | 247 | 0.0 | 0.0 | 0.00 | 0.00 | 0.00 | 71 | 1031.0 |
| 20260901235307 | 11 | 247 | 0.0 | 0.0 | 0.00 | 0.00 | 0.00 | 71 | 1031.0 |
| 20260901235205 | 11 | 247 | 0.0 | 0.0 | 0.00 | 0.00 | 0.00 | 71 | 1031.0 |
| 20260901235105 | 11 | 247 | 0.0 | 0.0 | 0.00 | 0.00 | 0.00 | 71 | 1031.0 |
| 20260901235005 | 11 | 247 | 0.0 | 0.0 | 0.00 | 0.00 | 0.00 | 71 | 1031.0 |
| 20260901234905 | 11 | 247 | 0.0 | 0.0 | 0.00 | 0.00 | 0.00 | 71 | 1031.1 |
| 20260901234805 | 11 | 247 | 0.0 | 0.0 | 0.00 | 0.00 | 0.00 | 71 | 1031.0 |
| 20260901234705 | 11 | 247 | 0.0 | 0.0 | 0.00 | 0.00 | 0.00 | 71 | 1031.1 |
| 20260901234605 | 11 | 247 | 0.0 | 0.0 | 0.00 | 0.00 | 0.00 | 71 | 1031.0 |
| 20260901234505 | 11 | 247 | 0.0 | 0.0 | 0.00 | 0.00 | 0.00 | 71 | 1031.0 |
| 20260901234405 | 11 | 247 | 0.0 | 0.0 | 0.00 | 0.00 | 0.00 | 71 | 1031.0 |
| 20260901234305 | 11 | 247 | 0.0 | 0.0 | 0.00 | 0.00 | 0.00 | 71 | 1031.1 |
| 20260901234205 | 11 | 247 | 0.0 | 0.0 | 0.00 | 0.00 | 0.00 | 71 | 1031.0 |
| 20260901234105 | 11 | 247 | 0.0 | 0.0 | 0.00 | 0.00 | 0.00 | 70 | 1031.0 |
| 20260901234005 | 11 | 247 | 0.0 | 0.0 | 0.00 | 0.00 | 0.00 | 70 | 1031.1 |
| 20260901233905 | 11 | 247 | 0.0 | 0.0 | 0.00 | 0.00 | 0.00 | 70 | 1031.0 |
| 20260901233805 | 11 | 247 | 0.0 | 0.0 | 0.00 | 0.00 | 0.00 | 70 | 1031.0 |
| 20260901233705 | 11 | 247 | 0.0 | 0.0 | 0.00 | 0.00 | 0.00 | 70 | 1031.0 |
| 20260901233605 | 12 | 247 | 0.0 | 0.0 | 0.00 | 0.00 | 0.00 | 70 | 1031.0 |
| 20260901233505 | 12 | 247 | 0.0 | 0.0 | 0.00 | 0.00 | 0.00 | 70 | 1031.0 |
| 20260901233405 | 12 | 247 | 0.0 | 0.0 | 0.00 | 0.00 | 0.00 | 70 | 1031.0 |
| 20260901233305 | 12 | 247 | 0.0 | 0.0 | 0.00 | 0.00 | 0.00 | 70 | 1031.1 |
| 20260901233205 | 12 | 247 | 0.0 | 0.0 | 0.00 | 0.00 | 0.00 | 70 | 1031.0 |
| 20260901233105 | 12 | 247 | 0.0 | 0.0 | 0.00 | 0.00 | 0.00 | 70 | 1031.0 |
| 20260901233005 | 12 | 247 | 0.0 | 0.0 | 0.00 | 0.00 | 0.00 | 70 | 1031.0 |
| 20260901232905 | 12 | 247 | 0.0 | 0.0 | 0.00 | 0.00 | 0.00 | 70 | 1031.0 |
| 20260901232805 | 12 | 247 | 0.0 | 0.0 | 0.00 | 0.00 | 0.00 | 70 | 1031.0 |
| 20260901232705 | 12 | 247 | 0.0 | 0.0 | 0.00 | 0.00 | 0.00 | 70 | 1031.0 |
| 20260901232605 | 12 | 247 | 0.0 | 0.0 | 0.00 | 0.00 | 0.00 | 70 | 1031.0 |
| 20260901232505 | 12 | 247 | 0.0 | 0.0 | 0.00 | 0.00 | 0.00 | 70 | 1031.0 |
| 20260901232405 | 12 | 247 | 0.0 | 0.0 | 0.00 | 0.00 | 0.00 | 70 | 1031.0 |
| 20260901232306 | 12 | 247 | 0.0 | 0.0 | 0.00 | 0.00 | 0.00 | 70 | 1031.0 |
| 20260901232205 | 12 | 247 | 0.0 | 0.0 | 0.00 | 0.00 | 0.00 | 70 | 1031.1 |
| 20260901232105 | 12 | 247 | 0.0 | 0.0 | 0.00 | 0.00 | 0.00 | 70 | 1031.0 |
| 20260901232005 | 12 | 247 | 0.0 | 0.0 | 0.00 | 0.00 | 0.00 | 70 | 1031.0 |
| 20260901231905 | 12 | 247 | 0.0 | 0.0 | 0.00 | 0.00 | 0.00 | 70 | 1031.0 |
| 20260901231805 | 12 | 247 | 0.0 | 0.0 | 0.00 | 0.00 | 0.00 | 70 | 1031.1 |
| 20260901231705 | 12 | 247 | 0.0 | 0.0 | 0.00 | 0.00 | 0.00 | 70 | 1031.1 |
| 20260901231605 | 12 | 247 | 0.0 | 0.0 | 0.00 | 0.00 | 0.00 | 70 | 1031.0 |
| 20260901231505 | 12 | 247 | 0.0 | 0.0 | 0.00 | 0.00 | 0.00 | 70 | 1031.1 |
| 20260901231405 | 12 | 247 | 0.0 | 0.0 | 0.00 | 0.00 | 0.00 | 70 | 1031.1 |
| 20260901231305 | 12 | 247 | 0.0 | 0.0 | 0.00 | 0.00 | 0.00 | 70 | 1031.1 |
| 20260901231205 | 12 | 247 | 0.0 | 0.0 | 0.00 | 0.00 | 0.00 | 70 | 1031.1 |
| 20260901231105 | 12 | 247 | 294.5 | 0.0 | 0.00 | 0.00 | 0.00 | 70 | 1031.1 |
| 20260901231005 | 12 | 247 | 0.0 | 0.0 | 0.00 | 0.00 | 0.00 | 70 | 1031.1 |
| 20260901230905 | 12 | 247 | 0.0 | 0.0 | 0.00 | 0.00 | 0.00 | 70 | 1031.1 |
| 20260901230805 | 12 | 247 | 0.0 | 0.0 | 0.00 | 0.00 | 0.00 | 70 | 1031.1 |
| 20260901230705 | 12 | 247 | 0.0 | 0.0 | 0.00 | 0.00 | 0.00 | 69 | 1031.1 |
| 20260901230605 | 12 | 247 | 0.0 | 0.0 | 0.00 | 0.00 | 0.00 | 69 | 1031.1 |
| 20260901230505 | 12 | 247 | 0.0 | 0.0 | 0.00 | 0.00 | 0.00 | 69 | 1031.0 |
| 20260901230405 | 12 | 247 | 0.0 | 0.0 | 0.00 | 0.00 | 0.00 | 69 | 1031.1 |
| 20260901230305 | 12 | 247 | 0.0 | 0.0 | 0.00 | 0.00 | 0.00 | 69 | 1031.1 |
| 20260901230205 | 12 | 247 | 0.0 | 0.0 | 0.00 | 0.00 | 0.00 | 69 | 1031.1 |
| 20260901230105 | 12 | 247 | 0.0 | 0.0 | 0.00 | 0.00 | 0.00 | 69 | 1031.1 |
| 20260901230005 | 12 | 247 | 0.0 | 0.0 | 0.00 | 0.00 | 0.00 | 69 | 1031.1 |
| 20260901225905 | 12 | 247 | 0.0 | 0.0 | 0.00 | 0.00 | 0.00 | 69 | 1031.3 |
| 20260901225805 | 12 | 247 | 0.0 | 0.0 | 0.00 | 0.00 | 0.00 | 69 | 1031.1 |
| 20260901225705 | 12 | 247 | 0.0 | 0.0 | 0.00 | 0.00 | 0.00 | 69 | 1031.3 |
| 20260901225605 | 12 | 247 | 0.0 | 0.0 | 0.00 | 0.00 | 0.00 | 69 | 1031.1 |
| 20260901225505 | 12 | 247 | 0.0 | 0.0 | 0.00 | 0.00 | 0.00 | 69 | 1031.1 |
| 20260901225405 | 12 | 247 | 0.0 | 0.0 | 0.00 | 0.00 | 0.00 | 69 | 1031.3 |
| 20260901225306 | 12 | 247 | 0.0 | 0.0 | 0.00 | 0.00 | 0.00 | 69 | 1031.1 |
| 20260901225205 | 12 | 247 | 0.0 | 0.0 | 0.00 | 0.00 | 0.00 | 69 | 1031.3 |
| 20260901225105 | 12 | 247 | 0.0 | 0.0 | 0.00 | 0.00 | 0.00 | 69 | 1031.3 |
| 20260901225005 | 12 | 247 | 0.0 | 0.0 | 0.00 | 0.00 | 0.00 | 69 | 1031.3 |
| 20260901224905 | 12 | 247 | 0.0 | 0.0 | 0.00 | 0.00 | 0.00 | 69 | 1031.3 |
| 20260901224805 | 12 | 247 | 0.0 | 0.0 | 0.00 | 0.00 | 0.00 | 69 | 1031.3 |
| 20260901224705 | 12 | 247 | 0.0 | 0.0 | 0.00 | 0.00 | 0.00 | 69 | 1031.3 |
| 20260901224605 | 12 | 247 | 0.0 | 0.0 | 0.00 | 0.00 | 0.00 | 69 | 1031.3 |
| 20260901224505 | 12 | 247 | 0.0 | 0.0 | 0.00 | 0.00 | 0.00 | 69 | 1031.3 |
| 20260901224405 | 12 | 247 | 0.0 | 0.0 | 0.00 | 0.00 | 0.00 | 69 | 1031.3 |
| 20260901224305 | 12 | 247 | 0.0 | 0.0 | 0.00 | 0.00 | 0.00 | 69 | 1031.1 |
| 20260901224205 | 12 | 247 | 0.0 | 0.0 | 0.00 | 0.00 | 0.00 | 69 | 1031.1 |
| 20260901224105 | 12 | 247 | 0.0 | 0.0 | 0.00 | 0.00 | 0.00 | 69 | 1031.1 |
| 20260901224005 | 12 | 247 | 0.0 | 0.0 | 0.00 | 0.00 | 0.00 | 69 | 1031.1 |
| 20260901223905 | 12 | 247 | 0.0 | 0.0 | 0.00 | 0.00 | 0.00 | 69 | 1031.3 |
| 20260901223805 | 12 | 247 | 0.0 | 0.0 | 0.00 | 0.00 | 0.00 | 69 | 1031.3 |
| 20260901223705 | 12 | 247 | 0.0 | 0.0 | 0.00 | 0.00 | 0.00 | 69 | 1031.3 |
| 20260901223605 | 12 | 247 | 0.0 | 0.0 | 0.00 | 0.00 | 0.00 | 69 | 1031.3 |
| 20260901223505 | 12 | 247 | 0.0 | 0.0 | 0.00 | 0.00 | 0.00 | 69 | 1031.4 |
| 20260901223405 | 12 | 247 | 0.0 | 0.0 | 0.00 | 0.00 | 0.00 | 69 | 1031.3 |
| 20260901223305 | 12 | 247 | 0.0 | 0.0 | 0.00 | 0.00 | 0.00 | 69 | 1031.3 |
| 20260901223205 | 12 | 247 | 0.0 | 0.0 | 0.00 | 0.00 | 0.00 | 69 | 1031.3 |
| 20260901223105 | 12 | 247 | 0.0 | 0.0 | 0.00 | 0.00 | 0.00 | 69 | 1031.4 |
| 20260901223006 | 12 | 247 | 0.0 | 0.0 | 0.00 | 0.00 | 0.00 | 69 | 1031.4 |
| 20260901222905 | 12 | 247 | 0.0 | 0.0 | 0.00 | 0.00 | 0.00 | 69 | 1031.3 |
| 20260901222805 | 12 | 247 | 0.0 | 0.0 | 0.00 | 0.00 | 0.00 | 69 | 1031.4 |
| 20260901222705 | 12 | 247 | 0.0 | 0.0 | 0.00 | 0.00 | 0.00 | 69 | 1031.5 |
| 20260901222605 | 12 | 247 | 0.0 | 0.0 | 0.00 | 0.00 | 0.00 | 69 | 1031.4 |
| 20260901222505 | 12 | 247 | 0.0 | 0.0 | 0.00 | 0.00 | 0.00 | 68 | 1031.3 |
| 20260901222405 | 12 | 247 | 0.0 | 0.0 | 0.00 | 0.00 | 0.00 | 68 | 1031.4 |
| 20260901222306 | 12 | 247 | 0.0 | 0.0 | 0.00 | 0.00 | 0.00 | 68 | 1031.3 |
| 20260901222205 | 12 | 247 | 0.0 | 0.0 | 0.00 | 0.00 | 0.00 | 68 | 1031.3 |
| 20260901222105 | 12 | 247 | 0.0 | 0.0 | 0.00 | 0.00 | 0.00 | 68 | 1031.4 |
| 20260901222005 | 12 | 247 | 0.0 | 0.0 | 0.00 | 0.00 | 0.00 | 68 | 1031.4 |
| 20260901221905 | 12 | 247 | 0.0 | 0.0 | 0.00 | 0.00 | 0.00 | 68 | 1031.3 |
| 20260901221805 | 12 | 247 | 0.0 | 0.0 | 0.00 | 0.00 | 0.00 | 68 | 1031.3 |
| 20260901221705 | 12 | 247 | 0.0 | 0.0 | 0.00 | 0.00 | 0.00 | 68 | 1031.3 |
| 20260901221605 | 12 | 247 | 0.0 | 0.0 | 0.00 | 0.00 | 0.00 | 68 | 1031.3 |
| 20260901221505 | 12 | 247 | 0.0 | 0.0 | 0.00 | 0.00 | 0.00 | 68 | 1031.4 |
| 20260901221405 | 12 | 247 | 0.0 | 0.0 | 0.00 | 0.00 | 0.00 | 68 | 1031.3 |
| 20260901221305 | 12 | 247 | 0.0 | 0.0 | 0.00 | 0.00 | 0.00 | 68 | 1031.3 |
| 20260901221205 | 12 | 247 | 0.0 | 0.0 | 0.00 | 0.00 | 0.00 | 68 | 1031.4 |
| 20260901221105 | 12 | 247 | 0.0 | 0.0 | 0.00 | 0.00 | 0.00 | 68 | 1031.3 |
| 20260901221005 | 12 | 247 | 0.0 | 0.0 | 0.00 | 0.00 | 0.00 | 68 | 1031.3 |
| 20260901220905 | 12 | 247 | 0.0 | 0.0 | 0.00 | 0.00 | 0.00 | 68 | 1031.3 |
| 20260901220805 | 12 | 247 | 0.0 | 0.0 | 0.00 | 0.00 | 0.00 | 68 | 1031.3 |
| 20260901220705 | 12 | 247 | 0.0 | 0.0 | 0.00 | 0.00 | 0.00 | 68 | 1031.3 |
| 20260901220605 | 12 | 247 | 0.0 | 0.0 | 0.00 | 0.00 | 0.00 | 68 | 1031.3 |
| 20260901220505 | 12 | 247 | 0.0 | 0.0 | 0.00 | 0.00 | 0.00 | 68 | 1031.1 |
| 20260901220405 | 12 | 247 | 0.0 | 0.0 | 0.00 | 0.00 | 0.00 | 68 | 1031.1 |
| 20260901220305 | 12 | 247 | 0.0 | 0.0 | 0.00 | 0.00 | 0.00 | 67 | 1031.3 |
| 20260901220205 | 12 | 247 | 0.0 | 0.0 | 0.00 | 0.00 | 0.00 | 67 | 1031.3 |
| 20260901220105 | 12 | 247 | 0.0 | 0.0 | 0.00 | 0.00 | 0.00 | 67 | 1031.1 |
| 20260901220005 | 12 | 247 | 0.0 | 0.0 | 0.00 | 0.00 | 0.00 | 67 | 1031.1 |
| 20260901215905 | 12 | 247 | 0.0 | 0.0 | 0.00 | 0.00 | 0.00 | 67 | 1031.1 |
| 20260901215805 | 13 | 247 | 0.0 | 0.0 | 0.00 | 0.00 | 0.00 | 67 | 1031.1 |
| 20260901215705 | 13 | 247 | 0.0 | 0.0 | 0.00 | 0.00 | 0.00 | 67 | 1031.1 |
| 20260901215605 | 13 | 247 | 0.0 | 0.0 | 0.00 | 0.00 | 0.00 | 67 | 1031.1 |
| 20260901215505 | 13 | 247 | 0.0 | 0.0 | 0.00 | 0.00 | 0.00 | 67 | 1031.1 |
| 20260901215405 | 12 | 247 | 0.0 | 0.0 | 0.00 | 0.00 | 0.00 | 67 | 1031.1 |
| 20260901215306 | 13 | 247 | 0.0 | 0.0 | 0.00 | 0.00 | 0.00 | 67 | 1031.1 |
| 20260901215205 | 13 | 247 | 0.0 | 0.0 | 0.00 | 0.00 | 0.00 | 67 | 1031.1 |
| 20260901215105 | 13 | 247 | 0.0 | 0.0 | 0.00 | 0.00 | 0.00 | 67 | 1031.3 |
| 20260901215005 | 13 | 247 | 0.0 | 0.0 | 0.00 | 0.00 | 0.00 | 67 | 1031.3 |
| 20260901214905 | 13 | 247 | 0.0 | 0.0 | 0.00 | 0.00 | 0.00 | 67 | 1031.1 |
| 20260901214805 | 13 | 247 | 0.0 | 0.0 | 0.00 | 0.00 | 0.00 | 67 | 1031.4 |
| 20260901214705 | 13 | 247 | 0.0 | 0.0 | 0.00 | 0.00 | 0.00 | 67 | 1031.4 |
| 20260901214605 | 13 | 247 | 0.0 | 0.0 | 0.00 | 0.00 | 0.00 | 67 | 1031.4 |
| 20260901214505 | 13 | 247 | 0.0 | 0.0 | 0.00 | 0.00 | 0.00 | 67 | 1031.4 |
| 20260901214405 | 13 | 247 | 0.0 | 0.0 | 0.00 | 0.00 | 0.00 | 67 | 1031.5 |
| 20260901214305 | 13 | 247 | 0.0 | 0.0 | 0.00 | 0.00 | 0.00 | 67 | 1031.3 |
| 20260901214205 | 13 | 247 | 0.0 | 0.0 | 0.00 | 0.00 | 0.00 | 67 | 1031.4 |
| 20260901214105 | 13 | 247 | 0.0 | 0.0 | 0.00 | 0.00 | 0.00 | 67 | 1031.4 |
| 20260901214005 | 13 | 247 | 0.0 | 0.0 | 0.00 | 0.00 | 0.00 | 67 | 1031.5 |
| 20260901213905 | 13 | 247 | 0.0 | 0.0 | 0.00 | 0.00 | 0.00 | 67 | 1031.3 |
| 20260901213805 | 13 | 247 | 0.0 | 0.0 | 0.00 | 0.00 | 0.00 | 67 | 1031.4 |
| 20260901213705 | 13 | 247 | 0.0 | 0.0 | 0.00 | 0.00 | 0.00 | 67 | 1031.4 |
| 20260901213605 | 13 | 247 | 0.0 | 0.0 | 0.00 | 0.00 | 0.00 | 67 | 1031.4 |
| 20260901213505 | 13 | 247 | 0.0 | 0.0 | 0.00 | 0.00 | 0.00 | 67 | 1031.4 |
| 20260901213405 | 13 | 247 | 0.0 | 0.0 | 0.00 | 0.00 | 0.00 | 67 | 1031.3 |
| 20260901213305 | 13 | 247 | 0.0 | 0.0 | 0.00 | 0.00 | 0.00 | 67 | 1031.3 |
| 20260901213205 | 13 | 247 | 0.0 | 0.0 | 0.00 | 0.00 | 0.00 | 67 | 1031.3 |
| 20260901213105 | 13 | 247 | 0.0 | 0.0 | 0.00 | 0.00 | 0.00 | 67 | 1031.4 |
| 20260901213005 | 13 | 247 | 0.0 | 0.0 | 0.00 | 0.00 | 0.00 | 67 | 1031.4 |
| 20260901212905 | 13 | 247 | 0.0 | 0.0 | 0.00 | 0.00 | 0.00 | 67 | 1031.1 |
| 20260901212805 | 13 | 247 | 0.0 | 0.0 | 0.00 | 0.00 | 0.00 | 66 | 1031.3 |
| 20260901212705 | 13 | 247 | 0.0 | 0.0 | 0.00 | 0.00 | 0.00 | 66 | 1031.3 |
| 20260901212605 | 13 | 247 | 0.0 | 0.0 | 0.00 | 0.00 | 0.00 | 66 | 1031.3 |
| 20260901212505 | 13 | 247 | 0.0 | 0.0 | 0.00 | 0.00 | 0.00 | 66 | 1031.3 |
| 20260901212405 | 13 | 247 | 0.0 | 0.0 | 0.00 | 0.00 | 0.00 | 66 | 1031.3 |
| 20260901212306 | 13 | 247 | 0.0 | 0.0 | 0.00 | 0.00 | 0.00 | 90 | 1031.1 |
| 20260901212205 | 13 | 247 | 0.0 | 0.0 | 0.00 | 0.00 | 0.00 | 66 | 1031.1 |
| 20260901212105 | 13 | 247 | 0.0 | 0.0 | 0.00 | 0.00 | 0.00 | 66 | 1031.1 |
| 20260901212005 | 13 | 247 | 0.0 | 0.0 | 0.00 | 0.00 | 0.00 | 66 | 1031.1 |
| 20260901211905 | 13 | 247 | 0.0 | 0.0 | 0.00 | 0.00 | 0.00 | 66 | 1031.1 |
| 20260901211805 | 13 | 247 | 0.0 | 0.0 | 0.00 | 0.00 | 0.00 | 66 | 1031.1 |
| 20260901211705 | 13 | 247 | 0.0 | 0.0 | 0.00 | 0.00 | 0.00 | 66 | 1031.1 |
| 20260901211605 | 13 | 247 | 0.0 | 0.0 | 0.00 | 0.00 | 0.00 | 66 | 1031.3 |
| 20260901211505 | 13 | 247 | 0.0 | 0.0 | 0.00 | 0.00 | 0.00 | 66 | 1031.1 |
| 20260901211405 | 13 | 247 | 0.0 | 0.0 | 0.00 | 0.00 | 0.00 | 66 | 1031.1 |
| 20260901211305 | 13 | 247 | 0.0 | 0.0 | 0.00 | 0.00 | 0.00 | 66 | 1031.1 |
| 20260901211205 | 13 | 247 | 0.0 | 0.0 | 0.00 | 0.00 | 0.00 | 66 | 1031.1 |
| 20260901211105 | 13 | 247 | 0.0 | 0.0 | 0.00 | 0.00 | 0.00 | 66 | 1031.3 |
| 20260901211005 | 13 | 247 | 0.0 | 0.0 | 0.00 | 0.00 | 0.00 | 66 | 1031.3 |
| 20260901210905 | 13 | 247 | 0.0 | 0.0 | 0.00 | 0.00 | 0.00 | 66 | 1031.1 |
| 20260901210805 | 13 | 247 | 0.0 | 0.0 | 0.00 | 0.00 | 0.00 | 65 | 1031.1 |
| 20260901210705 | 13 | 247 | 0.0 | 0.0 | 0.00 | 0.00 | 0.00 | 65 | 1031.3 |
| 20260901210605 | 13 | 247 | 0.0 | 0.0 | 0.00 | 0.00 | 0.00 | 65 | 1031.1 |
| 20260901210505 | 13 | 247 | 0.0 | 0.0 | 0.00 | 0.00 | 0.00 | 65 | 1031.1 |
| 20260901210405 | 13 | 247 | 0.0 | 0.0 | 0.00 | 0.00 | 0.00 | 65 | 1031.1 |
| 20260901210305 | 13 | 247 | 0.0 | 0.0 | 0.00 | 0.00 | 0.00 | 65 | 1031.1 |
| 20260901210205 | 13 | 247 | 0.0 | 0.0 | 0.00 | 0.00 | 0.00 | 65 | 1031.3 |
| 20260901210105 | 13 | 247 | 0.0 | 0.0 | 0.00 | 0.00 | 0.00 | 65 | 1031.1 |
| 20260901210005 | 13 | 247 | 0.0 | 0.0 | 0.00 | 0.00 | 0.00 | 65 | 1031.1 |
| 20260901205905 | 13 | 247 | 0.0 | 0.0 | 0.00 | 0.00 | 0.00 | 65 | 1031.1 |
| 20260901205805 | 13 | 247 | 0.0 | 0.0 | 0.00 | 0.00 | 0.00 | 65 | 1031.1 |
| 20260901205705 | 13 | 247 | 0.0 | 0.0 | 0.00 | 0.00 | 0.00 | 65 | 1031.1 |
| 20260901205605 | 13 | 247 | 0.0 | 0.0 | 0.00 | 0.00 | 0.00 | 65 | 1031.1 |
| 20260901205505 | 13 | 247 | 0.0 | 0.0 | 0.00 | 0.00 | 0.00 | 65 | 1031.3 |
| 20260901205405 | 13 | 247 | 0.0 | 0.0 | 0.00 | 0.00 | 0.00 | 65 | 1031.1 |
| 20260901205306 | 13 | 247 | 0.0 | 0.0 | 0.00 | 0.00 | 0.00 | 65 | 1031.3 |
| 20260901205205 | 13 | 247 | 0.0 | 0.0 | 0.00 | 0.00 | 0.00 | 65 | 1031.3 |
| 20260901205105 | 13 | 247 | 0.0 | 0.0 | 0.00 | 0.00 | 0.00 | 65 | 1031.3 |
| 20260901205005 | 14 | 247 | 0.0 | 0.0 | 0.00 | 0.00 | 0.00 | 65 | 1031.1 |
| 20260901204905 | 14 | 247 | 0.0 | 0.0 | 0.00 | 0.00 | 0.00 | 65 | 1031.1 |
| 20260901204805 | 14 | 247 | 0.0 | 0.0 | 0.00 | 0.00 | 0.00 | 65 | 1031.1 |
| 20260901204705 | 14 | 247 | 0.0 | 0.0 | 0.00 | 0.00 | 0.00 | 64 | 1031.1 |
| 20260901204605 | 14 | 247 | 0.0 | 0.0 | 0.00 | 0.00 | 0.00 | 64 | 1031.3 |
| 20260901204505 | 14 | 247 | 0.0 | 0.0 | 0.00 | 0.00 | 0.00 | 64 | 1031.1 |
| 20260901204405 | 14 | 247 | 294.5 | 0.0 | 0.00 | 0.00 | 0.00 | 64 | 1031.1 |
| 20260901204305 | 14 | 247 | 0.0 | 0.0 | 0.00 | 0.00 | 0.00 | 64 | 1031.1 |
| 20260901204205 | 14 | 247 | 0.0 | 0.0 | 0.00 | 0.00 | 0.00 | 64 | 1031.1 |
| 20260901204105 | 14 | 247 | 0.0 | 0.0 | 0.00 | 0.00 | 0.00 | 64 | 1031.1 |
| 20260901204005 | 14 | 247 | 0.0 | 0.0 | 0.00 | 0.00 | 0.00 | 64 | 1031.0 |
| 20260901203905 | 14 | 247 | 0.0 | 0.0 | 0.00 | 0.00 | 0.00 | 64 | 1031.0 |
| 20260901203805 | 14 | 247 | 0.0 | 0.0 | 0.00 | 0.00 | 0.00 | 64 | 1031.0 |
| 20260901203705 | 14 | 247 | 0.0 | 0.0 | 0.00 | 0.00 | 0.00 | 64 | 1031.1 |
| 20260901203605 | 14 | 247 | 0.0 | 0.0 | 0.00 | 0.00 | 0.00 | 64 | 1031.0 |
| 20260901203505 | 14 | 247 | 0.0 | 0.0 | 0.00 | 0.00 | 0.00 | 64 | 1031.0 |
| 20260901203405 | 14 | 247 | 0.0 | 0.0 | 0.00 | 0.00 | 0.00 | 64 | 1031.0 |
| 20260901203305 | 14 | 247 | 0.0 | 0.0 | 0.00 | 0.00 | 0.00 | 64 | 1031.0 |
| 20260901203205 | 14 | 247 | 0.0 | 0.0 | 0.00 | 0.00 | 0.00 | 64 | 1031.0 |
| 20260901203105 | 14 | 247 | 0.0 | 0.0 | 0.00 | 0.00 | 0.00 | 64 | 1031.0 |
| 20260901203005 | 14 | 247 | 0.0 | 0.0 | 0.00 | 0.00 | 0.00 | 64 | 1031.0 |
| 20260901202905 | 14 | 247 | 0.0 | 0.0 | 0.00 | 0.00 | 0.00 | 64 | 1031.0 |
| 20260901202805 | 14 | 247 | 0.0 | 0.0 | 0.00 | 0.00 | 0.00 | 64 | 1031.0 |
| 20260901202705 | 14 | 247 | 0.0 | 0.0 | 0.00 | 0.00 | 0.00 | 64 | 1031.0 |
| 20260901202605 | 14 | 247 | 0.0 | 0.0 | 0.00 | 0.00 | 0.00 | 64 | 1031.0 |
| 20260901202505 | 14 | 247 | 0.0 | 0.0 | 0.00 | 0.00 | 0.00 | 64 | 1031.0 |
| 20260901202405 | 14 | 247 | 0.0 | 0.0 | 0.00 | 0.00 | 0.00 | 64 | 1031.0 |
| 20260901202306 | 14 | 247 | 0.0 | 0.0 | 0.00 | 0.00 | 0.00 | 64 | 1031.0 |
| 20260901202205 | 14 | 247 | 0.0 | 0.0 | 0.00 | 0.00 | 0.00 | 63 | 1031.0 |
| 20260901202105 | 14 | 247 | 0.0 | 0.0 | 0.00 | 0.00 | 0.00 | 63 | 1031.0 |
| 20260901202005 | 14 | 247 | 0.0 | 0.0 | 0.00 | 0.00 | 0.00 | 63 | 1031.0 |
| 20260901201905 | 14 | 247 | 0.0 | 0.0 | 0.00 | 0.00 | 0.00 | 63 | 1031.0 |
| 20260901201805 | 14 | 247 | 0.0 | 0.0 | 0.00 | 0.00 | 0.00 | 63 | 1031.0 |
| 20260901201705 | 14 | 247 | 0.0 | 0.0 | 0.00 | 0.00 | 0.00 | 63 | 1031.0 |
| 20260901201605 | 15 | 247 | 0.0 | 0.0 | 0.00 | 0.00 | 0.00 | 63 | 1031.0 |
| 20260901201505 | 15 | 247 | 0.0 | 0.0 | 0.00 | 0.00 | 0.00 | 63 | 1031.0 |
| 20260901201405 | 15 | 247 | 0.0 | 0.0 | 0.00 | 0.00 | 0.00 | 63 | 1031.0 |
| 20260901201305 | 15 | 247 | 0.0 | 0.0 | 0.00 | 0.00 | 0.00 | 63 | 1031.0 |
| 20260901201205 | 15 | 247 | 0.0 | 0.0 | 0.00 | 0.00 | 0.00 | 63 | 1031.0 |
| 20260901201105 | 15 | 247 | 0.0 | 0.0 | 0.00 | 0.00 | 0.00 | 63 | 1031.0 |
| 20260901201005 | 15 | 247 | 0.0 | 0.0 | 0.00 | 0.00 | 0.00 | 63 | 1031.0 |
| 20260901200905 | 15 | 247 | 0.0 | 0.0 | 0.00 | 0.00 | 0.00 | 63 | 1031.0 |
| 20260901200805 | 15 | 247 | 0.0 | 0.0 | 0.00 | 0.00 | 0.00 | 63 | 1031.0 |
| 20260901200705 | 15 | 247 | 0.0 | 0.0 | 0.00 | 0.00 | 0.00 | 62 | 1031.1 |
| 20260901200605 | 15 | 247 | 0.0 | 0.0 | 0.00 | 0.00 | 0.00 | 62 | 1031.1 |
| 20260901200505 | 15 | 247 | 0.0 | 0.0 | 0.00 | 0.00 | 0.00 | 62 | 1031.0 |
| 20260901200405 | 15 | 247 | 0.0 | 0.0 | 0.00 | 0.00 | 0.00 | 62 | 1031.0 |
| 20260901200305 | 15 | 247 | 0.0 | 0.0 | 0.00 | 0.00 | 0.00 | 62 | 1031.1 |
| 20260901200205 | 15 | 247 | 0.0 | 0.0 | 0.00 | 0.00 | 0.00 | 62 | 1031.0 |
| 20260901200105 | 15 | 247 | 0.0 | 0.0 | 0.00 | 0.00 | 0.00 | 62 | 1031.0 |
| 20260901200005 | 15 | 247 | 0.0 | 0.0 | 0.00 | 0.00 | 0.00 | 62 | 1031.0 |
| 20260901195905 | 15 | 247 | 0.0 | 0.0 | 0.00 | 0.00 | 0.00 | 62 | 1031.1 |
| 20260901195805 | 15 | 247 | 0.0 | 0.0 | 0.00 | 0.00 | 0.00 | 62 | 1031.0 |
| 20260901195705 | 15 | 247 | 0.0 | 0.0 | 0.00 | 0.00 | 0.00 | 62 | 1031.0 |
| 20260901195605 | 15 | 247 | 0.0 | 0.0 | 0.00 | 0.00 | 0.00 | 62 | 1031.1 |
| 20260901195505 | 15 | 247 | 0.0 | 0.0 | 0.00 | 0.00 | 0.00 | 62 | 1031.0 |
| 20260901195405 | 15 | 247 | 0.0 | 0.0 | 0.00 | 0.00 | 0.00 | 62 | 1031.0 |
| 20260901195306 | 15 | 247 | 0.0 | 0.0 | 0.00 | 0.00 | 0.00 | 61 | 1031.0 |
| 20260901195205 | 15 | 247 | 0.0 | 0.0 | 0.00 | 0.00 | 0.00 | 61 | 1031.0 |
| 20260901195105 | 15 | 247 | 0.0 | 0.0 | 0.00 | 0.00 | 0.00 | 61 | 1031.0 |
| 20260901195005 | 15 | 247 | 0.0 | 0.0 | 0.00 | 0.00 | 0.00 | 61 | 1031.0 |
| 20260901194905 | 15 | 247 | 0.0 | 0.0 | 0.00 | 0.00 | 0.00 | 61 | 1031.0 |
| 20260901194805 | 15 | 247 | 0.0 | 0.0 | 0.00 | 0.00 | 0.00 | 61 | 1031.0 |
| 20260901194705 | 15 | 247 | 0.0 | 0.0 | 0.00 | 0.00 | 0.00 | 61 | 1031.0 |
| 20260901194605 | 15 | 247 | 0.0 | 0.0 | 0.00 | 0.00 | 0.00 | 61 | 1031.0 |
| 20260901194505 | 15 | 247 | 0.0 | 0.0 | 0.00 | 0.00 | 0.00 | 61 | 1031.0 |
| 20260901194345 | 15 | 247 | 0.0 | 0.0 | 0.00 | 0.00 | 0.00 | 61 | 1031.0 |
| 20260901194305 | 15 | 247 | 0.0 | 0.0 | 0.00 | 0.00 | 0.00 | 61 | 1031.0 |
| 20260901194205 | 15 | 247 | 0.0 | 0.0 | 0.00 | 0.00 | 0.00 | 61 | 1031.0 |
| 20260901194105 | 15 | 247 | 0.0 | 0.0 | 0.00 | 0.00 | 0.00 | 61 | 1031.0 |
| 20260901194005 | 15 | 247 | 0.0 | 0.0 | 0.00 | 0.00 | 0.00 | 61 | 1031.0 |
| 20260901193905 | 15 | 247 | 0.0 | 0.0 | 0.00 | 0.00 | 0.00 | 61 | 1031.0 |
| 20260901193805 | 15 | 247 | 0.0 | 0.0 | 0.00 | 0.00 | 0.00 | 61 | 1031.0 |
| 20260901193705 | 15 | 247 | 0.0 | 0.0 | 0.00 | 0.00 | 0.00 | 61 | 1031.0 |
| 20260901193605 | 15 | 247 | 0.0 | 0.0 | 0.00 | 0.00 | 0.00 | 61 | 1030.9 |
| 20260901193505 | 16 | 247 | 0.0 | 0.0 | 0.00 | 0.00 | 0.00 | 61 | 1031.0 |
| 20260901193405 | 16 | 247 | 0.0 | 0.0 | 0.00 | 0.00 | 0.00 | 60 | 1031.0 |
| 20260901193305 | 16 | 247 | 0.0 | 0.0 | 0.00 | 0.00 | 0.00 | 60 | 1031.1 |
| 20260901193205 | 16 | 247 | 0.0 | 0.0 | 0.00 | 0.00 | 0.00 | 60 | 1031.1 |
| 20260901193105 | 16 | 247 | 0.0 | 0.0 | 0.00 | 0.00 | 0.00 | 60 | 1031.1 |
| 20260901193005 | 16 | 247 | 0.0 | 0.0 | 0.00 | 0.00 | 0.00 | 60 | 1031.0 |
| 20260901192905 | 16 | 247 | 0.0 | 0.0 | 0.00 | 0.00 | 0.00 | 60 | 1031.0 |
| 20260901192805 | 16 | 247 | 0.0 | 0.0 | 0.00 | 0.00 | 0.00 | 60 | 1031.0 |
| 20260901192705 | 16 | 247 | 0.0 | 0.0 | 0.00 | 0.00 | 0.00 | 60 | 1031.0 |
| 20260901192605 | 16 | 247 | 0.0 | 0.0 | 0.00 | 0.00 | 0.00 | 60 | 1030.9 |
| 20260901192505 | 16 | 247 | 0.0 | 0.0 | 0.00 | 0.00 | 0.00 | 60 | 1031.0 |
| 20260901192405 | 16 | 247 | 0.0 | 0.0 | 0.00 | 0.00 | 0.00 | 60 | 1030.9 |
| 20260901192306 | 16 | 247 | 0.0 | 0.0 | 0.00 | 0.00 | 0.00 | 60 | 1030.9 |
| 20260901192205 | 16 | 247 | 0.0 | 0.0 | 0.00 | 0.00 | 0.00 | 59 | 1030.9 |
| 20260901192105 | 16 | 247 | 0.0 | 0.0 | 0.00 | 0.00 | 0.00 | 59 | 1031.0 |
| 20260901192005 | 16 | 247 | 0.0 | 0.0 | 0.00 | 0.00 | 0.00 | 59 | 1031.0 |
| 20260901191905 | 16 | 247 | 0.0 | 0.0 | 0.00 | 0.00 | 0.00 | 59 | 1031.0 |
| 20260901191805 | 16 | 247 | 0.0 | 0.0 | 0.00 | 0.00 | 0.00 | 59 | 1030.9 |
| 20260901191705 | 16 | 247 | 0.0 | 0.0 | 0.00 | 0.00 | 0.00 | 59 | 1030.9 |
| 20260901191605 | 16 | 247 | 0.0 | 0.0 | 0.00 | 0.00 | 0.00 | 59 | 1031.0 |
| 20260901191505 | 16 | 247 | 0.0 | 0.0 | 0.00 | 0.00 | 0.00 | 59 | 1030.9 |
| 20260901191405 | 16 | 247 | 0.0 | 0.0 | 0.00 | 0.00 | 0.00 | 59 | 1031.0 |
| 20260901191305 | 16 | 247 | 0.0 | 0.0 | 0.00 | 0.00 | 0.00 | 59 | 1030.9 |
| 20260901191205 | 16 | 247 | 0.0 | 0.0 | 0.00 | 0.00 | 0.00 | 59 | 1030.9 |
| 20260901191105 | 16 | 247 | 0.0 | 0.0 | 0.00 | 0.00 | 0.00 | 59 | 1030.8 |
| 20260901191005 | 16 | 247 | 0.0 | 0.0 | 0.00 | 0.00 | 0.00 | 59 | 1030.8 |
| 20260901190905 | 16 | 247 | 0.0 | 0.0 | 0.00 | 0.00 | 0.00 | 58 | 1030.8 |
| 20260901190805 | 16 | 247 | 0.0 | 0.0 | 0.00 | 0.00 | 0.00 | 58 | 1030.9 |
| 20260901190705 | 16 | 247 | 0.0 | 0.0 | 0.00 | 0.00 | 0.00 | 58 | 1030.8 |
| 20260901190605 | 16 | 247 | 0.0 | 0.0 | 0.00 | 0.00 | 0.00 | 58 | 1030.8 |
| 20260901190505 | 17 | 247 | 0.0 | 0.0 | 0.00 | 0.00 | 0.00 | 58 | 1030.8 |
| 20260901190405 | 17 | 247 | 0.0 | 0.0 | 0.00 | 0.00 | 0.00 | 58 | 1030.6 |
| 20260901190305 | 17 | 247 | 0.0 | 0.0 | 0.00 | 0.00 | 0.00 | 58 | 1030.8 |
| 20260901190205 | 17 | 247 | 0.0 | 0.0 | 0.00 | 0.00 | 0.00 | 58 | 1030.9 |
| 20260901190105 | 17 | 247 | 0.0 | 0.0 | 0.00 | 0.00 | 0.00 | 58 | 1030.8 |
| 20260901190005 | 17 | 247 | 0.0 | 0.0 | 0.00 | 0.00 | 0.00 | 58 | 1030.9 |
| 20260901185905 | 17 | 247 | 0.0 | 0.0 | 0.00 | 0.00 | 0.00 | 58 | 1030.8 |
| 20260901185805 | 17 | 247 | 0.0 | 0.0 | 0.00 | 0.00 | 0.00 | 57 | 1030.9 |
| 20260901185705 | 17 | 247 | 0.0 | 0.0 | 0.00 | 0.00 | 0.00 | 57 | 1030.8 |
| 20260901185605 | 17 | 247 | 0.0 | 0.0 | 0.00 | 0.00 | 0.00 | 57 | 1030.8 |
| 20260901185505 | 17 | 247 | 0.0 | 0.0 | 0.00 | 0.00 | 0.00 | 57 | 1030.8 |
| 20260901185405 | 17 | 247 | 0.0 | 0.0 | 0.00 | 0.00 | 0.00 | 57 | 1030.8 |
| 20260901185306 | 17 | 247 | 0.0 | 0.0 | 0.00 | 0.00 | 0.00 | 57 | 1030.8 |
| 20260901185205 | 17 | 247 | 0.0 | 0.0 | 0.00 | 0.00 | 0.00 | 57 | 1030.8 |
| 20260901185105 | 17 | 247 | 0.0 | 0.0 | 0.00 | 0.00 | 0.00 | 57 | 1030.8 |
| 20260901185005 | 17 | 247 | 0.0 | 0.0 | 0.00 | 0.00 | 0.00 | 57 | 1030.5 |
| 20260901184905 | 17 | 247 | 0.0 | 0.0 | 0.00 | 0.00 | 0.00 | 57 | 1030.5 |
| 20260901184805 | 17 | 247 | 0.0 | 0.0 | 0.00 | 0.00 | 0.00 | 57 | 1030.5 |
| 20260901184705 | 17 | 247 | 0.0 | 0.0 | 0.00 | 0.00 | 0.00 | 57 | 1030.5 |
| 20260901184605 | 17 | 247 | 0.0 | 0.0 | 0.00 | 0.00 | 0.00 | 57 | 1030.6 |
| 20260901184505 | 17 | 247 | 0.0 | 0.0 | 0.00 | 0.00 | 0.00 | 57 | 1030.6 |
| 20260901184405 | 17 | 247 | 0.0 | 0.0 | 0.00 | 0.00 | 0.00 | 57 | 1030.5 |
| 20260901184305 | 17 | 247 | 0.0 | 0.0 | 0.00 | 0.00 | 0.00 | 57 | 1030.5 |
| 20260901184205 | 17 | 247 | 0.0 | 0.0 | 0.00 | 0.00 | 0.00 | 57 | 1030.5 |
| 20260901184105 | 17 | 247 | 0.0 | 0.0 | 0.00 | 0.00 | 0.00 | 56 | 1030.6 |
| 20260901184005 | 18 | 247 | 0.0 | 0.0 | 0.00 | 0.00 | 0.00 | 56 | 1030.6 |
| 20260901183905 | 18 | 247 | 0.0 | 0.0 | 0.00 | 0.00 | 0.00 | 56 | 1030.8 |
| 20260901183805 | 18 | 247 | 0.0 | 0.0 | 0.00 | 0.00 | 0.00 | 56 | 1030.6 |
| 20260901183705 | 18 | 247 | 0.0 | 0.0 | 0.00 | 0.00 | 0.00 | 56 | 1030.5 |
| 20260901183605 | 18 | 247 | 0.0 | 0.0 | 0.00 | 0.00 | 0.00 | 56 | 1030.6 |
| 20260901183505 | 18 | 247 | 0.0 | 0.0 | 0.00 | 0.00 | 0.00 | 56 | 1030.6 |
| 20260901183405 | 18 | 247 | 0.0 | 0.0 | 0.00 | 0.00 | 0.00 | 56 | 1030.8 |
| 20260901183305 | 18 | 247 | 0.0 | 0.0 | 0.00 | 0.00 | 0.00 | 56 | 1030.8 |
| 20260901183205 | 18 | 247 | 0.0 | 0.0 | 0.00 | 0.00 | 0.00 | 56 | 1030.6 |
| 20260901183105 | 18 | 247 | 0.0 | 0.0 | 0.00 | 0.00 | 0.00 | 56 | 1030.5 |
| 20260901183005 | 18 | 247 | 0.0 | 0.0 | 0.00 | 0.00 | 0.00 | 55 | 1030.6 |
| 20260901182905 | 18 | 247 | 0.0 | 0.0 | 0.00 | 0.00 | 0.00 | 55 | 1030.5 |
| 20260901182805 | 18 | 247 | 0.0 | 0.0 | 0.00 | 0.00 | 0.00 | 55 | 1030.5 |
| 20260901182705 | 18 | 247 | 0.0 | 0.0 | 0.00 | 0.00 | 0.00 | 55 | 1030.5 |
| 20260901182605 | 18 | 247 | 0.0 | 0.0 | 0.00 | 0.00 | 0.00 | 55 | 1030.5 |
| 20260901182505 | 18 | 247 | 0.0 | 0.0 | 0.00 | 0.00 | 0.00 | 55 | 1030.5 |
| 20260901182405 | 18 | 247 | 0.0 | 0.0 | 0.00 | 0.00 | 0.00 | 55 | 1030.5 |
| 20260901182305 | 18 | 247 | 0.0 | 0.0 | 0.00 | 0.00 | 0.00 | 55 | 1030.5 |
| 20260901182205 | 18 | 247 | 0.0 | 0.0 | 0.00 | 0.00 | 0.00 | 55 | 1030.5 |
| 20260901182105 | 18 | 247 | 0.0 | 0.0 | 0.00 | 0.00 | 0.00 | 55 | 1030.5 |
| 20260901182005 | 18 | 247 | 0.0 | 0.0 | 0.00 | 0.00 | 0.00 | 55 | 1030.5 |
| 20260901181905 | 18 | 247 | 0.0 | 0.0 | 0.00 | 0.00 | 0.00 | 55 | 1030.4 |
| 20260901181805 | 18 | 247 | 0.0 | 0.0 | 0.00 | 0.00 | 0.00 | 54 | 1030.5 |
| 20260901181705 | 18 | 247 | 0.0 | 0.0 | 0.00 | 0.00 | 0.00 | 54 | 1030.4 |
| 20260901181605 | 19 | 247 | 0.0 | 0.0 | 0.00 | 0.00 | 0.00 | 54 | 1030.4 |
| 20260901181505 | 19 | 247 | 0.0 | 0.0 | 0.00 | 0.00 | 0.00 | 54 | 1030.4 |
| 20260901181405 | 19 | 247 | 0.0 | 0.0 | 0.00 | 0.00 | 0.00 | 54 | 1030.3 |
| 20260901181305 | 19 | 247 | 0.0 | 0.0 | 0.00 | 0.00 | 0.00 | 54 | 1030.4 |
| 20260901181205 | 19 | 247 | 0.0 | 0.0 | 0.00 | 0.00 | 0.00 | 54 | 1030.3 |
| 20260901181105 | 19 | 247 | 0.0 | 0.0 | 0.00 | 0.00 | 0.00 | 54 | 1030.5 |
| 20260901181005 | 19 | 247 | 0.0 | 0.0 | 0.00 | 0.00 | 0.00 | 54 | 1030.3 |
| 20260901180905 | 19 | 247 | 0.0 | 0.0 | 0.00 | 0.00 | 0.00 | 54 | 1030.3 |
| 20260901180805 | 20 | 247 | 0.0 | 0.0 | 0.00 | 0.00 | 0.00 | 53 | 1030.3 |
| 20260901180705 | 20 | 247 | 0.0 | 0.0 | 0.00 | 0.00 | 0.00 | 53 | 1030.1 |
| 20260901180605 | 20 | 247 | 0.0 | 0.0 | 0.00 | 0.00 | 0.00 | 53 | 1030.1 |
| 20260901180505 | 20 | 247 | 0.0 | 0.0 | 0.00 | 0.00 | 0.00 | 53 | 1030.1 |
| 20260901180405 | 20 | 247 | 0.0 | 0.0 | 0.00 | 0.00 | 0.00 | 53 | 1030.3 |
| 20260901180305 | 20 | 247 | 0.0 | 0.0 | 0.00 | 0.00 | 0.00 | 53 | 1030.1 |
| 20260901180205 | 20 | 247 | 0.0 | 0.0 | 0.00 | 0.00 | 0.00 | 53 | 1030.3 |
| 20260901180105 | 20 | 247 | 0.0 | 0.0 | 0.00 | 0.00 | 0.00 | 53 | 1030.4 |
| 20260901180005 | 20 | 247 | 0.0 | 0.0 | 0.00 | 0.00 | 0.00 | 53 | 1030.4 |
| 20260901175905 | 20 | 247 | 0.0 | 0.0 | 0.00 | 0.00 | 0.00 | 53 | 1030.3 |
| 20260901175805 | 20 | 247 | 0.0 | 0.0 | 0.00 | 0.00 | 0.00 | 53 | 1030.1 |
| 20260901175705 | 20 | 247 | 0.0 | 0.0 | 0.00 | 0.00 | 0.00 | 53 | 1030.1 |
| 20260901175605 | 20 | 247 | 0.0 | 0.0 | 0.00 | 0.00 | 0.00 | 53 | 1030.1 |
| 20260901175505 | 20 | 247 | 0.0 | 0.0 | 0.00 | 0.00 | 0.00 | 52 | 1030.1 |
| 20260901175405 | 20 | 247 | 0.0 | 0.0 | 0.00 | 0.00 | 0.00 | 52 | 1030.1 |
| 20260901175305 | 20 | 247 | 0.0 | 0.0 | 0.00 | 0.00 | 0.00 | 52 | 1030.3 |
| 20260901175205 | 20 | 247 | 0.0 | 0.0 | 0.00 | 0.00 | 0.00 | 52 | 1030.3 |
| 20260901175105 | 20 | 247 | 0.0 | 0.0 | 0.00 | 0.00 | 0.00 | 52 | 1030.0 |
| 20260901175005 | 21 | 247 | 0.0 | 0.0 | 0.00 | 0.00 | 0.00 | 52 | 1030.1 |
| 20260901174905 | 21 | 247 | 0.0 | 0.0 | 0.00 | 0.00 | 0.00 | 52 | 1030.1 |
| 20260901174805 | 21 | 247 | 0.0 | 0.0 | 0.00 | 0.00 | 0.00 | 52 | 1030.1 |
| 20260901174705 | 21 | 247 | 0.0 | 0.0 | 0.00 | 0.00 | 0.00 | 52 | 1030.3 |
| 20260901174605 | 21 | 247 | 0.0 | 0.0 | 0.00 | 0.00 | 0.00 | 52 | 1030.3 |
| 20260901174505 | 21 | 247 | 0.0 | 0.0 | 0.00 | 0.00 | 0.00 | 52 | 1030.4 |
| 20260901174405 | 21 | 247 | 0.0 | 0.0 | 0.00 | 0.00 | 0.00 | 51 | 1030.4 |
| 20260901174305 | 21 | 247 | 0.0 | 0.0 | 0.00 | 0.00 | 0.00 | 51 | 1030.3 |
| 20260901174205 | 21 | 247 | 0.0 | 0.0 | 0.00 | 0.00 | 0.00 | 51 | 1030.4 |
| 20260901174105 | 21 | 247 | 0.0 | 0.0 | 0.00 | 0.00 | 0.00 | 51 | 1030.3 |
| 20260901174006 | 21 | 247 | 0.0 | 0.0 | 0.00 | 0.00 | 0.00 | 51 | 1030.3 |
| 20260901173905 | 21 | 247 | 0.0 | 0.0 | 0.00 | 0.00 | 0.00 | 51 | 1030.0 |
| 20260901173805 | 21 | 247 | 0.0 | 0.0 | 0.00 | 0.00 | 0.00 | 51 | 1030.1 |
| 20260901173705 | 21 | 247 | 0.0 | 0.0 | 0.00 | 0.00 | 0.00 | 51 | 1030.0 |
| 20260901173605 | 21 | 247 | 0.0 | 0.0 | 0.00 | 0.00 | 0.00 | 51 | 1030.0 |
| 20260901173505 | 21 | 247 | 0.0 | 0.0 | 0.00 | 0.00 | 0.00 | 51 | 1030.0 |
| 20260901173405 | 21 | 247 | 0.0 | 0.0 | 0.00 | 0.00 | 0.00 | 51 | 1030.0 |
| 20260901173305 | 21 | 247 | 0.0 | 0.0 | 0.00 | 0.00 | 0.00 | 51 | 1030.3 |
| 20260901173205 | 21 | 247 | 0.0 | 0.0 | 0.00 | 0.00 | 0.00 | 50 | 1030.1 |
| 20260901173105 | 22 | 247 | 0.0 | 0.0 | 0.00 | 0.00 | 0.00 | 50 | 1030.1 |
| 20260901173005 | 22 | 247 | 0.0 | 0.0 | 0.00 | 0.00 | 0.00 | 50 | 1030.1 |
| 20260901172905 | 22 | 247 | 0.0 | 0.0 | 0.00 | 0.00 | 0.00 | 50 | 1030.1 |
| 20260901172805 | 22 | 247 | 0.0 | 0.0 | 0.00 | 0.00 | 0.00 | 50 | 1030.0 |
| 20260901172705 | 22 | 247 | 0.0 | 0.0 | 0.00 | 0.00 | 0.00 | 50 | 1030.0 |
| 20260901172605 | 22 | 247 | 0.0 | 0.0 | 0.00 | 0.00 | 0.00 | 50 | 1030.1 |
| 20260901172505 | 22 | 247 | 0.0 | 0.0 | 0.00 | 0.00 | 0.00 | 50 | 1030.1 |
| 20260901172405 | 22 | 247 | 0.0 | 0.0 | 0.00 | 0.00 | 0.00 | 50 | 1030.0 |
| 20260901172305 | 22 | 247 | 0.0 | 0.0 | 0.00 | 0.00 | 0.00 | 50 | 1030.0 |
| 20260901172205 | 22 | 247 | 0.0 | 0.0 | 0.00 | 0.00 | 0.00 | 50 | 1030.1 |
| 20260901172105 | 22 | 247 | 0.0 | 0.0 | 0.00 | 0.00 | 0.00 | 50 | 1030.0 |
| 20260901172005 | 22 | 247 | 0.0 | 0.0 | 0.00 | 0.00 | 0.00 | 49 | 1030.0 |
| 20260901171905 | 22 | 247 | 0.0 | 0.0 | 0.00 | 0.00 | 0.00 | 49 | 1030.0 |
| 20260901171805 | 22 | 247 | 0.0 | 0.0 | 0.00 | 0.00 | 0.00 | 49 | 1030.0 |
| 20260901171705 | 22 | 247 | 0.0 | 0.0 | 0.00 | 0.00 | 0.00 | 49 | 1030.0 |
| 20260901171605 | 22 | 247 | 0.0 | 0.0 | 0.00 | 0.00 | 0.00 | 49 | 1030.0 |
| 20260901171505 | 22 | 247 | 0.0 | 0.0 | 0.00 | 0.00 | 0.00 | 49 | 1030.0 |
| 20260901171405 | 22 | 247 | 0.0 | 0.0 | 0.00 | 0.00 | 0.00 | 49 | 1030.0 |
| 20260901171305 | 22 | 247 | 294.5 | 0.0 | 0.00 | 0.00 | 0.00 | 49 | 1030.1 |
| 20260901171205 | 22 | 247 | 0.0 | 0.0 | 0.00 | 0.00 | 0.00 | 49 | 1030.1 |
| 20260901171105 | 22 | 247 | 0.0 | 0.0 | 0.00 | 0.00 | 0.00 | 49 | 1030.1 |
| 20260901171005 | 22 | 247 | 0.0 | 0.0 | 0.00 | 0.00 | 0.00 | 49 | 1030.1 |
| 20260901170905 | 22 | 247 | 0.0 | 0.0 | 0.00 | 0.00 | 0.00 | 48 | 1030.1 |
| 20260901170805 | 22 | 247 | 0.0 | 0.0 | 0.00 | 0.00 | 0.00 | 48 | 1030.1 |
| 20260901170705 | 22 | 247 | 0.0 | 0.0 | 0.00 | 0.00 | 0.00 | 48 | 1030.0 |
| 20260901170605 | 22 | 247 | 0.0 | 0.0 | 0.00 | 0.00 | 0.00 | 48 | 1030.0 |
| 20260901170504 | 23 | 247 | 0.0 | 0.0 | 0.00 | 0.00 | 0.00 | 48 | 1030.1 |
| 20260901170405 | 23 | 247 | 0.0 | 0.0 | 0.00 | 0.00 | 0.00 | 48 | 1030.0 |
| 20260901170305 | 23 | 247 | 0.0 | 0.0 | 0.00 | 0.00 | 0.00 | 48 | 1030.0 |
| 20260901170205 | 23 | 247 | 0.0 | 0.0 | 0.00 | 0.00 | 0.00 | 48 | 1030.0 |
| 20260901170105 | 23 | 247 | 0.0 | 0.0 | 0.00 | 0.00 | 0.00 | 48 | 1030.0 |
| 20260901170005 | 23 | 247 | 0.0 | 0.0 | 0.00 | 0.00 | 0.00 | 48 | 1030.0 |
| 20260901165905 | 23 | 247 | 0.0 | 0.0 | 0.00 | 0.00 | 0.00 | 47 | 1030.0 |
| 20260901165804 | 23 | 247 | 0.0 | 0.0 | 0.00 | 0.00 | 0.00 | 47 | 1030.0 |
| 20260901165704 | 23 | 247 | 0.0 | 0.0 | 0.00 | 0.00 | 0.00 | 47 | 1030.0 |
| 20260901165605 | 23 | 247 | 0.0 | 0.0 | 0.00 | 0.00 | 0.00 | 47 | 1030.1 |
| 20260901165505 | 23 | 247 | 0.0 | 0.0 | 0.00 | 0.00 | 0.00 | 47 | 1030.1 |
| 20260901165404 | 23 | 247 | 0.0 | 0.0 | 0.00 | 0.00 | 0.00 | 47 | 1030.1 |
| 20260901165306 | 23 | 247 | 0.0 | 0.0 | 0.00 | 0.00 | 0.00 | 47 | 1030.0 |
| 20260901165205 | 23 | 247 | 0.0 | 0.0 | 0.00 | 0.00 | 0.00 | 47 | 1030.0 |
| 20260901165104 | 23 | 247 | 0.0 | 0.0 | 0.00 | 0.00 | 0.00 | 47 | 1030.0 |
| 20260901165004 | 23 | 247 | 0.0 | 0.0 | 0.00 | 0.00 | 0.00 | 46 | 1030.0 |
| 20260901164904 | 23 | 247 | 0.0 | 0.0 | 0.00 | 0.00 | 0.00 | 46 | 1030.0 |
| 20260901164805 | 23 | 247 | 0.0 | 0.0 | 0.00 | 0.00 | 0.00 | 46 | 1030.0 |
| 20260901164705 | 23 | 247 | 0.0 | 0.0 | 0.00 | 0.00 | 0.00 | 46 | 1030.0 |
| 20260901164605 | 23 | 247 | 0.0 | 0.0 | 0.00 | 0.00 | 0.00 | 46 | 1030.0 |
| 20260901164504 | 23 | 247 | 0.0 | 0.0 | 0.00 | 0.00 | 0.00 | 46 | 1030.0 |
| 20260901164404 | 23 | 247 | 0.0 | 0.0 | 0.00 | 0.00 | 0.00 | 46 | 1030.0 |
| 20260901164305 | 23 | 247 | 0.0 | 0.0 | 0.00 | 0.00 | 0.00 | 46 | 1030.0 |
| 20260901164204 | 24 | 247 | 0.0 | 0.0 | 0.00 | 0.00 | 0.00 | 46 | 1030.0 |
| 20260901164104 | 24 | 247 | 0.0 | 0.0 | 0.00 | 0.00 | 0.00 | 46 | 1030.0 |
| 20260901164004 | 24 | 247 | 0.0 | 0.0 | 0.00 | 0.00 | 0.00 | 46 | 1030.1 |
| 20260901163905 | 24 | 247 | 0.0 | 0.0 | 0.00 | 0.00 | 0.00 | 46 | 1030.1 |
| 20260901163805 | 24 | 247 | 0.0 | 0.0 | 0.00 | 0.00 | 0.00 | 46 | 1030.1 |
| 20260901163704 | 24 | 247 | 0.0 | 0.0 | 0.00 | 0.00 | 0.00 | 46 | 1030.0 |
| 20260901163604 | 24 | 247 | 0.0 | 0.0 | 0.00 | 0.00 | 0.00 | 46 | 1030.1 |
| 20260901163504 | 24 | 247 | 0.0 | 0.0 | 0.00 | 0.00 | 0.00 | 46 | 1030.1 |
| 20260901163404 | 24 | 247 | 0.0 | 0.0 | 0.00 | 0.00 | 0.00 | 46 | 1030.1 |
| 20260901163304 | 24 | 247 | 0.0 | 0.0 | 0.00 | 0.00 | 0.00 | 45 | 1030.1 |
| 20260901163205 | 25 | 247 | 0.0 | 0.0 | 0.00 | 0.00 | 0.00 | 45 | 1030.3 |
| 20260901163105 | 24 | 247 | 0.0 | 0.0 | 0.00 | 0.00 | 0.00 | 45 | 1030.3 |
| 20260901163004 | 25 | 247 | 0.0 | 0.0 | 0.00 | 0.00 | 0.00 | 45 | 1030.1 |
| 20260901162905 | 25 | 247 | 0.0 | 0.0 | 0.00 | 0.00 | 0.00 | 45 | 1030.0 |
| 20260901162804 | 25 | 247 | 0.0 | 0.0 | 0.00 | 0.00 | 0.00 | 45 | 1030.3 |
| 20260901162704 | 25 | 247 | 0.0 | 0.0 | 0.00 | 0.00 | 0.00 | 45 | 1030.1 |
| 20260901162604 | 25 | 247 | 0.0 | 0.0 | 0.00 | 0.00 | 0.00 | 45 | 1030.1 |
| 20260901162505 | 25 | 247 | 0.0 | 0.0 | 0.00 | 0.00 | 0.00 | 45 | 1030.3 |
| 20260901162404 | 25 | 247 | 0.0 | 0.0 | 0.00 | 0.00 | 0.00 | 45 | 1030.3 |
| 20260901162306 | 25 | 247 | 0.0 | 0.0 | 0.00 | 0.00 | 0.00 | 45 | 1030.3 |
| 20260901162204 | 25 | 247 | 0.0 | 0.0 | 0.00 | 0.00 | 0.00 | 45 | 1030.3 |
| 20260901162104 | 25 | 247 | 0.0 | 0.0 | 0.00 | 0.00 | 0.00 | 45 | 1030.4 |
| 20260901162004 | 25 | 247 | 0.0 | 0.0 | 0.00 | 0.00 | 0.00 | 45 | 1030.3 |
| 20260901161904 | 25 | 247 | 0.0 | 0.0 | 0.00 | 0.00 | 0.00 | 45 | 1030.4 |
| 20260901161804 | 25 | 247 | 0.0 | 0.0 | 0.00 | 0.00 | 0.00 | 45 | 1030.4 |
| 20260901161704 | 25 | 247 | 0.0 | 0.0 | 0.00 | 0.00 | 0.00 | 45 | 1030.3 |
| 20260901161604 | 25 | 247 | 0.0 | 0.0 | 0.00 | 0.00 | 0.00 | 45 | 1030.3 |
| 20260901161504 | 25 | 247 | 0.0 | 0.0 | 0.00 | 0.00 | 0.00 | 45 | 1030.3 |
| 20260901161404 | 25 | 247 | 0.0 | 0.0 | 0.00 | 0.00 | 0.00 | 45 | 1030.3 |
| 20260901161304 | 25 | 247 | 0.0 | 0.0 | 0.00 | 0.00 | 0.00 | 45 | 1030.1 |
| 20260901161204 | 25 | 247 | 0.0 | 0.0 | 0.00 | 0.00 | 0.00 | 45 | 1030.4 |
| 20260901161104 | 25 | 247 | 0.0 | 0.0 | 0.00 | 0.00 | 0.00 | 45 | 1030.3 |
| 20260901161004 | 25 | 247 | 0.0 | 0.0 | 0.00 | 0.00 | 0.00 | 44 | 1030.4 |
| 20260901160904 | 25 | 247 | 0.0 | 0.0 | 0.00 | 0.00 | 0.00 | 44 | 1030.3 |
| 20260901160804 | 25 | 247 | 0.0 | 0.0 | 0.00 | 0.00 | 0.00 | 44 | 1030.3 |
| 20260901160704 | 25 | 247 | 0.0 | 0.0 | 0.00 | 0.00 | 0.00 | 44 | 1030.4 |
| 20260901160604 | 25 | 247 | 0.0 | 0.0 | 0.00 | 0.00 | 0.00 | 44 | 1030.4 |
| 20260901160504 | 25 | 247 | 0.0 | 0.0 | 0.00 | 0.00 | 0.00 | 44 | 1030.3 |
| 20260901160404 | 25 | 247 | 0.0 | 0.0 | 0.00 | 0.00 | 0.00 | 44 | 1030.3 |
| 20260901160304 | 25 | 247 | 0.0 | 0.0 | 0.00 | 0.00 | 0.00 | 44 | 1030.3 |
| 20260901160204 | 25 | 247 | 0.0 | 0.0 | 0.00 | 0.00 | 0.00 | 44 | 1030.4 |
| 20260901160104 | 26 | 247 | 0.0 | 0.0 | 0.00 | 0.00 | 0.00 | 44 | 1030.3 |
| 20260901160004 | 26 | 247 | 1.6 | 0.0 | 0.00 | 0.00 | 0.00 | 44 | 1030.5 |
| 20260901155904 | 26 | 247 | 0.0 | 0.0 | 0.00 | 0.00 | 0.00 | 44 | 1030.4 |
| 20260901155804 | 26 | 247 | 0.0 | 0.0 | 0.00 | 0.00 | 0.00 | 44 | 1030.4 |
| 20260901155704 | 26 | 247 | 0.0 | 0.0 | 0.00 | 0.00 | 0.00 | 44 | 1030.4 |
| 20260901155604 | 26 | 247 | 0.0 | 0.0 | 0.00 | 0.00 | 0.00 | 44 | 1030.4 |
| 20260901155504 | 26 | 247 | 0.0 | 0.0 | 0.00 | 0.00 | 0.00 | 44 | 1030.4 |
| 20260901155404 | 26 | 247 | 0.0 | 0.0 | 0.00 | 0.00 | 0.00 | 44 | 1030.5 |
| 20260901155306 | 26 | 247 | 0.0 | 0.0 | 0.00 | 0.00 | 0.00 | 44 | 1030.4 |
| 20260901155204 | 26 | 247 | 0.0 | 0.0 | 0.00 | 0.00 | 0.00 | 44 | 1030.4 |
| 20260901155104 | 26 | 247 | 0.0 | 0.0 | 0.00 | 0.00 | 0.00 | 44 | 1030.4 |
| 20260901155004 | 26 | 247 | 6.4 | 0.0 | 0.00 | 0.00 | 0.00 | 44 | 1030.4 |
| 20260901154904 | 26 | 247 | 0.0 | 0.0 | 0.00 | 0.00 | 0.00 | 44 | 1030.4 |
| 20260901154804 | 26 | 247 | 0.0 | 0.0 | 0.00 | 0.00 | 0.00 | 44 | 1030.1 |
| 20260901154704 | 26 | 247 | 0.0 | 0.0 | 0.00 | 0.00 | 0.00 | 44 | 1030.1 |
| 20260901154604 | 26 | 247 | 0.0 | 0.0 | 0.00 | 0.00 | 0.00 | 44 | 1030.1 |
| 20260901154504 | 26 | 247 | 0.0 | 0.0 | 0.00 | 0.00 | 0.00 | 44 | 1030.1 |
| 20260901154404 | 26 | 247 | 3.2 | 0.0 | 0.00 | 0.00 | 0.00 | 43 | 1030.1 |
| 20260901154304 | 26 | 247 | 3.2 | 0.0 | 0.00 | 0.00 | 0.00 | 43 | 1030.3 |
| 20260901154204 | 26 | 247 | 0.0 | 0.0 | 0.00 | 0.00 | 0.00 | 43 | 1030.3 |
| 20260901154104 | 27 | 247 | 0.0 | 0.0 | 0.00 | 0.00 | 0.00 | 43 | 1030.1 |
| 20260901154004 | 27 | 247 | 0.0 | 0.0 | 0.00 | 0.00 | 0.00 | 43 | 1030.3 |
| 20260901153904 | 27 | 247 | 0.0 | 0.0 | 0.00 | 0.00 | 0.00 | 43 | 1030.3 |
| 20260901153804 | 27 | 247 | 4.8 | 0.0 | 0.00 | 0.00 | 0.00 | 44 | 1030.3 |
| 20260901153704 | 27 | 247 | 3.2 | 0.0 | 0.00 | 0.00 | 0.00 | 44 | 1030.3 |
| 20260901153604 | 27 | 247 | 0.0 | 0.0 | 0.00 | 0.00 | 0.00 | 44 | 1030.1 |
| 20260901153504 | 27 | 247 | 8.0 | 0.0 | 0.00 | 0.00 | 0.00 | 44 | 1030.1 |
| 20260901153404 | 27 | 247 | 0.0 | 0.0 | 0.00 | 0.00 | 0.00 | 44 | 1030.3 |
| 20260901153304 | 27 | 247 | 0.0 | 0.0 | 0.00 | 0.00 | 0.00 | 44 | 1030.1 |
| 20260901153204 | 27 | 247 | 4.8 | 0.0 | 0.00 | 0.00 | 0.00 | 44 | 1030.3 |
| 20260901153104 | 27 | 247 | 8.0 | 0.0 | 0.00 | 0.00 | 0.00 | 44 | 1030.4 |
| 20260901153004 | 27 | 247 | 0.0 | 0.0 | 0.00 | 0.00 | 0.00 | 44 | 1030.4 |
| 20260901152904 | 27 | 247 | 0.0 | 0.0 | 0.00 | 0.00 | 0.00 | 44 | 1030.4 |
| 20260901152804 | 27 | 247 | 6.4 | 0.0 | 0.00 | 0.00 | 0.00 | 44 | 1030.4 |
| 20260901152704 | 27 | 247 | 11.3 | 0.0 | 0.00 | 0.00 | 0.00 | 44 | 1030.5 |
| 20260901152604 | 27 | 247 | 0.0 | 0.0 | 0.00 | 0.00 | 0.00 | 44 | 1030.3 |
| 20260901152504 | 27 | 247 | 9.7 | 0.0 | 0.00 | 0.00 | 0.00 | 44 | 1030.3 |
| 20260901152404 | 27 | 247 | 3.2 | 0.0 | 0.00 | 0.00 | 0.00 | 44 | 1030.1 |
| 20260901152306 | 27 | 247 | 0.0 | 0.0 | 0.00 | 0.00 | 0.00 | 44 | 1030.1 |
| 20260901152204 | 27 | 247 | 1.6 | 0.0 | 0.00 | 0.00 | 0.00 | 44 | 1030.1 |
| 20260901152104 | 27 | 247 | 0.0 | 0.0 | 0.00 | 0.00 | 0.00 | 44 | 1030.3 |
| 20260901152004 | 27 | 247 | 0.0 | 0.0 | 0.00 | 0.00 | 0.00 | 44 | 1030.3 |
| 20260901151904 | 27 | 247 | 0.0 | 0.0 | 0.00 | 0.00 | 0.00 | 44 | 1030.1 |
| 20260901151804 | 27 | 247 | 0.0 | 0.0 | 0.00 | 0.00 | 0.00 | 44 | 1030.3 |
| 20260901151704 | 27 | 247 | 3.2 | 0.0 | 0.00 | 0.00 | 0.00 | 44 | 1030.3 |
| 20260901151604 | 27 | 247 | 3.2 | 0.0 | 0.00 | 0.00 | 0.00 | 44 | 1030.1 |
| 20260901151504 | 27 | 247 | 0.0 | 0.0 | 0.00 | 0.00 | 0.00 | 44 | 1030.1 |
| 20260901151404 | 27 | 247 | 0.0 | 0.0 | 0.00 | 0.00 | 0.00 | 44 | 1030.1 |
| 20260901151304 | 27 | 247 | 0.0 | 0.0 | 0.00 | 0.00 | 0.00 | 44 | 1030.1 |
| 20260901151204 | 27 | 247 | 16.1 | 0.0 | 0.00 | 0.00 | 0.00 | 44 | 1030.3 |
| 20260901151104 | 27 | 247 | 1.6 | 0.0 | 0.00 | 0.00 | 0.00 | 44 | 1030.3 |
| 20260901151004 | 27 | 247 | 1.6 | 0.0 | 0.00 | 0.00 | 0.00 | 44 | 1030.3 |
| 20260901150904 | 27 | 247 | 8.0 | 0.0 | 0.00 | 0.00 | 0.00 | 44 | 1030.1 |
| 20260901150804 | 27 | 247 | 6.4 | 0.0 | 0.00 | 0.00 | 0.00 | 44 | 1030.1 |
| 20260901150704 | 27 | 270 | 0.0 | 0.0 | 0.00 | 0.00 | 0.00 | 44 | 1030.3 |
| 20260901150604 | 27 | 292 | 0.0 | 0.0 | 0.00 | 0.00 | 0.00 | 44 | 1030.4 |
| 20260901150504 | 27 | 292 | 0.0 | 0.0 | 0.00 | 0.00 | 0.00 | 44 | 1030.3 |
| 20260901150404 | 27 | 292 | 0.0 | 0.0 | 0.00 | 0.00 | 0.00 | 44 | 1030.3 |
| 20260901150304 | 27 | 292 | 0.0 | 0.0 | 0.00 | 0.00 | 0.00 | 43 | 1030.3 |
| 20260901150204 | 27 | 292 | 0.0 | 0.0 | 0.00 | 0.00 | 0.00 | 43 | 1030.3 |
| 20260901150104 | 28 | 292 | 0.0 | 0.0 | 0.00 | 0.00 | 0.00 | 43 | 1030.0 |
| 20260901150004 | 28 | 292 | 0.0 | 0.0 | 0.00 | 0.00 | 0.00 | 43 | 1030.1 |
| 20260901145904 | 28 | 292 | 0.0 | 0.0 | 0.00 | 0.00 | 0.00 | 43 | 1030.1 |
| 20260901145805 | 28 | 292 | 0.0 | 0.0 | 0.00 | 0.00 | 0.00 | 43 | 1030.3 |
| 20260901145704 | 28 | 292 | 0.0 | 0.0 | 0.00 | 0.00 | 0.00 | 43 | 1030.3 |
| 20260901145604 | 28 | 292 | 0.0 | 0.0 | 0.00 | 0.00 | 0.00 | 43 | 1030.0 |
| 20260901145504 | 28 | 292 | 0.0 | 0.0 | 0.00 | 0.00 | 0.00 | 43 | 1030.3 |
| 20260901145404 | 28 | 292 | 0.0 | 0.0 | 0.00 | 0.00 | 0.00 | 43 | 1030.3 |
| 20260901145306 | 28 | 292 | 0.0 | 0.0 | 0.00 | 0.00 | 0.00 | 43 | 1030.3 |
| 20260901145204 | 28 | 292 | 0.0 | 0.0 | 0.00 | 0.00 | 0.00 | 43 | 1030.1 |
| 20260901145104 | 28 | 292 | 0.0 | 0.0 | 0.00 | 0.00 | 0.00 | 43 | 1030.3 |
| 20260901145004 | 28 | 292 | 0.0 | 0.0 | 0.00 | 0.00 | 0.00 | 43 | 1030.3 |
| 20260901144904 | 28 | 292 | 0.0 | 0.0 | 0.00 | 0.00 | 0.00 | 44 | 1030.4 |
| 20260901144804 | 28 | 292 | 0.0 | 0.0 | 0.00 | 0.00 | 0.00 | 44 | 1030.4 |
| 20260901144704 | 28 | 292 | 0.0 | 0.0 | 0.00 | 0.00 | 0.00 | 44 | 1030.3 |
| 20260901144604 | 28 | 292 | 0.0 | 0.0 | 0.00 | 0.00 | 0.00 | 44 | 1030.3 |
| 20260901144504 | 28 | 292 | 0.0 | 0.0 | 0.00 | 0.00 | 0.00 | 44 | 1030.4 |
| 20260901144404 | 28 | 292 | 0.0 | 0.0 | 0.00 | 0.00 | 0.00 | 44 | 1030.3 |
| 20260901144304 | 28 | 292 | 0.0 | 0.0 | 0.00 | 0.00 | 0.00 | 44 | 1030.3 |
| 20260901144204 | 28 | 292 | 0.0 | 0.0 | 0.00 | 0.00 | 0.00 | 44 | 1030.3 |
| 20260901144104 | 28 | 292 | 0.0 | 0.0 | 0.00 | 0.00 | 0.00 | 44 | 1030.3 |
| 20260901144004 | 28 | 292 | 0.0 | 0.0 | 0.00 | 0.00 | 0.00 | 44 | 1030.3 |
| 20260901143904 | 28 | 292 | 0.0 | 0.0 | 0.00 | 0.00 | 0.00 | 44 | 1030.4 |
| 20260901143804 | 28 | 292 | 0.0 | 0.0 | 0.00 | 0.00 | 0.00 | 44 | 1030.3 |
| 20260901143704 | 28 | 292 | 0.0 | 0.0 | 0.00 | 0.00 | 0.00 | 44 | 1030.3 |
| 20260901143604 | 28 | 292 | 0.0 | 0.0 | 0.00 | 0.00 | 0.00 | 44 | 1030.3 |
| 20260901143504 | 28 | 292 | 0.0 | 0.0 | 0.00 | 0.00 | 0.00 | 44 | 1030.3 |
| 20260901143404 | 28 | 292 | 0.0 | 0.0 | 0.00 | 0.00 | 0.00 | 44 | 1030.1 |
| 20260901143304 | 28 | 292 | 0.0 | 0.0 | 0.00 | 0.00 | 0.00 | 44 | 1030.1 |
| 20260901143204 | 28 | 292 | 0.0 | 0.0 | 0.00 | 0.00 | 0.00 | 44 | 1030.3 |
| 20260901143104 | 28 | 292 | 0.0 | 0.0 | 0.00 | 0.00 | 0.00 | 44 | 1030.1 |
| 20260901143004 | 28 | 292 | 0.0 | 0.0 | 0.00 | 0.00 | 0.00 | 44 | 1030.1 |
| 20260901142904 | 28 | 292 | 0.0 | 0.0 | 0.00 | 0.00 | 0.00 | 44 | 1030.1 |
| 20260901142804 | 28 | 292 | 0.0 | 0.0 | 0.00 | 0.00 | 0.00 | 44 | 1030.1 |
| 20260901142704 | 28 | 292 | 0.0 | 0.0 | 0.00 | 0.00 | 0.00 | 44 | 1030.0 |
| 20260901142604 | 28 | 292 | 0.0 | 0.0 | 0.00 | 0.00 | 0.00 | 44 | 1030.1 |
| 20260901142504 | 28 | 292 | 0.0 | 0.0 | 0.00 | 0.00 | 0.00 | 44 | 1030.1 |
| 20260901142404 | 28 | 292 | 0.0 | 0.0 | 0.00 | 0.00 | 0.00 | 44 | 1030.3 |
| 20260901142306 | 28 | 292 | 0.0 | 0.0 | 0.00 | 0.00 | 0.00 | 44 | 1030.1 |
| 20260901142204 | 28 | 292 | 0.0 | 0.0 | 0.00 | 0.00 | 0.00 | 44 | 1030.1 |
| 20260901142104 | 28 | 292 | 0.0 | 0.0 | 0.00 | 0.00 | 0.00 | 44 | 1030.1 |
| 20260901142004 | 28 | 292 | 0.0 | 0.0 | 0.00 | 0.00 | 0.00 | 44 | 1030.3 |
| 20260901141904 | 28 | 292 | 0.0 | 0.0 | 0.00 | 0.00 | 0.00 | 44 | 1030.1 |
| 20260901141804 | 28 | 292 | 0.0 | 0.0 | 0.00 | 0.00 | 0.00 | 44 | 1030.1 |
| 20260901141704 | 28 | 292 | 0.0 | 0.0 | 0.00 | 0.00 | 0.00 | 44 | 1030.1 |
| 20260901141604 | 28 | 292 | 0.0 | 0.0 | 0.00 | 0.00 | 0.00 | 44 | 1030.3 |
| 20260901141504 | 28 | 292 | 0.0 | 0.0 | 0.00 | 0.00 | 0.00 | 44 | 1030.3 |
| 20260901141404 | 27 | 292 | 0.0 | 0.0 | 0.00 | 0.00 | 0.00 | 44 | 1030.4 |
| 20260901141304 | 27 | 292 | 0.0 | 0.0 | 0.00 | 0.00 | 0.00 | 44 | 1030.3 |
| 20260901141204 | 27 | 292 | 0.0 | 0.0 | 0.00 | 0.00 | 0.00 | 44 | 1030.3 |
| 20260901141104 | 27 | 292 | 0.0 | 0.0 | 0.00 | 0.00 | 0.00 | 44 | 1030.3 |
| 20260901141004 | 27 | 292 | 0.0 | 0.0 | 0.00 | 0.00 | 0.00 | 44 | 1030.4 |
| 20260901140904 | 27 | 292 | 0.0 | 0.0 | 0.00 | 0.00 | 0.00 | 44 | 1030.4 |
| 20260901140804 | 27 | 292 | 0.0 | 0.0 | 0.00 | 0.00 | 0.00 | 44 | 1030.4 |
| 20260901140704 | 27 | 292 | 0.0 | 0.0 | 0.00 | 0.00 | 0.00 | 44 | 1030.4 |
| 20260901140604 | 27 | 292 | 0.0 | 0.0 | 0.00 | 0.00 | 0.00 | 44 | 1030.4 |
| 20260901140504 | 27 | 292 | 0.0 | 0.0 | 0.00 | 0.00 | 0.00 | 44 | 1030.4 |
| 20260901140404 | 27 | 292 | 0.0 | 0.0 | 0.00 | 0.00 | 0.00 | 44 | 1030.4 |
| 20260901140304 | 27 | 292 | 0.0 | 0.0 | 0.00 | 0.00 | 0.00 | 44 | 1030.4 |
| 20260901140204 | 27 | 292 | 0.0 | 0.0 | 0.00 | 0.00 | 0.00 | 45 | 1030.5 |
| 20260901140104 | 27 | 292 | 3.2 | 0.0 | 0.00 | 0.00 | 0.00 | 45 | 1030.5 |
| 20260901140004 | 27 | 292 | 0.0 | 0.0 | 0.00 | 0.00 | 0.00 | 45 | 1030.4 |